GFSCGP_500_rhum_015.txt.gz
RH
54 66 59 31 30 25 18 53 39 48 30 40 22 14 17 16 20 23 24 20 27 32 71 75 57 41 36 55 85 98 92 88 59 36 51 77 82 97 86 70 65 79 72 70
41 34 22 39 77 83 79 48 42 41 49 37 28 24 20 20 19 17 19 49 75 72 92 100 95 83 84 100 97 70 53 50 44 48 62 76 91 72 65 69 73 76 75 56
20 47 73 92 92 76 77 74 79 74 60 52 30 22 17 17 19 30 27 28 56 68 74 84 98 99 74 75 74 74 61 52 53 54 58 57 60 70 76 82 79 59 36 29
29 39 50 49 32 36 59 74 76 79 72 67 39 24 22 23 26 36 34 45 79 94 90 98 74 76 82 97 93 76 75 63 66 56 59 74 81 88 90 80 64 58 56 56
41 42 36 26 28 28 29 31 44 57 76 72 45 27 22 23 25 38 50 68 87 97 79 84 91 76 85 78 69 64 72 75 66 72 87 97 98 95 76 66 49 39 39 39
29 21 22 20 19 18 19 23 24 24 27 30 26 26 23 28 52 78 85 79 69 96 98 75 58 70 80 96 85 66 68 79 86 90 91 80 58 45 41 38 39 38 35 35
25 24 23 23 26 26 28 26 23 21 20 21 21 21 17 23 37 56 75 79 100 92 69 77 79 99 92 77 76 82 88 95 91 80 65 54 46 38 34 34 35 33 33 33
12 13 13 14 15 17 18 20 21 21 21 20 25 25 30 36 38 36 36 43 44 54 97 99 98 90 76 70 80 73 68 48 41 42 40 35 33 31 34 37 33 34 43 45
14 13 17 20 21 21 26 27 26 20 17 16 15 15 21 21 22 26 34 34 38 58 75 78 79 72 77 69 63 47 46 50 50 45 42 38 42 44 38 35 41 49 50 48
15 20 21 23 28 24 18 15 17 18 18 18 17 14 14 14 15 18 20 25 29 37 41 44 65 76 73 63 56 53 56 58 56 51 48 47 45 39 37 42 46 46 46 40
19 25 30 30 20 15 16 17 18 17 16 18 18 18 17 16 16 16 17 18 20 21 23 28 34 45 64 57 56 61 66 59 52 51 54 53 45 40 34 32 31 30 33 44
27 29 31 28 21 17 18 15 13 13 13 14 15 16 17 19 20 19 18 19 20 20 23 28 33 46 54 65 68 70 63 61 64 66 57 47 39 31 26 31 33 44 52 44
30 30 30 27 22 21 20 15 14 15 16 16 16 16 16 17 19 21 22 22 22 24 26 30 35 42 53 58 61 66 73 70 62 53 44 40 36 28 23 34 50 53 49 30
28 30 32 26 25 24 19 17 17 16 17 17 18 16 15 16 17 20 23 25 27 29 32 37 46 57 59 66 77 77 71 62 52 45 41 34 25 24 32 48 57 54 33 21
28 27 26 26 25 23 20 18 18 19 19 19 18 17 17 18 18 20 24 27 31 33 34 37 47 63 76 87 86 78 64 52 47 43 32 29 28 39 52 60 55 28 20 12
28 28 26 22 20 20 21 21 21 21 21 21 20 17 19 20 30 35 32 31 32 35 36 39 50 74 89 87 76 68 60 53 41 36 34 34 43 55 66 59 34 22 12 10
31 26 23 19 19 19 19 21 21 22 21 22 21 19 20 23 34 41 38 33 34 36 38 39 58 78 82 74 72 66 56 45 40 39 41 46 51 65 60 38 23 12 12 16
34 34 27 19 18 17 18 20 22 22 21 21 21 20 20 31 44 42 38 34 35 40 41 49 73 76 76 72 66 58 53 50 50 49 51 55 60 62 43 24 14 12 13 18
30 31 30 25 19 17 17 21 23 23 22 22 23 23 21 24 35 42 39 35 39 45 45 47 64 79 76 70 65 64 59 56 56 59 65 64 63 45 27 16 13 13 16 22
22 28 31 28 26 21 21 23 24 24 21 22 24 23 22 24 41 46 42 41 45 50 42 56 82 80 75 69 65 65 59 58 64 66 69 63 46 30 19 13 14 13 19 29
26 23 25 29 25 19 24 24 25 23 23 23 25 24 22 37 55 53 46 46 51 46 51 75 78 77 72 78 77 63 64 70 69 70 60 44 29 21 14 14 12 15 21 38
31 27 24 24 24 18 23 22 24 24 24 25 26 24 26 53 57 51 49 47 49 54 76 78 81 86 94 81 66 72 70 72 72 57 40 29 22 16 15 15 11 20 26 50
34 50 44 37 30 27 26 24 23 23 24 27 26 26 43 52 51 49 42 38 48 74 84 92 98 99 86 76 80 76 77 76 56 37 29 23 17 16 17 13 13 27 30 48
36 50 43 41 40 36 30 29 27 27 30 29 27 33 43 47 44 37 34 47 80 78 84 93 92 83 85 90 87 79 77 57 37 30 24 18 17 19 19 14 22 36 38 47
34 46 48 36 42 38 35 35 37 32 28 28 36 43 44 41 39 37 46 83 86 88 93 91 90 92 94 91 85 77 55 37 30 25 19 17 18 21 20 22 34 43 44 63
38 59 54 44 44 34 33 35 34 37 41 41 43 44 45 50 54 62 84 99 98 93 93 96 100 100 96 90 73 54 37 30 24 18 18 19 22 26 25 33 38 47 76 90

GFSCGP_500_rhum_021.txt.gz
RH
96 95 96 100 94 70 63 62 46 16 16 18 22 29 54 76 77 44 43 32 25 23 22 38 50 46 47 57 67 70 83 93 75 70 51 61 59 66 62 51 51 66 82 87
100 98 94 91 78 64 41 53 47 34 24 23 32 36 35 30 27 25 26 24 20 20 24 22 27 53 81 78 81 85 79 56 34 30 42 67 74 64 58 61 73 75 70 60
87 89 85 80 75 67 38 83 94 75 65 41 40 32 30 25 21 18 18 18 20 22 22 25 33 54 75 77 83 82 70 47 50 64 81 82 61 59 66 66 64 58 52 53
64 69 78 94 80 76 46 69 84 83 86 88 51 34 35 24 18 17 20 22 23 24 27 46 66 79 89 99 84 50 38 43 82 95 91 71 48 57 58 65 55 55 60 62
71 57 91 77 72 75 80 87 63 46 48 38 30 28 21 17 19 23 23 22 24 32 48 55 46 37 45 46 38 49 46 49 92 50 39 57 66 64 59 59 65 72 66 57
81 52 56 58 53 62 76 52 60 52 36 20 16 20 14 19 22 19 21 28 31 38 48 38 32 25 25 26 32 42 31 29 29 48 70 93 80 62 55 57 58 53 50 46
34 42 56 58 66 53 42 29 23 19 16 19 21 17 16 19 22 24 22 21 23 23 23 23 22 20 18 19 20 20 22 24 29 36 53 68 51 49 49 50 53 55 45 40
39 45 41 38 42 40 24 18 19 21 18 18 20 17 16 14 14 13 13 14 15 16 17 16 17 17 18 19 20 21 24 27 31 37 39 39 45 54 57 57 48 46 44 40
30 27 28 28 28 23 21 17 16 19 24 18 15 15 14 14 14 15 15 16 18 20 21 22 22 21 20 20 20 21 22 24 25 25 47 86 87 60 58 55 53 51 48 42
16 14 15 15 14 13 15 21 25 21 16 17 18 18 18 17 17 17 18 17 18 22 25 24 26 27 27 25 24 23 23 25 26 31 39 43 54 63 66 66 62 53 46 41
11 12 14 13 17 22 25 30 19 18 17 15 15 15 16 16 15 14 14 16 21 28 29 32 35 35 32 30 29 27 28 30 31 31 35 53 66 74 68 59 50 48 45 41
13 15 16 21 25 30 29 19 18 18 15 14 16 16 16 15 15 14 15 18 20 25 28 32 34 35 35 36 34 33 32 35 39 39 51 64 72 68 61 58 59 55 48 48
17 22 26 24 27 27 18 18 18 17 16 16 16 16 17 16 17 17 16 16 17 18 19 20 25 32 38 40 39 38 39 45 46 51 57 69 69 65 64 72 65 57 49 40
23 27 27 30 31 26 20 19 19 20 19 19 18 17 19 18 19 20 20 20 20 20 19 20 24 36 44 43 41 40 47 52 59 53 67 74 72 72 80 70 65 51 42 47
22 27 30 30 30 26 21 22 24 24 24 22 21 20 22 20 21 20 21 21 21 22 22 22 26 40 50 48 44 44 54 65 61 67 80 80 79 84 77 70 50 45 50 47
20 27 30 29 28 27 25 24 24 25 23 21 21 20 22 21 20 21 22 23 22 22 24 24 26 36 56 57 50 51 64 70 66 83 88 90 94 86 69 52 50 54 52 38
20 24 28 26 25 23 18 22 24 23 21 20 19 20 19 19 21 23 24 24 24 24 26 27 27 35 57 65 56 59 69 69 84 96 99 100 88 72 58 60 57 53 41 21
20 23 22 22 26 18 18 22 25 26 26 25 23 23 23 27 28 27 26 25 25 26 28 31 33 35 53 64 60 58 62 76 100 100 98 86 78 68 65 61 57 49 23 8
14 15 16 15 16 13 16 18 20 21 21 27 30 29 28 26 25 26 24 26 27 29 32 37 39 38 56 63 56 54 64 91 100 99 96 80 73 86 75 60 56 30 8 9
23 24 22 20 18 13 16 22 23 23 19 27 25 25 25 24 25 27 29 30 30 34 42 44 42 61 65 59 56 67 87 100 100 100 96 97 100 89 77 57 48 12 9 12
8 8 8 11 11 9 23 27 28 27 29 28 31 37 41 44 41 37 35 37 41 50 46 50 67 63 64 75 90 98 100 100 100 100 100 100 97 87 63 50 19 10 12 15
8 8 10 12 11 12 15 15 16 17 22 26 34 39 42 43 43 44 45 49 51 53 66 61 58 72 89 99 100 100 100 100 100 97 100 99 88 70 54 31 10 12 16 18
9 10 9 9 10 13 13 16 20 24 29 39 38 43 45 47 49 47 47 46 58 64 53 62 80 75 86 99 94 99 100 100 100 100 100 87 71 60 39 14 11 14 20 20
7 9 10 8 23 20 16 16 18 20 28 39 46 47 45 42 44 46 54 62 61 49 44 70 83 81 98 94 96 100 100 100 100 100 93 69 66 48 25 10 12 18 23 28
8 12 14 14 20 18 22 26 27 33 35 38 43 50 58 56 58 62 58 51 45 48 90 91 96 100 96 98 100 100 100 100 100 98 84 67 54 38 9 13 15 23 28 39
27 27 22 22 29 30 34 37 39 47 60 67 65 63 64 64 52 49 68 82 85 87 88 98 100 100 100 100 100 100 100 100 94 94 75 58 41 10 12 15 19 27 36 44

GFSCGP_500_rhum_024.txt.gz
RH
92 98 98 98 96 95 92 93 70 42 38 25 27 84 88 84 78 79 61 44 35 26 23 22 29 46 37 39 48 63 84 93 96 80 63 45 73 87 84 81 71 59 66 64
98 98 96 97 93 80 69 79 98 73 51 33 34 48 59 77 72 60 33 31 29 25 22 20 23 26 33 43 46 61 62 69 66 57 41 57 95 88 63 52 48 53 57 59
96 96 100 100 94 86 75 66 92 96 51 52 46 44 36 32 27 25 22 22 23 22 21 23 29 37 48 49 60 79 81 79 48 27 26 29 53 38 39 53 67 66 62 63
98 100 98 91 96 81 77 68 82 95 89 100 78 91 35 27 25 25 23 21 22 27 28 32 43 56 49 41 65 58 36 22 18 19 21 24 24 24 29 60 90 75 68 63
93 91 100 100 92 85 71 54 54 40 84 80 52 39 68 28 22 22 22 25 28 28 38 53 56 35 22 18 17 16 16 17 18 20 20 21 22 27 35 54 64 67 58 62
99 93 78 66 76 75 68 66 96 88 82 66 42 32 67 17 22 21 21 20 22 35 40 34 21 17 15 17 17 18 18 19 19 19 19 20 21 26 29 42 60 78 91 61
84 67 77 61 64 66 54 83 56 37 34 30 19 20 17 18 18 16 18 22 22 21 18 16 16 17 18 20 21 20 20 20 19 18 19 20 22 26 28 35 52 66 66 69
60 66 45 69 66 58 67 76 49 29 19 22 19 18 21 20 17 14 14 14 14 15 16 18 20 21 25 27 28 26 25 24 23 23 23 25 28 29 30 34 43 57 65 65
39 38 44 46 39 40 35 33 25 25 18 18 22 18 14 14 14 14 15 17 18 18 21 23 23 29 31 31 32 31 31 30 30 30 31 33 34 36 35 33 48 63 66 57
31 30 30 28 28 24 25 23 20 16 20 18 18 15 17 16 16 16 17 16 15 16 23 25 26 28 29 27 31 34 36 36 36 36 37 40 42 43 42 45 61 68 68 63
18 18 16 14 15 14 14 15 21 25 18 17 18 17 15 16 16 15 14 14 16 18 20 20 20 20 23 24 27 33 40 42 42 42 42 42 45 47 52 58 70 72 69 66
9 9 10 13 13 14 19 23 29 18 19 16 14 15 17 17 17 17 17 17 17 17 17 18 18 18 20 21 23 29 40 45 47 47 42 46 51 62 62 68 74 78 79 76
9 10 12 13 14 22 25 29 20 18 19 14 15 17 17 17 18 18 19 19 20 20 20 21 21 21 22 22 22 24 34 46 54 55 51 50 57 70 65 79 85 84 74 60
13 15 20 24 22 25 29 20 16 17 18 17 17 20 21 19 18 19 21 21 21 22 22 22 22 22 22 23 24 26 28 42 63 64 56 54 62 70 73 91 89 80 66 71
14 19 25 26 26 29 29 20 17 17 18 20 24 23 24 21 19 20 20 20 19 20 22 24 24 24 24 24 27 30 32 40 57 60 59 58 66 65 94 98 98 82 80 86
19 23 24 27 28 27 28 25 22 22 24 24 25 22 21 20 20 19 19 18 20 25 27 26 25 26 26 28 32 37 41 46 64 63 58 56 65 95 100 100 94 84 86 71
21 20 22 25 27 24 20 24 26 25 25 26 25 26 23 23 22 23 24 25 27 28 27 27 28 30 30 33 39 48 52 68 62 61 66 90 94 100 100 98 75 83 88 51
18 18 18 22 24 19 23 26 28 25 27 28 28 30 27 26 23 23 24 24 28 29 30 31 33 34 37 46 52 61 71 58 71 93 99 94 98 100 100 97 97 100 83 55
19 19 17 15 17 14 17 16 18 19 21 23 22 22 20 22 25 31 33 38 42 43 42 39 41 45 52 52 63 64 60 83 91 96 95 99 100 100 100 99 100 100 89 57
22 23 21 19 13 8 12 13 14 12 12 15 17 22 28 32 37 41 43 45 46 46 47 50 52 53 52 62 61 64 73 85 96 96 100 100 100 100 100 100 100 94 81 39
7 7 6 7 7 6 8 8 8 10 12 9 10 14 16 25 30 36 40 46 52 54 52 54 58 65 67 57 55 79 93 96 94 100 100 100 100 100 100 100 90 73 44 20
9 9 9 9 9 10 10 8 8 8 7 9 14 16 19 23 30 41 46 49 46 49 58 68 70 61 50 55 75 86 100 99 100 100 100 100 100 100 100 98 91 54 24 18
10 10 9 9 8 9 7 6 7 7 9 13 16 21 27 35 39 41 44 56 60 62 61 47 65 74 81 82 94 99 100 100 100 100 100 100 100 100 100 91 68 41 26 13
10 10 9 8 9 8 7 8 11 16 20 25 29 34 38 47 62 72 71 64 52 46 42 71 87 84 88 92 100 100 100 100 100 100 100 100 100 100 96 89 67 31 13 13
8 8 7 7 10 12 19 22 26 32 39 41 42 49 61 64 63 56 49 56 67 72 75 85 90 94 100 100 100 100 100 100 100 100 100 100 99 96 89 70 37 12 12 17
9 8 8 13 20 25 35 42 43 41 41 46 49 51 53 51 45 55 75 73 74 80 88 99 96 85 100 100 100 100 100 100 100 100 100 100 97 89 73 42 14 11 16 19

GFSCGP_500_rhum_027.txt.gz
RH
90 98 95 100 99 100 97 100 78 69 55 73 79 55 26 53 55 85 84 64 50 43 36 27 26 30 37 34 29 31 29 45 58 62 64 62 29 16 20 21 23 35 45 60
95 91 100 95 96 91 97 92 94 54 37 35 19 56 89 98 99 90 73 45 39 38 43 40 29 24 24 28 36 33 27 35 58 57 33 17 16 18 20 24 28 31 32 44
91 99 98 96 95 98 98 96 99 94 50 39 76 100 41 37 44 37 33 36 36 36 38 33 27 31 35 34 38 41 42 63 37 17 16 17 17 18 19 20 19 20 25 35
94 98 94 98 100 100 100 68 80 83 49 79 55 88 98 48 26 30 42 35 29 29 27 30 30 32 35 29 26 19 33 18 16 17 18 18 18 18 18 18 18 17 21 26
97 100 100 99 95 72 97 74 66 75 50 98 92 70 90 94 72 38 34 25 21 26 28 26 29 34 27 17 17 16 17 18 19 20 20 20 22 26 27 25 25 23 24 27
98 95 82 83 64 66 77 69 48 51 87 82 71 98 88 83 68 37 28 21 22 24 22 23 28 18 15 16 18 22 23 23 23 24 24 25 28 30 31 31 32 32 34 34
86 88 76 84 65 64 64 73 94 91 99 78 86 65 75 85 54 31 18 17 16 16 20 18 15 15 17 22 25 27 26 25 25 27 29 31 32 33 34 36 37 40 43 45
92 55 48 57 69 98 60 100 99 93 89 79 76 30 62 27 19 16 16 16 15 14 14 15 18 19 21 26 24 20 19 22 25 31 34 35 37 38 40 40 42 45 48 50
100 99 58 40 64 69 64 55 54 62 37 21 20 56 28 16 14 14 14 14 16 17 16 20 22 22 22 20 18 18 18 19 24 28 37 41 42 42 43 50 46 48 50 54
80 99 44 37 48 40 35 29 30 28 24 19 74 67 80 18 16 16 15 16 16 14 14 16 18 17 17 17 17 18 19 20 24 27 35 41 45 49 92 57 52 52 54 56
37 37 45 29 27 48 26 24 22 21 30 26 22 59 41 17 15 15 15 14 14 15 15 16 17 18 19 19 20 20 21 22 26 26 26 27 35 52 62 60 56 51 51 53
21 21 19 19 13 14 13 12 14 16 26 21 18 25 17 14 15 16 16 17 17 18 18 19 20 21 21 21 22 23 23 24 25 27 28 30 35 46 53 59 55 50 53 73
10 10 10 8 9 10 12 16 23 27 24 18 17 22 13 15 16 17 17 18 19 20 20 20 20 20 21 23 24 26 25 26 27 30 33 38 42 47 61 59 54 65 81 84
11 11 10 12 96 45 15 22 29 28 16 18 17 17 17 17 18 19 20 21 20 20 20 20 19 21 27 30 30 28 28 30 31 35 42 50 51 67 61 67 86 89 85 86
7 8 12 16 21 24 18 25 28 18 16 15 18 20 24 27 24 22 20 19 20 20 22 27 30 32 33 32 30 30 32 34 36 45 54 61 71 64 80 95 91 84 90 93
8 12 16 21 26 25 24 26 28 24 22 22 24 24 28 25 24 22 24 25 27 29 30 34 35 34 33 32 34 36 37 40 53 57 63 64 66 88 90 88 90 98 98 91
12 16 24 23 27 26 23 27 29 30 30 31 29 29 28 22 22 24 29 27 28 30 32 35 38 43 46 46 44 45 50 55 60 65 59 78 91 95 95 93 98 98 92 96
17 20 24 21 24 22 23 28 30 29 30 31 26 26 26 23 20 22 23 24 30 36 44 51 54 53 51 52 53 55 58 62 68 61 64 88 92 94 98 100 100 100 100 100
21 22 24 21 21 20 20 16 19 18 20 14 14 16 18 14 16 25 17 30 37 39 44 49 52 58 59 56 52 60 70 60 60 67 84 82 96 100 100 100 100 100 100 100
27 24 22 22 20 15 11 11 8 7 9 6 8 10 11 13 14 22 15 20 27 32 38 49 54 52 52 62 64 59 60 85 92 93 100 95 100 93 100 100 100 100 100 100
8 7 7 7 7 6 7 7 7 7 7 8 8 8 8 9 13 14 17 18 26 33 37 47 58 65 61 51 51 69 91 92 88 77 78 91 100 100 100 100 100 100 100 98
10 9 9 9 8 8 8 7 7 7 6 6 6 8 9 13 16 20 26 30 36 53 56 64 54 52 57 63 74 88 100 89 72 88 96 100 100 100 100 100 100 100 98 97
10 10 10 11 11 9 8 7 6 5 6 7 10 15 19 27 34 39 41 56 62 65 44 39 58 71 71 70 78 87 92 92 100 100 100 100 100 100 100 100 100 100 95 77
11 11 11 10 9 8 7 7 5 6 9 15 22 32 41 43 44 50 49 48 45 39 47 72 71 72 80 92 96 100 98 100 100 100 100 100 100 100 100 100 99 97 87 33
11 11 10 9 9 8 9 6 8 17 23 33 41 39 35 43 45 40 35 44 59 70 64 74 79 80 83 89 85 84 81 100 100 100 100 100 100 100 100 99 82 53 22 16
12 10 9 8 7 9 12 15 24 33 38 35 33 34 29 30 29 35 69 70 68 68 73 74 78 84 88 86 100 100 100 100 100 100 100 100 100 100 92 70 52 30 18 19

GFSCGP_500_rhum_030.txt.gz
RH
79 70 74 77 96 97 86 98 99 91 64 86 96 97 50 14 35 34 46 44 26 23 26 27 27 27 20 16 13 13 21 24 27 38 54 51 21 15 17 17 18 20 21 22
99 92 98 95 99 96 99 96 99 72 26 63 95 94 24 12 31 43 44 29 23 23 27 28 24 19 13 14 12 20 30 35 31 48 27 16 16 16 17 19 23 26 27 27
98 80 96 79 96 80 99 99 93 90 48 20 86 42 47 23 30 37 30 25 22 20 22 19 17 18 20 22 19 21 29 20 32 30 17 18 18 20 21 22 26 28 29 31
82 94 89 93 94 95 88 76 98 96 94 27 61 99 96 82 37 24 27 23 22 20 18 20 19 26 23 25 23 23 16 19 21 19 20 19 19 19 19 22 28 30 34 38
90 95 96 86 97 99 95 80 75 87 92 81 97 93 86 92 85 66 74 54 35 26 18 16 16 25 22 21 20 16 17 21 23 22 21 20 17 17 21 25 30 34 37 43
94 99 70 94 96 73 71 54 32 58 95 89 95 97 93 99 98 97 91 76 36 26 18 15 13 16 17 15 15 19 24 24 22 21 20 20 22 22 26 30 35 41 43 46
64 89 80 64 54 42 41 61 79 95 98 69 95 83 99 92 92 59 17 23 24 13 14 16 16 13 14 16 19 23 21 19 18 18 19 20 20 24 26 32 36 43 47 59
98 97 81 54 44 78 48 58 75 98 85 96 93 83 72 53 40 58 21 17 15 14 13 13 14 18 20 21 22 21 18 17 17 18 20 22 23 25 25 28 29 30 33 95
87 93 96 43 37 48 91 54 78 95 43 31 33 35 32 46 27 15 14 14 14 15 17 16 14 15 17 18 17 17 17 18 19 20 21 22 24 25 27 28 30 31 84 70
79 94 88 54 38 34 35 36 28 29 22 16 73 85 95 80 57 17 16 15 15 16 14 14 14 16 17 17 18 20 20 20 22 23 24 25 26 27 29 30 32 100 55 54
71 96 98 29 31 36 31 29 22 24 28 17 29 91 88 61 33 17 15 14 14 14 15 16 16 16 18 19 20 21 20 19 25 28 29 28 30 30 31 32 38 52 59 67
26 29 30 23 24 22 25 25 17 14 13 12 19 31 56 46 22 14 14 16 14 15 15 16 18 18 19 19 19 21 28 31 33 32 31 32 33 33 34 45 52 93 74 76
18 18 16 27 30 9 9 11 13 13 12 16 22 20 19 16 16 14 15 15 18 19 20 20 18 18 20 24 29 30 34 36 33 34 35 35 37 47 60 61 63 71 80 90
12 12 12 11 43 94 71 22 12 15 14 26 21 19 25 18 14 14 14 20 23 21 20 23 24 22 24 28 32 32 34 39 42 42 43 48 63 72 71 71 70 88 95 93
12 12 14 12 33 76 63 38 19 20 22 26 20 19 20 41 36 21 19 17 19 26 31 30 38 34 40 34 43 48 49 51 51 50 54 62 70 75 80 69 69 96 92 88
9 11 8 8 12 14 21 18 18 21 26 24 18 18 22 25 20 23 23 25 30 30 35 35 37 52 50 51 51 46 47 50 58 59 61 67 79 72 67 75 88 88 92 94
20 9 8 11 14 18 21 28 26 26 30 31 29 30 31 32 31 16 28 30 24 25 31 39 41 47 50 44 59 65 53 53 55 62 74 72 65 76 84 72 82 100 99 100
18 12 11 14 21 22 26 27 30 29 31 32 31 26 24 25 25 26 16 12 17 20 17 22 28 32 40 51 61 61 54 61 62 59 52 59 78 87 89 95 99 92 82 96
23 17 16 18 25 23 21 21 26 27 31 23 19 20 21 14 17 14 9 11 11 11 15 19 24 33 39 52 50 69 71 62 56 59 68 76 74 83 75 73 80 93 100 100
24 20 20 25 26 22 20 20 21 18 16 7 11 9 9 9 9 9 9 9 12 17 21 30 38 46 63 68 75 60 60 75 77 80 77 76 87 92 98 100 100 100 100 100
30 27 25 25 18 10 8 7 8 8 8 8 8 7 6 6 8 8 10 17 26 31 39 43 48 59 52 43 41 62 72 73 79 82 86 94 100 100 100 100 100 100 100 100
9 9 9 9 9 8 8 8 9 9 8 8 6 6 6 7 13 18 24 35 41 45 34 36 40 41 46 64 64 67 79 85 93 97 100 95 95 100 100 100 100 100 100 100
11 10 10 10 11 10 9 9 8 7 6 7 6 6 7 12 22 34 40 36 32 44 38 33 45 71 71 75 79 86 89 99 95 93 85 100 100 100 100 100 100 100 100 97
12 10 11 10 12 10 8 8 7 6 7 6 7 10 15 30 38 35 32 29 27 28 31 59 72 72 72 76 82 83 81 78 81 91 100 100 100 100 100 100 100 99 86 54
13 11 12 11 12 12 11 7 7 7 6 8 15 22 36 36 32 27 25 38 50 52 58 64 68 71 75 77 77 79 73 69 78 100 100 100 100 100 100 100 84 40 17 14
11 13 13 14 12 15 10 8 8 7 8 20 34 34 34 28 24 35 54 59 64 68 71 73 76 79 81 81 74 58 51 59 79 100 100 100 100 100 95 55 17 14 13 16

GFSCGP_500_rhum_033.txt.gz
RH
70 49 49 54 68 84 98 98 99 87 100 76 84 76 48 48 10 11 10 11 21 20 30 18 10 9 15 18 13 13 23 18 44 22 40 49 16 18 19 20 22 22 24 24
85 60 69 58 85 78 91 91 94 84 73 78 94 58 54 38 17 23 21 24 24 30 22 18 10 11 13 13 13 12 23 23 16 23 45 19 19 20 21 20 23 24 24 26
99 76 73 97 97 86 95 95 86 100 74 41 98 90 88 30 24 20 20 17 16 23 20 17 17 13 12 12 28 34 91 22 23 20 21 20 21 21 20 23 24 22 22 24
100 96 95 96 85 98 59 90 90 64 87 23 59 82 70 58 61 69 39 25 17 11 18 25 18 15 12 24 33 43 20 16 20 22 23 20 19 20 20 20 20 20 21 23
78 86 74 66 75 72 100 96 92 85 96 90 37 58 60 94 94 98 69 56 33 9 15 26 32 17 16 18 25 38 16 20 23 21 18 18 18 17 18 18 20 21 22 22
94 90 87 88 88 95 78 80 73 69 66 80 60 86 93 90 93 81 86 50 40 17 21 43 22 20 20 22 14 16 19 23 21 18 16 16 17 18 19 20 21 21 22 22
72 95 95 76 93 69 50 55 32 27 54 57 98 84 99 91 74 42 31 43 30 16 19 24 15 15 25 16 19 19 20 20 17 16 18 18 20 20 21 21 23 25 25 26
55 96 98 79 78 90 41 72 90 75 88 62 96 74 75 85 62 25 17 20 14 14 14 14 15 17 17 17 17 16 16 16 18 20 20 20 20 20 24 27 29 29 31 31
44 78 100 90 75 61 66 77 57 65 86 47 67 47 50 26 38 75 28 16 15 16 17 18 16 14 14 15 16 16 16 18 20 21 20 21 24 31 32 32 31 32 35 38
85 65 85 97 65 54 55 100 78 51 31 16 21 47 74 68 100 75 27 17 16 16 15 14 13 14 15 16 18 18 18 18 19 24 32 35 36 36 34 34 38 43 47 71
95 66 91 90 79 36 45 48 49 32 24 18 19 80 92 97 90 66 33 17 15 14 15 14 14 15 16 19 20 20 19 19 26 32 38 40 38 39 48 46 47 56 64 100
70 50 59 68 25 35 33 29 50 27 28 17 11 20 76 98 70 68 42 16 12 12 14 15 16 18 20 20 24 29 29 29 29 36 45 49 54 61 59 58 56 65 72 93
26 21 25 40 35 41 25 18 13 11 9 10 12 22 25 29 41 32 17 14 13 14 16 17 17 16 16 17 26 48 66 70 69 65 56 54 54 52 56 55 53 60 72 62
22 21 22 21 15 13 18 42 34 12 10 12 20 27 31 22 21 18 16 15 14 16 20 17 13 11 14 16 24 35 56 79 87 81 78 60 50 51 52 53 65 69 63 78
11 10 11 12 12 12 21 77 33 31 15 13 31 28 28 27 23 19 15 14 16 25 31 29 20 28 47 57 59 80 91 94 82 91 89 64 46 59 59 59 62 66 78 70
8 9 10 8 10 11 9 33 16 18 27 26 29 31 25 20 18 17 18 23 32 34 30 32 32 24 50 51 75 80 74 77 96 79 77 73 65 61 59 70 80 84 85 93
16 22 18 12 11 8 9 16 23 32 35 38 35 32 31 26 23 22 28 21 16 23 28 27 28 27 15 15 24 55 78 93 83 98 84 56 68 76 78 81 87 74 76 93
22 28 27 18 9 10 14 18 26 34 34 32 29 26 25 28 28 25 18 16 14 11 10 11 14 18 25 30 49 63 84 90 95 78 54 74 84 86 90 94 86 91 96 100
38 49 26 18 11 13 19 23 28 30 29 28 27 26 23 22 16 11 10 9 8 7 7 10 16 30 42 44 50 67 82 70 62 58 88 87 88 87 86 86 81 100 100 100
24 23 24 18 16 16 23 23 21 24 20 18 19 14 11 11 11 10 8 6 6 6 12 27 42 43 46 50 52 53 61 67 78 80 82 82 82 86 99 100 100 100 100 100
28 22 21 20 17 18 18 20 22 18 10 9 9 9 9 8 8 6 6 5 6 18 37 40 38 37 36 37 37 56 73 70 68 73 84 87 86 88 89 100 100 100 100 100
19 24 25 24 20 14 10 8 8 9 9 9 9 8 6 6 7 8 9 13 27 36 36 36 30 28 34 41 57 71 79 83 83 83 82 81 77 68 74 93 100 100 100 100
9 9 9 10 10 10 9 8 8 8 9 9 7 7 7 6 6 10 23 34 34 31 30 27 44 56 58 65 78 81 84 83 83 75 67 44 29 19 28 73 100 100 100 96
10 11 12 12 11 10 9 8 8 9 11 9 8 8 7 7 11 26 35 33 32 31 26 34 58 69 78 87 88 85 82 72 55 21 5 4 6 10 26 93 99 72 36 23
13 12 13 14 12 11 10 9 9 10 10 9 9 9 9 14 24 32 35 35 33 34 35 46 65 78 83 81 78 76 60 17 4 4 4 5 6 12 30 44 33 33 34 34
16 14 15 14 14 13 13 14 15 16 14 10 10 11 16 27 31 36 40 41 42 37 51 74 83 82 76 76 74 34 5 4 4 5 5 6 9 20 31 38 45 43 38 35

GFSCGP_500_rhum_036.txt.gz
RH
69 45 49 55 58 69 66 77 83 94 100 99 96 70 50 26 17 15 18 15 29 29 16 21 30 30 24 15 12 13 18 32 28 18 31 44 18 19 20 20 18 18 19 21
76 62 49 54 85 85 72 92 80 89 84 45 72 98 82 21 10 20 29 20 18 33 16 17 21 20 20 20 23 43 53 73 20 20 23 22 20 20 21 19 18 19 20 23
67 58 62 60 94 99 94 81 76 75 91 69 77 71 90 15 28 21 19 29 23 25 22 15 18 17 15 16 30 44 63 48 19 20 22 21 20 23 21 20 20 21 21 22
64 72 91 82 91 86 81 64 61 61 100 59 53 59 51 34 22 42 61 46 14 23 36 29 27 35 18 30 32 53 54 44 21 22 24 21 23 21 19 20 20 21 22 23
58 62 72 78 80 77 82 84 83 66 83 34 66 88 76 80 44 62 84 73 40 28 21 22 54 46 45 39 43 34 38 37 22 24 25 22 20 18 20 21 21 20 20 24
67 81 84 97 93 84 77 97 79 87 100 91 84 38 39 82 98 74 88 46 36 33 52 20 30 39 38 22 73 58 45 32 23 24 20 18 20 21 21 20 19 20 25 29
65 94 92 91 94 92 94 82 89 92 74 61 66 52 51 94 59 44 52 64 34 15 17 32 19 15 16 22 54 42 31 20 18 18 20 21 21 20 19 19 22 25 29 31
85 79 88 74 72 83 71 52 60 53 41 47 79 71 89 79 86 63 34 19 17 15 15 16 22 17 16 30 28 28 26 18 18 20 20 19 18 17 17 19 22 27 32 41
80 58 96 78 56 66 73 52 59 64 46 62 80 75 64 57 41 27 42 18 17 17 17 20 17 15 14 39 18 17 18 18 19 20 20 20 19 17 21 27 32 37 46 53
85 94 94 98 94 72 51 61 88 79 61 63 44 30 34 30 35 76 64 26 18 16 16 16 16 16 17 17 17 18 19 20 22 25 29 39 51 52 53 52 53 59 58 56
66 96 83 79 75 96 74 41 69 84 68 38 23 35 34 63 84 79 61 55 32 15 15 17 18 18 19 20 20 19 19 21 30 50 66 78 84 85 85 75 64 59 58 54
72 72 64 73 71 74 54 44 47 50 55 41 20 20 31 54 49 50 39 37 19 17 15 16 16 18 20 21 21 19 26 43 51 59 80 93 98 100 89 84 86 60 56 64
61 77 75 61 80 38 35 29 28 29 39 25 17 13 28 28 34 31 21 14 14 15 14 16 17 14 13 15 33 49 52 52 68 80 100 99 94 88 83 88 80 64 59 54
57 39 23 28 38 40 25 41 50 33 15 10 10 16 33 32 28 23 18 13 13 14 14 12 9 7 8 7 10 42 52 62 85 89 89 85 83 94 82 83 76 71 67 69
68 26 21 21 23 16 13 10 18 44 45 30 22 16 32 36 24 22 18 13 14 17 16 20 22 10 7 8 19 12 44 35 83 100 100 100 100 94 93 83 98 72 76 72
20 18 15 11 11 11 12 11 11 11 42 22 29 29 35 35 26 20 16 17 26 25 16 10 10 10 10 9 47 13 40 48 93 88 88 96 93 85 94 68 72 77 85 89
15 14 11 9 8 10 10 9 8 15 20 24 25 25 30 37 30 27 32 35 34 29 26 25 20 14 10 10 12 21 41 63 95 89 87 97 94 73 66 79 84 90 91 95
20 20 20 19 24 22 17 14 10 13 19 30 33 35 37 37 38 38 34 27 20 15 12 11 11 11 12 16 27 38 54 93 90 78 76 76 79 84 90 92 86 82 87 91
24 85 46 32 30 26 21 12 12 22 30 31 34 37 36 34 31 25 17 11 10 10 10 10 11 12 18 31 35 34 38 52 61 58 69 92 93 89 84 91 100 88 76 64
14 43 40 38 40 31 21 13 19 29 28 29 28 28 28 22 16 12 10 10 9 8 8 8 12 22 30 32 33 29 32 41 52 90 96 88 82 90 94 78 50 22 7 7
10 22 31 28 22 20 19 19 18 24 26 28 28 24 19 14 12 10 8 7 7 7 7 12 22 25 29 32 29 38 54 62 69 89 91 84 84 74 44 10 4 4 5 6
10 17 26 29 25 20 23 23 22 26 20 13 14 13 11 10 8 8 7 7 7 7 12 20 26 33 33 34 36 43 62 79 84 81 83 80 58 17 4 4 4 5 6 8
9 11 13 16 17 16 14 12 11 12 14 13 11 10 9 9 8 9 9 9 9 13 20 28 35 38 42 43 40 51 71 83 84 81 72 43 7 4 4 4 5 7 9 14
11 11 11 12 11 10 10 11 11 13 13 12 11 10 10 11 12 11 11 12 16 22 30 38 46 50 46 42 60 84 86 82 78 63 26 6 4 4 5 6 7 9 14 26
12 14 14 12 13 14 14 13 12 12 12 12 12 11 13 15 15 14 14 17 23 32 42 51 52 49 60 82 90 88 85 80 51 18 6 5 5 5 7 8 10 12 22 37
15 18 20 18 17 17 16 14 12 11 10 10 10 14 16 17 17 16 17 22 33 45 52 54 59 77 94 94 90 87 79 44 15 6 5 5 7 8 9 11 13 22 38 56

GFSCGP_500_rhum_042.txt.gz
RH
61 39 46 63 64 67 96 97 68 77 74 71 55 54 49 60 44 38 34 31 26 27 26 25 22 19 17 20 18 22 31 29 25 26 15 37 36 18 16 16 18 17 17 15
53 44 35 51 59 66 76 70 89 80 53 51 71 70 61 50 29 26 27 29 42 34 32 32 22 17 16 15 25 52 58 65 59 20 36 28 19 18 18 19 18 15 15 16
46 45 42 47 52 68 55 75 94 97 89 96 93 79 78 46 32 25 36 33 37 42 33 31 28 24 19 16 21 32 52 68 57 22 22 19 18 18 18 19 16 15 15 17
50 53 43 53 64 61 68 61 77 81 69 78 84 73 74 71 28 23 31 48 71 36 35 33 29 30 28 31 39 36 44 57 70 43 24 22 21 19 20 20 16 18 26 27
43 50 37 53 70 72 75 74 70 72 66 54 44 39 62 60 44 28 33 74 74 81 42 55 63 47 65 67 66 67 56 59 85 60 40 33 22 30 54 71 53 43 58 64
48 41 46 49 63 59 57 67 73 78 67 54 55 45 41 28 55 71 49 33 75 74 46 46 46 90 100 100 100 78 97 88 94 85 40 49 36 47 51 73 74 78 82 60
39 31 44 50 54 52 48 64 69 75 79 65 76 50 59 70 46 63 60 64 49 29 39 42 52 85 71 84 91 70 100 84 61 52 35 45 36 34 37 73 80 88 88 85
25 35 35 53 54 60 67 62 65 66 67 58 62 49 52 56 48 52 58 38 29 21 24 19 43 50 62 83 85 79 96 62 38 27 28 34 34 22 41 85 89 99 100 96
30 40 51 58 66 73 77 74 77 70 64 56 49 43 36 51 65 71 58 56 27 16 16 17 20 28 38 51 62 92 32 21 21 20 22 22 33 44 70 85 99 100 98 100
37 44 71 68 60 74 75 78 72 71 64 51 45 44 41 50 66 64 60 66 25 15 16 16 16 16 18 22 26 20 21 22 20 20 23 20 37 53 78 88 94 94 100 100
36 40 61 84 68 76 84 83 76 73 64 63 50 44 58 51 45 36 40 38 41 54 19 20 17 15 16 17 17 17 20 22 38 28 20 38 57 63 78 77 82 96 93 99
36 36 54 63 83 87 76 63 62 62 62 76 65 48 58 49 26 22 36 39 82 80 46 30 39 29 21 18 17 20 28 44 56 64 50 64 68 84 82 91 74 77 100 100
35 34 36 53 78 84 78 76 61 68 76 65 27 19 28 44 31 26 23 22 39 58 73 63 57 48 36 21 22 31 40 52 67 71 87 84 92 78 55 71 72 59 72 98
33 31 36 35 44 81 75 72 69 44 33 28 31 37 31 20 16 15 14 15 12 15 24 33 30 27 24 22 30 42 57 63 64 60 55 52 44 43 74 66 52 56 81 99
44 25 32 48 57 73 68 68 66 63 66 42 31 16 25 28 24 22 14 12 17 20 23 25 21 18 23 32 34 44 37 30 25 32 51 27 24 28 30 36 54 71 95 99
30 32 36 55 52 43 33 43 52 63 45 19 16 8 10 9 19 27 23 22 18 30 32 26 19 18 20 14 7 8 6 6 5 5 8 18 22 26 32 34 42 66 86 66
27 22 52 69 74 65 22 19 23 21 12 10 8 10 12 10 10 18 24 27 24 30 32 28 25 22 14 8 8 6 6 6 6 6 10 16 23 33 38 39 43 53 67 72
87 89 37 40 33 20 12 11 13 12 11 11 10 11 13 14 10 17 30 29 30 31 30 28 23 12 9 8 7 7 7 7 8 10 14 21 32 42 48 47 44 51 72 100
66 78 41 26 18 11 8 13 30 45 38 26 23 24 19 12 15 24 35 36 33 31 30 23 12 10 8 8 8 9 9 9 10 13 19 28 40 47 48 50 64 93 98 93
36 40 49 31 17 10 12 16 42 38 18 32 26 22 14 16 28 34 33 30 29 27 21 13 11 10 10 10 11 12 12 14 16 21 29 41 48 51 61 79 90 93 94 92
41 24 31 28 16 12 18 11 10 21 26 28 28 21 19 26 31 32 32 29 24 15 13 12 12 13 13 14 15 15 16 18 21 25 37 47 52 60 80 96 97 96 90 71
44 40 45 40 24 22 16 8 14 25 22 24 24 20 24 32 33 31 21 15 14 14 14 14 15 16 16 17 18 18 19 22 26 36 46 54 65 82 94 97 91 86 76 48
46 31 37 44 35 35 10 10 16 25 27 24 24 24 27 28 16 15 14 15 16 16 16 16 16 17 19 20 21 22 25 30 38 46 54 68 76 85 85 85 84 78 51 24
58 38 38 45 44 37 10 11 12 12 14 15 15 15 15 16 16 17 17 17 16 16 16 17 18 20 22 24 26 29 33 40 46 57 70 74 77 81 81 83 81 49 16 9
74 63 49 36 40 26 15 14 14 15 15 16 18 19 19 18 18 18 17 17 17 18 18 20 21 24 31 34 36 36 43 52 64 72 73 75 78 79 81 78 43 16 9 9
91 87 66 44 57 26 18 17 18 20 20 21 21 20 20 21 24 26 25 24 22 21 21 24 31 39 43 45 45 50 63 74 76 75 77 78 79 82 76 44 19 10 11 12

GFSCGP_500_rhum_045.txt.gz
RH
22 37 39 42 53 56 60 70 70 86 91 99 80 65 60 91 47 40 37 31 30 31 32 34 34 40 46 28 18 17 17 18 20 21 22 18 21 25 56 19 15 16 17 16
20 38 43 30 45 56 62 53 76 70 63 71 69 67 62 64 55 34 32 44 39 33 31 29 29 26 24 28 26 34 32 44 58 47 24 42 42 30 18 18 20 18 16 15
19 38 47 42 50 55 62 45 91 88 62 45 81 74 94 67 34 20 32 44 38 51 37 35 25 19 18 19 25 39 48 62 73 62 24 35 23 21 20 19 18 19 16 17
19 48 44 40 61 48 52 56 72 77 98 99 93 88 76 81 58 55 39 47 57 56 31 28 27 23 19 19 17 32 43 57 65 82 39 24 22 22 22 21 43 44 50 57
18 40 50 41 60 51 45 50 55 68 91 74 85 82 84 77 41 83 96 100 93 91 44 34 42 33 26 26 26 48 48 54 54 75 70 29 26 25 23 47 64 62 72 63
18 27 54 39 42 51 53 51 54 61 66 61 71 63 57 46 48 71 63 76 97 100 98 82 52 47 44 37 37 44 77 56 55 84 89 58 43 45 41 37 34 44 80 79
20 25 52 44 37 41 41 51 53 57 52 52 64 56 66 77 55 48 69 60 75 75 80 99 76 79 49 66 82 74 85 68 78 72 71 62 39 43 41 33 47 71 94 94
13 21 39 42 41 44 44 44 52 51 51 56 64 58 67 79 64 45 62 66 64 61 67 66 62 65 43 44 63 68 90 72 99 96 87 59 38 28 28 35 64 82 98 95
14 24 36 55 61 56 56 60 62 64 71 69 64 58 56 47 46 48 46 54 64 50 20 28 30 22 34 54 68 85 87 75 66 39 56 36 40 38 34 64 80 90 100 100
16 28 34 49 74 78 76 81 81 80 71 69 61 60 55 61 48 47 65 71 75 75 33 19 19 21 21 22 22 26 45 27 27 24 24 49 59 63 65 88 97 100 100 99
16 27 45 46 84 98 98 89 92 87 70 58 58 54 58 66 60 51 50 52 58 54 40 21 18 17 17 18 18 20 20 22 23 22 44 58 79 80 88 93 99 94 85 74
20 26 32 50 84 100 100 91 81 81 71 63 56 50 68 68 71 55 35 28 31 25 42 90 53 28 42 39 35 28 23 23 23 50 60 84 76 84 78 74 80 100 90 94
19 19 27 39 58 78 95 89 85 75 71 59 59 51 45 34 38 46 36 22 21 28 50 93 88 80 69 68 65 44 25 27 52 62 80 81 73 54 64 84 100 87 77 54
19 19 23 29 39 67 80 90 95 80 60 46 47 30 43 40 29 30 26 19 15 15 17 22 40 69 77 56 32 27 28 48 57 60 50 29 22 52 48 56 60 41 34 34
27 20 22 23 40 48 63 80 72 61 56 54 48 40 33 26 23 44 21 17 26 24 12 14 22 33 35 33 33 37 39 27 14 11 9 22 25 22 12 16 20 22 30 37
49 27 22 21 30 46 44 44 56 50 42 41 44 35 23 18 13 13 12 10 12 17 21 15 22 31 32 25 23 28 22 11 8 7 8 8 8 8 10 12 17 27 37 42
36 27 21 20 28 46 31 35 37 31 22 21 14 10 11 10 11 11 11 13 15 21 24 24 28 34 34 32 31 21 11 8 8 9 9 9 10 11 12 13 18 26 39 47
38 27 20 31 34 35 37 56 36 18 12 12 13 26 25 17 13 14 15 14 14 30 31 32 34 36 36 30 17 11 9 10 10 10 11 12 13 14 15 18 24 35 47 53
70 38 28 40 45 21 25 29 23 14 13 15 40 31 34 32 24 24 20 13 15 25 32 38 39 33 24 13 11 11 12 12 12 12 13 15 17 19 22 25 32 43 53 64
82 64 67 48 58 34 18 24 14 17 12 13 16 19 19 29 25 20 14 13 22 31 34 33 29 19 13 12 13 13 13 13 14 15 17 19 22 24 30 35 42 57 67 78
81 77 62 40 24 21 22 17 17 23 11 9 14 20 19 25 24 18 15 21 31 34 32 20 14 14 14 14 13 13 14 15 16 19 22 25 27 29 35 44 60 68 73 78
94 91 71 61 39 16 32 23 28 22 8 9 16 20 19 22 20 19 24 32 35 23 15 16 15 14 14 14 14 15 16 18 21 29 32 34 33 39 51 64 70 75 76 74
80 92 91 65 56 38 40 40 50 18 9 9 12 19 22 22 23 28 32 20 16 16 17 15 15 15 16 18 18 18 19 24 36 43 44 44 44 54 67 71 72 72 67 66
86 99 97 98 86 59 34 46 56 18 9 9 10 11 12 14 14 15 16 17 16 16 15 19 22 22 21 21 21 24 34 48 55 53 51 51 58 67 70 70 71 68 68 70
88 95 99 91 85 47 36 44 49 28 11 12 13 14 14 14 16 18 18 18 18 22 28 28 26 25 25 27 33 41 50 56 57 56 58 64 74 75 76 78 67 64 69 63
68 79 95 93 100 80 60 49 41 32 18 17 18 19 21 23 22 21 22 24 27 32 32 31 29 29 36 47 51 53 61 64 65 69 76 81 78 77 79 77 78 80 74 49

GFSCGP_500_rhum_048.txt.gz
RH
15 15 31 30 36 40 49 32 100 84 91 98 91 82 83 73 88 50 42 43 32 40 52 52 49 48 46 38 33 31 27 26 43 21 20 24 33 33 48 73 70 32 16 17
15 16 29 34 35 38 51 60 98 55 62 90 98 95 83 75 76 74 48 39 33 33 36 34 32 35 42 29 20 18 19 21 23 30 30 23 30 39 39 57 27 20 21 19
14 13 26 37 42 50 56 89 94 88 39 47 52 58 83 83 70 37 33 39 48 46 34 34 30 24 21 24 23 29 39 46 56 64 55 31 43 32 27 22 30 22 19 19
15 14 22 35 51 50 51 60 64 88 88 100 66 100 86 98 90 46 23 43 40 48 40 36 29 26 22 20 19 19 31 38 47 60 70 41 33 24 23 25 22 22 26 53
21 12 20 38 50 42 35 41 49 56 80 87 91 94 100 93 94 64 45 32 42 69 40 33 30 25 25 25 22 22 40 56 66 63 60 72 36 25 24 25 24 29 48 56
17 13 18 33 39 47 47 50 49 54 65 63 89 79 100 96 79 85 64 39 69 80 74 72 53 26 28 37 35 28 37 62 93 77 69 95 76 50 48 48 47 45 38 49
18 14 19 30 37 42 44 45 88 86 61 69 66 64 93 81 62 54 74 77 75 66 77 86 59 77 59 37 28 34 55 70 84 94 95 86 98 85 80 46 36 31 34 51
21 15 16 25 41 48 37 44 96 100 83 100 59 60 98 68 65 56 53 57 86 92 96 80 88 95 93 55 42 30 39 73 93 84 95 91 70 97 68 50 45 34 59 76
21 15 17 22 34 51 50 41 61 77 63 64 68 67 80 62 51 45 49 52 69 74 62 44 40 53 64 64 50 46 57 74 99 88 87 76 77 64 51 66 74 83 80 94
22 19 19 22 34 43 58 54 62 73 83 78 95 76 100 68 53 49 48 52 70 77 90 88 36 22 26 30 44 66 59 52 58 64 32 26 21 31 55 62 88 96 96 97
23 19 26 25 28 35 43 61 72 82 70 89 87 93 72 74 70 57 48 51 72 86 76 64 36 20 19 19 19 19 22 22 25 24 22 21 26 56 70 91 90 91 87 90
26 20 20 30 34 37 52 79 87 91 87 66 70 58 66 61 74 69 64 55 41 39 44 67 73 59 37 37 30 24 26 33 38 39 27 27 52 62 82 86 60 75 85 94
30 25 22 27 31 34 36 57 80 89 87 62 68 62 57 52 70 37 61 50 39 34 21 29 55 90 85 77 78 74 74 69 60 34 26 43 62 68 58 24 30 52 64 77
34 31 27 22 30 46 44 58 89 100 91 76 57 60 56 57 33 26 29 28 31 30 18 17 21 39 75 91 96 94 88 59 32 30 41 45 27 23 24 23 13 15 13 25
32 29 25 23 32 36 31 49 76 88 70 57 52 53 62 56 39 38 27 28 40 20 18 19 17 15 17 23 35 40 40 50 37 50 45 37 14 8 9 10 11 13 15 16
33 32 27 23 23 26 28 31 38 47 52 59 48 36 41 44 47 38 19 10 10 11 10 14 22 27 28 32 35 56 48 44 32 28 14 9 9 10 11 12 13 14 16 18
38 37 32 23 22 30 12 16 31 34 40 38 22 23 21 17 12 10 9 10 10 10 12 11 19 29 35 36 45 44 40 36 26 13 9 10 12 13 14 16 16 17 20 22
48 41 37 33 28 22 15 18 41 40 36 35 19 16 16 24 34 37 28 15 12 13 15 14 16 30 37 45 48 46 40 24 13 11 13 13 14 15 16 17 18 22 24 26
53 54 50 44 22 22 11 18 51 56 22 24 20 16 12 19 26 21 25 31 25 25 20 14 19 35 42 45 42 34 18 13 14 14 14 14 15 16 17 20 26 30 32 35
85 76 68 56 35 18 14 26 34 43 15 44 20 11 9 11 16 18 19 27 24 20 14 21 36 39 37 33 22 14 14 14 13 13 15 16 17 18 24 33 40 42 43 47
91 100 79 72 56 34 24 31 65 38 20 21 18 9 9 13 16 16 18 25 21 16 22 34 36 34 20 15 15 15 14 14 17 18 18 18 20 31 43 50 51 50 53 58
80 92 86 99 80 44 42 45 28 33 25 23 19 8 8 12 16 17 20 20 21 24 30 33 23 15 15 15 14 16 19 20 20 19 21 25 35 43 52 57 58 59 61 67
98 95 89 63 60 74 72 57 38 37 40 36 28 9 9 11 14 19 21 22 27 29 19 15 15 15 14 16 20 22 21 22 22 25 33 43 49 57 61 64 65 65 68 73
98 100 85 84 91 89 100 78 67 44 40 42 38 10 10 10 10 11 13 14 14 16 17 16 16 17 21 22 23 24 26 29 36 50 55 56 59 65 69 68 68 70 76 75
98 98 87 79 79 92 98 96 85 61 37 38 45 20 12 14 15 14 15 16 18 19 19 20 21 22 24 24 27 32 37 46 57 58 56 60 64 65 63 66 69 72 74 72
75 86 83 81 97 100 98 98 83 48 32 30 29 33 17 15 17 20 23 25 26 26 27 27 26 26 31 40 44 45 55 61 64 67 65 62 61 64 70 68 65 71 71 66

GFSCGP_500_rhum_051.txt.gz
RH
37 21 15 92 92 26 50 99 87 89 100 72 94 100 73 85 58 80 56 43 33 33 39 60 44 39 43 38 36 28 24 36 54 32 39 40 38 39 41 66 74 89 88 26
38 21 15 20 29 40 38 100 97 87 82 43 98 98 95 92 60 74 33 30 31 27 25 36 41 41 42 38 29 25 20 20 54 57 21 22 22 27 30 39 60 76 48 20
35 28 13 22 31 43 49 98 96 94 90 44 51 63 98 77 64 50 38 31 36 40 37 30 26 23 20 24 21 18 18 23 46 47 52 43 25 38 43 48 44 36 32 24
36 26 15 23 33 38 91 65 81 96 100 99 71 88 97 100 64 61 34 22 27 34 49 43 35 31 21 16 15 14 12 12 19 33 42 54 56 35 28 24 25 34 29 41
42 30 17 18 32 37 70 70 40 81 100 100 95 100 89 96 92 81 54 39 29 31 36 32 32 28 26 25 22 20 17 21 38 50 55 46 40 53 29 25 26 39 40 42
42 28 15 16 24 35 47 49 44 50 100 99 100 85 100 97 100 93 100 72 36 32 52 71 64 67 58 28 28 29 30 24 25 44 65 81 60 70 66 30 34 50 51 44
43 29 16 13 22 32 35 52 84 100 100 68 98 99 100 94 100 59 64 97 94 49 37 71 84 71 90 92 62 72 33 24 54 72 82 97 98 79 89 67 69 70 39 49
39 36 20 16 17 42 37 57 90 82 92 97 90 47 94 99 64 66 70 48 57 58 64 60 72 96 96 79 75 69 54 50 35 81 97 92 78 98 88 96 94 67 56 68
47 34 27 16 16 32 83 48 92 99 90 52 93 53 77 72 56 52 59 58 59 55 74 86 73 44 30 28 54 55 40 49 52 69 83 83 97 29 26 30 32 51 66 94
44 40 40 18 16 18 42 72 69 58 81 76 93 97 98 84 49 56 51 46 43 54 71 79 76 90 77 21 28 27 42 60 66 62 73 61 34 33 27 26 34 60 84 94
44 37 54 22 16 17 24 36 71 100 91 96 100 99 98 91 66 58 60 55 44 49 75 93 94 86 61 24 20 21 23 22 23 26 22 21 24 35 28 26 45 65 75 72
78 36 80 28 24 30 98 44 72 100 98 96 85 86 99 82 81 62 57 53 49 48 59 93 84 84 85 38 21 19 19 20 20 20 28 42 45 41 26 32 46 50 49 27
60 43 35 93 56 21 42 77 100 100 100 98 96 65 98 94 65 51 42 45 28 56 52 39 38 70 86 72 55 52 52 58 66 70 62 46 48 40 26 42 46 30 23 15
77 47 36 28 52 70 27 42 94 98 95 68 70 94 94 94 65 70 91 32 20 22 25 31 30 24 45 83 92 90 89 94 96 92 88 67 42 41 62 57 42 17 13 10
75 50 40 36 71 100 98 94 96 100 100 98 80 100 100 95 100 97 100 89 37 29 27 25 19 14 15 17 31 46 48 40 34 39 44 59 69 61 52 30 11 11 12 13
98 77 39 37 37 95 85 97 97 98 100 100 100 95 98 97 64 45 47 46 46 31 13 10 10 9 10 15 19 20 18 29 51 68 73 62 41 32 14 10 12 11 12 13
99 63 48 39 45 48 52 13 74 59 78 50 40 49 97 100 88 29 30 30 23 12 10 11 12 12 12 11 16 32 51 56 57 51 43 37 23 11 12 12 12 13 15 16
90 85 78 63 40 32 25 20 22 20 17 30 29 23 48 48 16 9 10 14 23 27 18 13 13 14 15 14 24 38 36 41 44 44 37 20 12 14 13 13 15 16 17 21
99 97 85 54 40 43 31 22 19 19 20 34 22 31 21 14 12 12 17 30 22 19 27 33 24 18 20 16 19 40 46 47 42 32 16 14 14 14 16 18 18 18 24 35
98 92 88 80 53 38 35 22 26 27 19 46 44 24 10 12 11 10 10 15 16 16 24 28 26 26 17 19 36 43 40 34 18 16 15 14 17 19 19 20 24 33 42 46
100 95 90 95 64 43 40 29 30 24 22 99 69 27 14 16 12 9 12 13 14 14 22 23 17 16 28 38 38 34 18 17 17 15 18 21 22 23 25 31 44 45 46 49
100 96 89 90 81 61 56 41 33 44 38 60 43 26 18 20 11 8 10 12 14 16 18 18 21 28 35 36 22 16 17 16 17 22 25 25 26 30 37 44 48 50 57 63
94 100 99 95 85 89 94 88 84 92 62 32 29 22 20 17 16 8 9 11 13 16 19 21 25 28 19 15 16 17 17 22 24 23 25 29 34 41 51 55 57 63 62 58
100 99 91 98 96 94 90 78 95 88 88 79 32 18 23 27 28 10 9 10 10 11 14 14 14 16 17 18 18 20 25 29 30 30 36 43 49 60 62 68 66 59 58 58
92 96 94 100 100 99 97 75 100 97 91 92 53 22 27 33 36 26 10 11 12 14 14 16 18 19 19 21 24 27 28 30 38 48 54 57 75 72 70 68 65 62 71 73
82 89 90 90 100 98 99 100 93 96 99 77 62 52 41 39 40 36 26 15 13 16 19 20 21 22 24 26 26 32 48 55 56 76 83 88 78 76 74 74 72 81 78 72

GFSCGP_500_rhum_057.txt.gz
RH
68 66 77 58 28 14 8 17 22 91 96 100 100 99 55 55 92 80 45 30 30 20 21 38 38 44 28 20 20 14 16 45 24 32 49 77 89 82 90 96 96 96 96 97
53 62 84 71 36 15 9 18 23 91 81 98 93 66 65 50 74 83 40 40 23 19 16 17 16 16 25 20 13 14 11 16 20 21 19 20 20 29 37 46 57 66 86 97
63 86 86 74 36 13 11 18 24 62 89 100 78 76 46 82 48 75 77 62 32 33 22 17 13 12 15 13 13 14 13 11 19 27 31 39 30 25 21 23 29 67 81 93
63 88 86 81 47 15 11 28 21 31 41 57 92 60 51 70 76 63 75 60 53 36 13 14 22 20 19 22 20 18 18 17 16 27 45 57 47 43 36 38 39 48 66 63
58 86 92 84 52 18 14 31 27 31 32 28 47 60 86 83 70 72 56 78 49 64 30 11 16 37 69 62 61 48 30 51 26 25 24 36 53 59 55 40 29 25 25 36
53 74 89 83 50 24 16 17 38 35 34 32 48 46 72 98 95 81 61 50 78 34 42 19 25 60 52 54 56 65 64 61 33 28 23 42 52 72 91 62 49 36 26 29
47 54 78 85 75 32 17 19 27 40 29 45 41 31 39 97 58 98 82 74 56 27 30 77 32 31 46 43 65 51 37 38 45 45 35 33 29 62 85 98 71 71 80 77
58 50 68 79 86 39 22 15 23 36 33 64 48 50 63 61 95 79 72 49 37 22 29 31 34 33 26 33 48 45 33 21 20 30 32 49 59 87 96 81 94 95 92 92
60 52 86 100 92 47 36 20 44 46 50 63 74 74 84 71 61 68 74 48 34 33 31 30 28 29 35 51 50 47 38 25 21 17 28 48 48 60 54 74 91 96 94 92
65 70 95 100 95 63 62 37 60 45 60 56 52 81 81 50 69 76 62 79 60 48 52 42 36 26 26 35 49 47 50 46 44 49 51 52 48 32 54 54 46 99 75 88
76 89 97 99 88 74 66 29 35 93 48 45 53 82 74 46 61 96 80 72 72 52 50 46 43 25 14 19 26 37 65 72 95 88 86 67 86 87 94 94 89 73 62 97
77 97 99 85 81 93 74 68 37 45 69 92 46 41 69 68 89 100 94 70 71 61 43 44 33 22 17 16 16 44 41 42 58 80 85 97 97 97 94 96 80 93 91 73
95 84 97 98 85 88 77 80 74 36 56 83 65 32 79 73 96 89 94 74 64 44 32 39 33 23 21 18 18 26 29 32 86 98 97 86 94 71 90 96 98 89 75 50
100 96 74 69 75 83 92 78 90 46 32 32 28 30 99 92 97 99 99 87 71 65 49 43 31 22 23 21 18 18 54 89 64 55 70 36 39 49 83 90 77 54 39 54
100 83 80 82 100 97 97 92 94 56 39 57 39 52 56 93 99 100 93 84 96 79 67 51 28 37 37 31 24 24 44 32 44 65 69 76 52 65 60 46 36 55 84 84
99 77 85 89 100 98 97 87 83 98 71 77 79 100 99 92 93 82 65 78 69 67 74 63 47 30 28 38 31 16 15 28 30 23 40 38 34 23 26 51 54 85 63 35
93 73 100 75 93 100 85 71 98 77 72 80 98 59 80 77 92 99 95 97 89 75 37 28 28 22 13 8 10 10 15 22 20 34 28 23 26 37 40 60 34 31 37 37
95 84 91 93 100 95 48 71 87 98 100 63 90 96 96 98 100 100 100 79 44 40 29 15 11 10 11 14 26 36 39 41 41 27 28 37 48 36 38 26 32 35 29 16
100 100 95 92 100 71 68 61 86 86 80 79 88 100 85 79 99 85 93 89 56 35 19 16 13 14 16 14 19 26 36 40 36 32 46 51 24 17 31 34 31 23 15 15
98 99 98 86 92 66 59 70 81 96 59 72 92 88 80 56 88 74 70 48 42 49 28 14 12 10 12 14 14 15 16 21 35 45 37 21 17 25 30 30 19 15 16 16
100 98 96 85 94 68 70 76 97 85 61 78 97 61 40 51 63 96 93 100 64 42 12 11 13 10 8 10 12 12 14 19 22 20 16 16 25 32 32 19 15 16 17 20
98 100 100 100 94 88 100 98 97 81 82 99 92 67 45 45 74 81 55 64 37 23 16 11 12 11 8 9 9 10 13 15 16 16 18 23 28 28 17 17 17 18 25 29
85 100 95 100 92 91 96 94 100 98 82 95 95 80 63 46 57 60 87 65 35 26 14 12 12 14 12 8 8 8 11 15 18 19 20 24 18 15 17 18 20 27 29 34
59 93 87 96 98 91 100 100 100 98 100 99 82 83 100 77 68 89 55 37 24 33 26 18 17 20 20 13 9 9 10 12 13 12 14 16 17 19 21 25 28 32 47 86
59 59 55 75 100 94 99 95 100 100 92 100 97 71 61 54 92 98 92 45 32 37 24 20 29 36 36 27 16 13 13 13 14 16 18 22 23 25 27 32 39 75 93 99
29 30 40 50 98 100 100 99 94 99 98 100 97 90 76 81 64 75 83 70 58 77 75 49 34 35 36 38 36 29 24 21 20 22 27 28 29 31 37 61 96 100 100 100

GFSCGP_500_rhum_060.txt.gz
RH
68 50 75 88 56 55 25 14 12 7 69 83 96 92 76 59 47 86 49 33 24 21 18 32 29 39 14 16 14 30 36 25 54 78 79 69 96 100 94 100 100 96 93 100
58 48 92 83 56 67 38 17 12 11 88 95 98 100 96 57 63 68 82 67 33 28 18 17 17 15 23 12 12 11 28 29 19 28 24 58 86 89 96 100 98 99 91 95
60 72 85 71 68 64 46 15 10 9 24 61 75 47 88 77 51 46 85 78 34 35 23 21 18 14 16 14 13 13 13 24 25 23 25 23 23 26 35 66 81 78 88 94
60 82 70 72 76 70 62 18 13 12 14 32 75 57 78 69 33 52 81 66 54 39 28 14 21 26 21 22 17 15 16 15 20 26 41 36 32 31 23 16 23 44 65 79
57 84 80 80 90 83 63 22 16 19 16 12 20 41 46 88 37 56 68 85 58 55 57 15 15 30 39 45 43 29 39 32 19 23 26 44 55 60 56 40 30 25 29 43
63 78 74 68 96 86 65 22 15 20 16 12 43 44 30 70 64 47 58 69 78 98 55 24 28 42 38 42 51 60 59 54 27 20 21 39 46 55 82 82 58 37 27 28
63 59 68 71 70 79 66 30 19 21 19 16 54 29 30 35 54 52 68 66 64 47 44 63 61 32 42 43 39 56 54 42 33 30 30 18 27 35 62 84 92 72 66 46
54 60 64 63 63 84 80 54 26 16 14 26 36 26 38 59 50 41 53 45 37 30 39 39 42 38 30 33 35 48 48 33 24 25 31 28 26 50 78 88 90 83 75 62
51 44 72 76 95 100 96 83 46 27 18 16 29 28 52 68 68 59 44 45 36 27 31 36 36 42 42 36 45 48 47 54 43 26 27 23 34 69 95 73 62 82 98 98
36 42 70 89 95 92 97 97 63 41 38 18 13 29 57 89 72 47 37 43 31 29 32 35 31 33 36 39 44 51 60 53 61 63 68 58 52 44 48 55 96 85 99 98
33 46 58 78 76 89 90 91 67 55 47 22 17 20 51 82 79 41 49 73 64 57 63 50 36 33 32 34 33 45 49 58 42 58 76 96 78 59 56 83 98 95 95 97
23 50 42 62 81 98 100 98 84 69 48 34 36 18 35 49 88 88 96 85 78 90 71 50 40 28 29 24 24 28 32 52 66 62 100 96 98 97 97 98 98 94 99 100
53 27 52 56 82 96 97 93 81 73 61 29 31 20 48 45 79 72 80 84 92 87 66 41 40 39 32 29 21 18 28 29 68 100 98 97 92 98 97 89 92 97 96 85
75 45 18 16 70 99 97 92 88 83 73 49 35 21 92 64 53 70 64 79 93 75 67 47 54 51 43 30 23 22 21 35 77 89 98 91 81 88 85 61 85 86 67 66
100 59 42 43 67 100 99 97 98 91 83 74 56 29 22 28 35 95 73 91 96 82 84 66 81 70 43 34 34 32 29 31 35 61 68 70 67 60 67 68 65 48 63 64
100 87 79 38 74 86 98 90 96 90 87 86 75 42 34 43 39 76 97 100 100 90 77 58 61 57 48 68 47 34 30 30 51 49 54 59 48 46 64 57 62 62 72 51
100 96 88 40 69 100 99 52 91 86 94 97 96 61 67 47 85 88 87 78 93 95 84 88 82 80 56 31 24 24 24 17 15 36 40 48 61 53 44 47 51 76 49 55
53 100 100 62 91 100 24 67 84 92 86 93 83 69 60 74 93 57 68 94 86 81 76 80 82 40 13 8 10 14 19 23 25 30 33 41 50 44 46 55 65 77 53 32
49 98 100 100 100 85 55 57 71 97 85 94 90 80 64 97 95 70 66 54 90 95 93 36 17 10 10 11 12 11 16 23 16 18 23 35 38 36 40 51 53 18 18 30
36 99 100 100 100 97 52 77 94 100 84 98 99 99 94 92 73 91 90 56 84 87 74 51 22 16 12 11 11 24 24 24 21 25 30 31 30 36 36 22 16 14 20 27
32 30 89 99 100 89 82 84 95 98 59 100 99 97 94 94 91 98 100 96 88 81 61 44 51 47 11 9 11 21 22 13 12 15 22 15 16 15 14 14 15 20 27 32
55 24 46 83 100 99 93 95 96 98 100 98 99 87 97 79 91 99 76 68 65 42 48 84 87 42 15 11 12 14 14 10 12 16 12 13 14 15 16 18 22 28 30 21
44 50 65 63 96 95 100 100 87 83 89 88 89 96 88 96 96 100 72 93 80 39 62 56 47 53 43 23 17 15 16 13 9 10 11 12 12 14 17 20 24 22 16 16
87 83 64 88 98 100 100 97 100 100 100 96 97 98 86 95 87 84 86 77 52 45 34 30 56 47 35 35 27 20 23 21 12 11 11 11 12 14 15 15 16 17 18 19
53 68 96 81 100 100 99 91 83 86 91 97 92 96 100 87 89 94 69 81 83 74 59 92 51 41 34 28 25 21 25 36 31 21 18 18 18 17 18 19 19 20 21 24
94 64 73 85 100 97 83 66 100 97 90 94 100 98 96 80 89 95 91 100 97 95 99 96 82 68 76 78 83 59 38 36 41 42 40 35 32 32 33 38 48 60 66 69

GFSCGP_500_rhum_063.txt.gz
RH
58 52 38 98 85 90 60 61 44 23 15 18 29 55 55 51 44 60 47 38 25 22 18 22 31 37 14 13 19 39 54 65 75 65 96 100 97 96 98 88 87 88 94 94
53 44 57 98 78 71 71 66 48 22 19 12 26 37 49 52 61 57 65 58 40 32 23 16 16 15 24 11 9 21 17 44 40 52 75 72 83 90 98 99 100 100 100 100
51 66 62 93 79 63 73 70 54 24 20 10 11 17 64 35 65 58 59 68 49 36 28 23 15 14 15 15 10 10 14 15 22 32 33 61 67 73 75 85 92 96 88 93
51 81 60 77 66 62 74 74 59 30 15 11 15 16 25 51 62 44 57 75 48 44 37 15 18 18 18 16 13 14 14 28 29 21 24 25 24 33 62 79 80 94 85 85
53 74 70 74 82 82 84 89 70 44 25 14 11 12 20 26 40 60 77 69 55 48 47 24 12 21 27 28 23 17 19 13 16 26 41 39 35 29 26 24 34 63 72 90
62 87 87 91 94 78 95 88 79 57 37 20 15 19 19 30 22 58 64 78 60 68 51 22 21 20 42 43 43 48 47 42 28 19 22 36 40 44 43 40 34 29 33 46
60 70 71 80 78 84 68 75 74 63 48 32 20 16 20 30 22 31 54 72 71 67 32 52 59 32 38 47 45 42 45 47 35 28 27 24 29 27 40 65 70 54 36 34
58 66 81 79 76 79 78 83 82 72 60 33 21 16 19 32 22 37 56 65 73 55 32 38 39 34 32 27 26 32 41 41 36 25 23 21 25 28 54 79 86 96 89 68
52 54 68 84 98 97 87 80 90 85 71 53 20 15 14 36 34 39 59 66 59 46 34 40 38 40 40 37 30 33 33 35 44 50 33 39 42 23 28 65 93 90 86 88
29 35 63 96 92 90 88 100 98 84 81 58 38 22 14 30 46 42 58 59 54 39 37 41 44 46 46 45 37 32 46 80 68 55 61 67 65 53 52 38 58 65 60 93
11 19 41 81 85 93 85 84 90 89 85 65 42 31 20 18 37 52 44 44 57 93 57 46 42 44 41 36 38 39 24 49 88 98 98 86 80 91 85 71 51 55 87 86
10 9 11 32 68 97 100 96 100 100 92 83 55 38 30 26 34 49 39 38 33 55 81 67 44 44 38 37 34 30 28 33 46 100 100 99 98 98 94 95 95 96 98 96
14 8 8 14 51 68 59 83 94 88 85 70 68 41 42 41 34 34 38 41 48 90 100 87 70 51 35 33 41 40 28 33 55 91 98 98 97 98 97 95 97 98 97 99
34 29 25 11 27 60 60 75 90 95 77 76 52 53 48 37 35 33 35 29 30 36 76 100 83 65 49 48 47 46 26 27 31 41 53 74 90 97 97 93 79 85 90 95
66 38 36 23 26 52 68 77 100 94 76 79 68 64 65 45 37 30 68 45 54 56 44 86 88 72 70 58 54 41 31 28 27 29 36 38 52 55 62 56 46 60 70 63
100 59 82 44 57 48 64 67 40 64 86 69 73 60 74 68 51 32 29 23 39 77 86 79 89 83 68 70 91 48 42 62 45 31 27 31 39 51 49 53 58 52 52 56
49 99 100 68 84 96 56 38 93 85 95 88 78 77 78 72 74 53 33 42 32 43 93 89 75 74 71 80 93 72 45 28 21 17 12 30 40 38 52 73 71 60 54 62
56 81 99 97 100 100 65 58 70 86 88 98 88 84 84 78 85 75 49 53 73 75 67 61 77 89 92 67 83 67 18 13 15 16 16 34 48 48 60 59 54 50 45 44
28 15 19 75 99 83 85 84 90 100 75 94 84 89 99 98 92 71 65 50 61 63 55 62 70 87 84 64 69 17 13 12 13 30 37 32 41 53 54 56 54 62 79 89
27 27 29 24 39 78 67 100 100 100 35 87 94 88 93 93 70 66 69 64 81 78 68 65 71 74 63 55 26 12 12 12 17 30 45 39 38 41 51 63 49 67 57 61
25 26 25 36 29 52 80 100 100 98 50 89 87 82 78 80 76 80 80 73 68 68 80 87 84 88 61 31 26 14 11 10 14 19 31 28 23 29 49 45 28 32 30 23
23 32 25 27 33 37 41 97 100 94 77 99 99 91 86 84 89 98 98 98 98 97 98 79 79 73 47 36 44 51 42 18 13 18 17 19 18 17 18 15 13 14 16 18
27 28 40 34 28 33 22 88 100 100 90 80 99 96 84 82 75 78 80 92 100 100 100 88 72 57 46 36 41 63 45 44 33 20 15 16 17 16 11 10 12 13 15 16
32 45 44 45 28 33 36 76 99 100 99 99 90 90 89 93 100 100 98 100 100 98 92 86 90 96 89 82 67 80 75 67 32 34 33 26 23 26 26 21 16 14 14 16
50 87 61 42 62 78 72 65 57 91 100 100 99 98 95 99 98 93 99 100 99 93 86 87 88 76 65 59 62 79 54 47 57 69 62 35 24 24 30 36 37 35 34 30
77 72 72 47 60 50 65 79 70 91 86 100 99 100 98 93 98 99 96 96 98 96 90 100 96 91 99 99 98 94 89 84 87 86 82 84 82 70 56 49 47 58 86 93

GFSCGP_500_rhum_066.txt.gz
RH
58 53 38 57 79 87 82 60 64 66 38 30 20 13 30 28 36 35 36 36 31 26 21 19 26 27 37 15 11 28 42 54 66 80 86 88 80 100 75 77 98 97 99 99
57 42 58 70 84 76 71 64 68 71 50 39 26 15 16 19 30 26 26 45 47 35 30 22 17 16 16 22 11 13 20 46 77 90 80 68 64 81 90 96 100 91 99 96
55 67 65 69 91 87 74 62 80 80 68 53 34 20 15 24 20 30 29 32 59 44 34 30 27 17 13 15 15 9 11 19 33 37 83 88 90 93 90 95 90 94 98 96
53 70 64 63 69 89 66 77 84 86 81 71 48 27 12 13 16 37 44 42 42 51 36 33 21 22 15 12 12 12 11 21 21 19 26 43 66 79 66 88 100 97 96 96
60 73 73 68 78 83 82 96 89 86 80 66 55 32 16 14 18 34 39 43 57 50 40 33 22 16 16 20 17 15 16 13 16 22 27 21 20 26 57 86 82 69 70 73
68 88 78 77 95 91 100 85 88 71 62 55 55 42 18 19 22 24 26 44 56 49 56 35 22 16 18 30 39 41 43 40 34 17 18 27 37 35 26 22 30 58 85 84
60 71 72 82 86 85 92 82 76 69 65 53 63 61 27 19 25 18 35 54 46 40 44 39 29 27 25 29 40 38 46 42 42 26 25 25 32 38 35 50 40 30 30 45
84 54 64 72 91 92 89 86 76 85 74 82 79 54 40 21 23 22 22 46 54 38 26 24 38 47 33 28 22 25 31 47 40 31 29 23 26 26 25 30 60 72 60 41
90 76 57 70 97 95 93 92 95 85 84 75 61 62 52 28 21 26 27 29 52 50 48 29 30 33 40 41 41 33 29 28 44 52 47 34 35 39 27 33 46 68 83 83
29 40 48 93 94 96 95 100 97 91 86 76 58 52 56 50 23 23 40 46 44 58 54 37 30 30 38 41 37 34 35 51 86 76 72 62 57 50 52 49 48 36 55 61
20 20 35 52 84 100 100 96 93 91 79 70 56 50 54 59 29 24 27 46 60 60 58 40 41 40 38 37 38 35 37 36 52 96 100 97 95 88 71 60 66 71 56 48
9 10 14 45 62 84 96 95 95 92 82 72 61 41 60 64 46 32 35 39 76 50 54 71 48 42 46 42 45 40 41 36 26 32 97 98 91 98 99 98 96 99 94 95
7 8 10 10 45 66 74 73 78 69 62 47 53 44 58 70 68 59 45 45 55 56 49 56 73 57 55 52 40 37 40 40 38 26 38 90 94 96 94 96 95 82 98 99
10 7 9 12 21 45 55 54 64 64 62 64 45 53 61 66 76 70 55 54 44 69 64 68 70 73 62 56 57 51 52 44 38 30 24 32 44 57 55 83 71 63 88 83
45 17 13 20 23 18 34 60 71 63 55 44 42 52 72 71 80 85 72 55 63 61 60 61 68 76 99 84 71 64 60 50 41 32 31 49 48 41 38 60 75 72 62 52
36 44 32 21 49 44 24 34 54 63 72 39 42 31 55 72 80 88 77 51 38 57 71 48 76 86 94 95 82 80 73 52 56 47 38 38 48 30 26 38 57 81 77 84
92 72 98 90 100 86 38 40 51 65 75 61 39 44 65 60 73 83 81 72 61 47 35 31 42 97 88 100 96 76 78 70 69 68 59 47 24 15 21 41 52 73 87 89
22 36 85 83 100 100 58 100 54 42 55 65 41 34 49 71 92 84 90 94 93 84 68 43 46 70 73 80 80 86 95 90 88 65 20 15 15 16 24 41 64 80 93 88
28 19 24 39 70 77 62 100 100 88 39 72 52 53 59 72 86 56 86 100 100 99 96 76 74 68 67 76 61 79 90 98 91 77 19 13 20 31 45 50 48 50 58 69
22 27 27 26 24 24 31 43 90 100 65 98 91 57 49 78 58 40 71 99 96 100 93 78 83 77 85 91 85 48 42 44 46 35 18 13 16 32 44 39 26 25 28 48
36 35 31 31 27 17 18 23 31 72 78 73 94 88 94 75 62 57 70 90 90 100 96 99 88 79 92 100 99 98 68 28 30 26 22 29 36 28 20 22 17 18 18 25
39 44 39 38 32 14 16 20 30 33 58 77 88 78 60 66 51 67 74 74 80 96 99 99 97 92 88 97 100 100 86 54 24 32 46 54 42 22 16 14 13 12 13 14
43 39 38 29 21 20 21 22 35 25 35 55 82 100 96 60 77 54 64 89 100 100 99 98 99 100 100 99 100 97 98 100 92 52 55 60 44 33 29 24 23 22 19 20
44 44 36 35 24 26 26 29 29 31 26 52 78 90 98 89 81 70 62 82 88 95 100 96 91 92 95 92 92 96 100 100 100 99 76 62 61 57 30 28 32 29 25 29
57 53 47 38 31 34 29 40 32 43 48 51 55 95 100 99 84 87 81 95 96 98 100 100 95 100 97 87 82 94 100 98 97 69 58 70 56 55 71 81 84 79 78 78
48 41 38 32 32 34 30 39 35 47 68 95 83 87 100 100 85 96 83 93 100 100 100 100 92 93 88 91 99 95 89 95 89 97 96 87 97 97 96 98 96 96 100 100

GFSCGP_500_rhum_069.txt.gz
RH
89 64 58 66 89 85 72 52 56 73 78 64 57 39 31 28 23 25 39 41 43 32 27 23 20 22 18 17 24 9 18 49 61 60 81 96 58 95 82 98 89 95 96 92
79 60 70 68 79 80 68 50 47 78 82 73 58 45 41 34 22 32 42 31 40 36 38 32 26 20 17 15 16 18 10 30 61 78 81 98 100 90 99 100 94 82 96 95
84 82 86 70 79 81 74 63 60 73 82 68 62 45 51 40 18 17 31 32 34 42 42 36 32 29 26 14 13 13 10 12 29 40 85 86 76 85 83 97 98 85 97 98
76 87 79 66 63 80 67 83 75 77 69 56 55 31 42 37 21 21 32 30 36 37 54 38 31 24 20 19 16 14 11 10 18 20 30 66 78 87 95 100 98 96 97 97
92 100 86 75 74 81 81 81 94 76 69 52 42 43 49 39 21 24 25 29 37 33 41 42 30 21 14 19 22 19 16 14 10 12 26 25 25 71 68 86 98 98 98 97
97 100 90 82 95 95 96 85 81 73 66 51 46 64 47 45 26 27 25 23 26 38 44 41 27 19 15 17 33 40 44 45 30 17 13 17 27 32 24 61 80 85 90 93
99 99 98 96 88 96 89 84 68 71 61 47 62 66 51 59 39 24 28 23 20 34 32 33 31 19 21 20 29 39 42 44 43 28 20 18 16 29 33 35 26 30 44 52
98 92 92 86 85 88 100 100 92 89 74 69 70 58 47 64 47 24 25 22 24 30 37 38 41 22 21 23 28 27 28 36 46 41 30 24 22 21 23 22 44 49 44 35
97 97 94 82 88 97 96 89 99 92 85 77 67 58 49 54 69 40 21 24 24 29 29 46 39 28 25 25 31 36 35 32 33 34 37 40 35 32 35 25 21 33 54 56
62 91 97 85 66 79 94 100 96 81 77 79 70 70 62 52 79 75 34 24 31 29 45 42 45 33 30 30 26 27 33 34 45 70 74 58 44 46 44 47 49 51 50 44
21 22 64 97 95 75 78 92 93 85 78 73 70 65 70 67 78 86 56 23 45 42 46 49 45 50 33 30 31 30 32 31 38 65 80 99 98 89 88 92 96 99 93 90
25 23 27 33 59 88 95 92 92 86 78 73 70 62 74 68 81 93 54 31 24 40 54 67 67 48 36 35 36 35 30 30 29 30 54 82 92 99 93 93 86 97 96 98
12 21 22 37 44 43 50 62 75 74 72 65 68 59 66 67 77 95 97 69 35 28 66 67 68 76 68 66 51 49 42 43 44 41 31 39 63 71 95 97 94 59 88 72
5 8 14 17 22 34 44 57 68 65 59 52 53 55 56 64 76 94 98 100 78 43 33 60 62 76 65 76 66 73 61 54 62 54 36 36 31 31 38 57 52 37 61 71
7 6 5 7 11 14 19 31 46 57 44 38 57 61 64 69 80 88 83 98 85 69 50 39 36 70 88 85 92 90 69 69 68 66 48 44 36 28 30 50 51 41 43 64
7 16 22 23 24 14 12 18 31 37 46 42 37 38 55 65 66 64 72 95 98 100 78 48 52 43 49 63 71 95 95 90 86 66 75 49 48 48 43 41 37 26 24 50
16 20 20 24 86 100 22 25 22 30 37 45 49 50 43 51 48 46 68 81 98 98 97 66 42 48 70 52 73 90 100 97 92 87 73 56 49 42 42 36 23 14 20 44
14 19 46 46 58 40 25 47 96 76 36 41 41 36 25 23 31 60 72 77 91 98 94 92 89 83 58 44 57 81 92 93 95 96 88 94 86 53 20 13 13 14 21 32
21 19 16 18 51 19 24 79 98 100 89 90 67 52 41 32 26 45 54 51 77 92 89 92 97 92 95 64 77 80 94 85 99 95 90 92 83 55 31 15 14 21 36 43
32 38 36 25 22 14 14 22 36 49 66 73 70 88 83 54 30 32 44 44 62 90 91 89 92 97 98 92 86 78 78 76 78 78 77 50 49 43 26 17 15 31 38 32
46 39 32 31 24 19 19 22 24 21 24 30 35 41 72 78 64 47 66 66 56 77 80 86 95 97 97 99 98 87 89 86 81 92 94 62 49 40 33 46 53 41 25 20
48 43 38 42 34 22 23 19 18 17 14 16 22 29 39 62 75 65 66 84 87 71 81 89 96 92 97 98 97 99 99 99 97 100 95 86 86 94 96 99 89 86 43 30
41 45 48 37 30 27 25 42 26 21 14 16 13 12 28 41 72 76 62 72 80 54 52 77 74 99 100 91 96 97 96 98 98 96 92 99 97 89 99 98 94 65 55 51
57 55 42 38 34 40 31 31 30 34 26 21 16 14 16 34 45 78 67 69 92 89 76 65 71 89 88 91 95 98 98 99 98 98 94 92 95 100 100 97 85 77 62 69
74 65 57 40 35 34 44 44 37 37 33 28 26 21 14 33 54 61 67 80 100 100 100 85 83 88 91 100 93 98 97 94 98 98 95 100 98 97 97 99 97 98 81 86
74 67 60 50 46 48 46 44 39 34 31 28 26 26 20 76 99 80 92 92 99 100 100 99 96 93 82 86 91 98 89 97 95 96 98 98 98 99 95 100 99 98 100 99

GFSCGP_500_rhum_075.txt.gz
RH
97 93 71 86 97 87 99 96 100 100 98 59 60 52 52 68 73 56 52 32 14 16 24 23 38 35 27 24 19 18 17 16 16 32 55 79 91 91 96 88 96 96 96 96
97 73 89 100 96 96 95 100 91 84 92 58 70 49 41 47 64 74 63 35 13 11 22 20 29 38 34 26 18 16 16 17 16 28 43 99 90 90 94 67 83 92 92 94
99 93 99 97 98 93 84 96 96 88 100 65 66 43 42 45 54 62 48 29 18 12 11 20 21 32 38 29 19 15 15 14 12 15 46 94 95 91 78 78 72 92 93 79
95 100 94 97 94 98 84 100 97 94 100 78 85 48 51 55 52 59 60 47 20 15 12 16 20 25 44 31 19 15 15 16 12 7 17 22 56 69 70 69 67 82 88 79
97 99 97 95 97 99 84 96 93 89 95 86 80 54 45 57 65 63 63 45 27 16 10 15 24 29 40 30 16 14 12 13 16 11 8 13 24 17 52 66 91 90 94 78
99 98 96 97 100 96 100 94 100 94 93 86 65 74 52 64 70 69 62 54 27 17 14 12 26 36 38 28 16 15 14 14 14 13 13 10 9 14 18 34 66 84 92 84
100 98 96 98 100 98 97 98 100 98 98 82 73 60 63 70 74 85 69 64 51 23 15 12 24 44 40 26 17 17 16 19 24 20 25 21 14 10 14 21 23 28 55 88
96 96 98 99 98 100 98 99 88 89 100 97 88 60 61 64 76 93 85 71 67 32 19 15 25 37 33 29 20 20 18 18 23 28 28 32 30 23 19 20 26 29 27 32
98 98 98 96 99 97 96 90 96 97 100 98 95 82 96 68 76 86 94 81 72 36 22 19 19 33 36 29 21 20 21 20 18 19 20 21 22 26 30 29 24 19 21 41
70 97 97 100 99 98 96 99 99 98 94 99 98 100 98 88 64 84 98 87 79 66 38 20 22 27 46 41 30 22 21 23 23 21 20 21 24 34 48 36 28 30 30 27
66 97 100 97 95 100 100 96 93 99 100 100 99 98 98 99 83 77 97 88 82 77 64 27 24 28 27 37 41 29 24 23 26 27 25 22 23 27 23 36 64 63 57 55
42 81 97 99 98 98 99 99 98 96 100 98 98 98 95 100 97 82 84 91 97 86 77 38 30 36 33 39 40 44 38 36 27 30 30 31 25 31 35 29 25 36 63 62
30 51 94 99 97 100 99 97 98 98 99 98 99 97 98 98 100 89 95 91 91 88 81 97 47 48 51 45 43 51 48 46 37 33 38 36 34 40 40 44 44 22 26 31
14 33 76 93 98 100 98 100 100 98 96 96 97 99 98 99 95 97 96 93 98 97 96 71 51 60 61 62 53 49 61 59 53 50 54 46 49 49 52 49 58 41 28 28
97 100 80 87 100 97 96 77 59 52 71 99 100 100 97 98 96 98 96 94 92 93 98 96 62 47 50 47 54 63 65 60 61 60 49 62 63 70 64 61 76 62 56 41
94 100 100 96 85 85 77 93 82 61 56 60 62 69 100 90 54 47 54 74 80 84 93 95 98 75 65 75 65 74 84 79 79 74 62 76 76 78 68 73 73 63 64 60
14 51 59 90 79 35 19 22 29 32 48 47 48 70 53 50 40 29 27 26 29 35 48 69 80 97 98 85 91 87 84 87 84 82 92 85 78 76 81 79 77 76 81 73
16 27 45 37 58 66 95 94 100 96 84 69 56 60 28 22 14 18 16 10 11 13 14 16 34 46 64 89 95 84 96 100 84 76 87 86 66 59 69 68 77 75 83 74
11 23 26 20 26 28 22 18 33 60 70 82 98 93 55 28 49 48 23 15 22 14 12 11 10 14 32 60 75 94 98 97 86 84 88 84 79 65 61 76 76 77 90 76
10 11 10 10 9 8 13 7 9 11 36 15 18 16 16 18 26 34 19 29 37 28 28 28 32 16 19 37 33 46 85 100 97 88 100 98 100 85 86 100 91 82 79 53
34 15 10 13 10 12 73 22 12 14 50 11 14 14 16 28 25 31 33 28 27 26 28 27 30 29 24 24 33 57 84 99 100 95 92 92 89 100 99 99 99 99 84 56
80 52 27 23 18 13 31 33 48 52 39 34 30 22 21 20 18 15 13 12 11 12 12 20 24 29 38 33 30 30 34 73 100 100 98 97 95 99 100 100 85 94 88 74
92 67 68 55 35 43 46 47 56 40 36 33 29 21 17 14 13 12 10 10 13 10 9 11 14 50 51 31 48 61 42 55 96 100 100 99 98 96 98 99 98 98 91 94
100 100 85 99 59 76 65 39 33 41 44 38 24 19 20 19 16 14 14 14 11 9 9 8 9 14 79 72 43 51 73 68 88 100 100 100 99 98 100 98 98 99 100 97
100 100 98 91 99 91 85 35 28 45 29 26 32 25 23 23 24 24 20 17 14 12 12 10 10 10 10 66 66 77 92 82 78 100 99 98 96 98 98 100 99 98 100 100
100 100 92 85 73 77 90 56 41 56 45 36 38 30 30 30 29 26 24 24 21 16 17 15 13 11 24 42 78 88 88 82 75 75 86 84 79 85 82 99 99 100 100 99

GFSCGP_500_rhum_078.txt.gz
RH
58 69 37 89 92 86 98 96 86 92 93 99 98 55 62 88 91 78 44 51 48 36 15 9 11 18 24 26 26 21 15 13 14 16 22 44 56 72 85 87 83 91 98 96
51 34 63 100 97 97 100 96 94 85 98 98 94 66 54 65 71 77 91 60 48 41 20 11 8 14 14 21 23 21 14 13 13 16 17 36 78 76 81 85 75 68 84 93
48 56 82 98 98 97 95 90 95 88 100 99 92 65 53 55 65 70 74 71 55 42 28 13 9 11 17 22 32 21 14 12 14 15 15 26 72 100 90 95 88 75 63 73
52 67 79 87 89 99 79 88 98 98 98 93 100 62 56 52 62 70 62 59 56 57 34 13 10 10 19 24 36 20 12 11 12 16 11 20 22 31 53 73 83 71 66 67
50 61 87 87 82 99 95 100 97 96 98 100 85 76 43 58 62 84 84 64 48 52 39 16 9 10 19 23 30 17 12 11 11 13 14 10 8 15 17 24 53 50 47 60
57 76 91 86 100 98 89 98 95 97 99 86 77 82 44 50 62 94 99 81 59 50 43 17 11 9 13 28 30 16 14 12 13 14 12 13 12 10 9 15 26 61 72 74
65 82 98 98 98 97 95 99 92 97 90 64 78 75 50 57 78 100 92 66 64 58 44 28 13 9 12 27 25 16 18 14 15 18 18 19 17 16 11 10 15 23 31 34
66 92 100 100 100 100 99 98 95 93 99 97 97 76 60 59 79 75 78 83 79 71 59 53 19 14 12 18 24 18 19 16 16 18 22 25 27 23 22 23 20 21 26 28
46 91 88 98 100 98 95 85 99 98 97 97 86 75 94 82 64 75 81 77 92 78 74 61 23 18 16 14 21 21 19 20 17 18 17 16 16 20 24 24 23 24 23 19
68 86 97 100 99 97 99 100 99 96 96 97 100 95 100 88 78 81 89 87 88 93 89 61 45 20 22 18 18 24 20 20 21 21 21 19 19 18 22 27 37 32 24 26
54 62 89 97 100 100 99 98 96 97 98 99 98 98 95 100 98 84 78 88 91 82 81 67 67 40 23 24 29 30 28 23 23 23 24 24 25 23 26 28 23 25 51 52
17 41 55 98 99 100 99 100 99 97 97 97 97 97 100 99 100 76 73 88 84 81 87 80 77 63 35 26 28 35 32 28 28 28 30 27 26 30 30 41 38 34 18 28
6 14 43 77 100 98 99 98 100 100 99 98 96 99 99 98 98 97 89 73 77 76 87 98 93 72 57 31 31 30 48 40 35 38 43 38 32 36 35 37 44 42 43 45
5 34 23 87 100 100 98 100 98 98 98 96 98 97 91 99 98 89 94 83 78 88 95 92 100 92 87 52 36 47 51 58 51 45 45 42 36 48 48 43 47 55 59 57
43 99 78 30 97 97 100 97 95 99 97 98 98 98 98 98 98 98 98 94 88 96 90 85 86 94 90 80 52 59 65 64 62 50 51 53 56 57 53 59 59 67 55 61
4 69 100 92 86 92 97 99 100 95 99 100 98 98 99 97 99 99 96 88 96 100 98 97 99 100 100 94 79 58 44 51 44 52 63 65 57 58 54 60 70 75 72 65
3 4 85 96 100 95 78 77 80 95 99 97 96 100 96 98 90 74 63 62 82 71 69 85 92 87 94 98 100 81 53 51 40 43 57 73 80 78 74 68 81 86 81 78
3 4 23 95 100 98 96 99 90 83 88 73 76 98 95 90 93 88 90 66 49 19 15 17 22 27 27 34 54 67 80 82 84 96 99 85 75 75 75 74 73 68 70 77
3 5 10 22 30 77 100 83 49 98 100 100 94 93 89 23 35 58 35 9 15 28 14 8 6 11 8 9 12 19 28 57 91 90 90 100 100 98 100 79 83 91 83 76
3 4 7 40 30 21 20 47 33 30 37 66 89 86 87 79 100 79 70 40 21 11 7 10 36 17 22 22 18 15 19 33 29 39 42 62 83 90 85 92 91 81 78 89
45 20 19 19 27 17 24 10 22 36 41 14 14 10 8 12 17 34 40 43 15 16 8 15 13 13 14 23 31 27 26 29 35 40 55 67 63 82 98 91 94 95 89 69
100 97 74 54 41 15 16 52 100 80 49 40 38 17 36 33 23 25 31 27 18 13 12 11 11 10 10 10 14 19 24 33 35 42 39 52 75 73 99 96 89 94 99 94
100 100 100 82 50 58 62 41 100 77 91 72 51 38 34 26 25 21 18 16 15 12 12 12 12 10 8 9 10 12 22 32 39 42 49 67 75 93 95 98 98 100 96 97
100 100 87 82 61 57 81 72 36 86 69 65 49 45 35 30 20 19 18 18 17 15 14 13 12 10 9 8 7 8 12 27 38 41 58 77 79 63 88 97 97 100 99 91
100 99 100 95 100 100 77 83 70 46 57 57 51 45 42 32 27 24 20 21 19 19 18 14 12 10 8 8 8 7 6 8 16 47 54 88 100 100 100 100 100 95 79 95
100 95 100 94 100 100 90 100 100 96 53 47 42 37 37 35 35 29 23 24 21 17 14 11 10 8 8 7 6 6 6 6 9 29 61 86 98 100 99 93 92 100 100 98

GFSCGP_500_rhum_081.txt.gz
RH
11 9 9 21 42 56 71 85 71 60 71 94 71 99 67 66 77 67 55 47 39 32 42 34 14 6 10 20 27 24 19 16 14 13 13 14 44 86 82 90 95 92 95 97
10 7 23 32 41 46 52 70 68 59 86 98 84 80 65 80 75 80 66 54 40 26 29 34 15 7 7 16 18 19 22 14 14 14 13 13 41 60 64 80 81 69 77 87
16 15 21 25 39 44 38 75 96 92 96 97 98 88 84 76 58 68 71 72 61 34 28 38 19 9 7 13 16 25 21 12 11 13 15 13 32 72 80 77 81 79 61 62
17 23 28 37 37 57 46 96 76 98 94 83 98 64 64 66 77 70 75 57 63 50 31 39 23 12 6 14 16 22 20 12 11 10 14 12 16 20 31 54 66 80 81 71
19 21 29 43 54 62 45 54 84 84 98 82 96 83 54 58 60 57 56 53 57 63 42 44 30 16 8 12 14 22 15 12 11 11 12 13 11 7 16 15 18 31 54 68
17 29 38 54 63 60 58 66 79 92 99 96 77 84 52 56 47 46 84 65 52 56 50 46 28 17 11 10 13 22 14 13 12 10 15 13 13 13 12 8 9 16 37 55
14 26 42 59 82 79 81 83 91 99 99 78 83 82 46 60 69 84 78 69 47 58 56 47 43 21 14 10 22 18 15 16 13 12 16 21 24 20 16 12 8 8 19 36
14 21 36 84 92 98 100 100 92 88 94 86 91 61 52 75 92 93 85 66 60 74 64 59 54 37 19 14 19 19 17 17 13 12 13 18 26 26 24 22 22 17 14 22
11 26 43 97 98 94 100 99 100 100 95 91 92 76 85 92 98 96 93 79 79 85 68 72 63 51 26 16 19 18 18 20 16 14 14 14 16 17 23 25 25 22 21 20
39 35 44 64 90 96 99 100 100 96 97 95 94 92 89 97 98 98 100 91 91 100 93 76 54 59 30 20 18 17 22 20 20 19 18 19 18 18 20 22 22 26 37 37
19 22 60 48 89 99 100 99 98 99 95 97 99 99 97 90 97 98 97 100 74 71 82 84 61 60 54 30 22 21 20 26 21 22 22 23 24 25 24 25 28 29 28 26
28 27 14 25 61 100 95 99 99 99 98 96 99 98 95 88 87 97 100 100 92 81 74 62 57 49 62 62 34 25 27 26 34 34 24 24 25 27 29 31 31 34 36 34
31 33 14 13 55 95 100 100 100 99 99 96 98 97 97 97 100 100 98 100 95 97 67 72 70 57 57 64 71 39 28 31 24 26 40 33 33 36 32 36 36 36 41 44
4 4 4 8 43 96 100 98 97 99 98 99 95 97 98 98 98 96 100 89 85 92 94 79 69 73 59 55 74 77 39 32 32 26 36 46 48 49 43 36 39 44 44 49
4 4 4 24 38 49 100 96 100 98 100 98 99 94 95 98 98 99 99 86 93 99 100 100 90 93 94 83 74 84 100 71 34 43 34 41 50 51 56 55 52 50 49 54
4 4 4 13 88 55 43 97 99 100 100 96 99 98 96 98 97 98 97 97 92 98 99 92 95 100 97 99 84 73 80 100 96 66 43 38 44 45 51 59 60 60 57 58
7 4 3 23 87 57 44 99 97 99 98 100 100 96 100 97 99 100 91 88 99 100 95 97 99 100 95 92 100 90 74 87 92 100 95 58 39 34 43 63 67 70 66 61
30 12 3 4 84 37 76 98 96 99 98 100 100 89 96 100 96 93 79 80 79 88 85 79 94 80 80 76 82 84 80 72 75 84 90 96 97 82 77 59 54 57 63 62
54 21 8 5 8 21 87 100 100 98 100 86 99 97 86 90 97 98 95 89 82 67 72 70 44 40 16 14 16 19 24 38 38 35 42 55 67 82 96 96 97 88 93 89
56 24 19 12 5 9 52 100 93 94 99 58 65 92 70 89 83 79 70 70 37 19 21 34 32 29 21 14 13 13 11 10 10 14 20 22 23 38 65 90 99 100 97 100
44 13 5 5 4 7 14 31 46 73 58 27 46 42 72 89 92 99 90 73 54 43 42 18 9 7 6 7 9 10 12 14 13 11 11 13 14 12 22 45 69 92 100 98
100 96 36 13 10 6 21 32 28 22 14 20 41 25 16 20 26 50 56 30 23 17 15 16 14 12 10 9 8 8 7 10 14 18 18 14 16 14 11 11 27 53 77 92
100 100 100 92 82 72 57 69 46 58 80 82 77 62 46 66 85 54 36 27 23 22 23 17 13 12 11 10 10 9 8 8 8 9 11 20 27 31 23 16 12 24 54 88
100 100 100 100 95 65 74 100 80 91 100 92 100 100 100 100 78 59 39 29 27 22 17 16 15 14 12 12 11 10 9 8 7 6 5 5 7 14 40 54 43 36 35 58
99 100 100 100 99 92 90 92 97 76 79 93 87 84 98 86 51 44 34 26 21 20 19 20 20 19 17 14 12 11 8 7 7 6 6 5 5 5 6 16 46 67 73 56
87 100 100 95 95 96 100 100 100 100 99 80 45 71 79 64 54 48 41 34 27 24 23 21 19 18 14 11 10 9 9 8 7 6 5 5 4 5 5 6 12 33 42 82

GFSCGP_500_rhum_084.txt.gz
RH
18 12 11 20 21 14 12 7 5 10 50 72 66 30 26 48 52 45 38 41 48 44 52 56 41 30 11 9 8 13 28 24 17 12 13 14 22 79 76 80 87 80 77 96
17 14 25 16 12 11 8 7 5 7 40 56 79 59 38 38 50 47 46 47 46 56 47 40 42 26 14 10 8 12 18 23 16 10 12 13 32 70 81 75 75 92 95 93
17 18 19 16 20 16 14 9 10 15 30 56 85 66 58 45 54 45 37 47 52 51 37 33 46 27 13 11 9 12 21 24 13 11 11 13 28 70 84 91 93 79 81 88
16 19 20 22 23 25 17 21 16 11 9 17 85 54 53 74 58 46 39 62 61 51 35 35 44 28 18 12 11 13 23 23 12 10 11 14 14 22 44 60 89 90 84 72
19 19 18 19 23 20 18 22 29 29 22 18 33 65 37 86 63 47 49 56 62 53 41 36 57 37 20 13 11 14 19 20 12 11 11 12 12 8 13 17 20 30 46 64
18 18 17 20 26 34 26 26 33 27 28 29 20 54 28 87 71 59 47 54 60 62 54 42 56 34 20 14 15 13 20 16 13 12 11 12 12 14 13 10 9 11 16 33
12 14 12 18 31 41 43 39 38 43 39 23 36 54 36 76 80 74 84 75 60 52 58 52 54 49 29 15 15 13 22 14 15 14 13 16 19 18 15 12 10 9 12 30
10 10 11 21 36 56 58 54 75 88 58 45 62 36 51 62 100 98 95 79 62 52 49 53 63 66 39 20 15 21 24 15 17 14 14 16 22 25 25 22 20 19 15 18
11 10 13 30 43 82 74 80 96 95 86 95 75 38 58 99 82 86 98 98 72 64 58 56 72 72 61 35 18 26 25 17 18 15 14 15 16 16 18 24 26 23 21 20
14 17 28 29 32 76 85 91 100 97 97 100 86 89 93 92 91 94 98 99 76 65 74 84 67 70 70 40 24 20 25 21 19 18 15 15 17 16 17 20 23 23 29 36
15 19 32 22 27 59 87 100 99 100 100 95 100 95 90 88 99 95 75 77 90 86 70 67 60 58 78 63 36 22 26 24 22 20 21 20 19 22 21 22 22 24 27 29
22 22 20 34 12 29 92 95 89 100 100 93 84 97 97 94 96 98 88 92 94 73 61 66 63 53 58 76 58 31 25 24 26 25 21 22 23 23 26 26 27 27 28 29
14 14 13 20 17 22 88 96 98 100 93 99 89 64 98 99 96 95 90 93 100 86 80 64 51 63 61 75 80 73 60 46 29 26 28 25 26 24 26 29 29 30 33 35
10 8 11 10 7 15 58 97 100 100 96 84 90 94 100 98 98 98 96 98 95 98 83 69 65 67 72 80 81 88 86 86 76 50 28 27 31 37 37 33 37 35 37 40
11 7 6 6 4 5 31 80 99 99 100 98 91 100 99 97 98 98 100 100 98 85 88 73 73 79 92 97 79 76 84 90 91 95 80 56 33 39 49 50 52 48 42 44
12 6 5 5 4 5 22 48 46 99 100 98 99 98 96 100 96 98 97 98 96 100 96 93 99 85 78 87 86 74 81 82 86 100 97 95 96 67 43 38 39 44 49 55
6 7 6 6 5 5 12 98 64 91 99 100 98 96 100 98 98 98 97 97 98 96 98 95 96 99 84 82 81 78 75 83 83 76 75 89 98 97 85 90 85 81 69 53
3 3 4 5 5 5 30 84 100 100 98 100 98 100 96 98 99 99 98 98 98 99 98 98 98 99 99 100 94 95 92 78 79 95 80 81 79 94 99 96 92 92 97 88
5 4 4 6 5 6 16 88 100 100 96 98 85 95 100 98 98 95 100 100 98 97 98 100 99 94 95 88 76 83 81 61 43 50 67 77 61 68 85 86 92 99 98 96
47 49 38 19 6 10 12 98 100 98 85 84 89 81 70 91 97 87 89 99 100 100 99 96 92 89 88 76 67 68 58 40 21 11 12 14 29 46 46 48 54 61 68 80
42 54 33 24 17 12 23 38 100 100 92 87 96 98 83 55 53 99 100 98 100 94 92 89 61 55 64 73 53 50 60 54 26 13 12 12 11 9 9 21 22 29 42 48
88 100 79 39 14 9 11 17 53 87 100 100 88 79 52 15 50 44 84 95 91 91 88 85 72 55 44 27 11 7 7 8 11 13 14 19 20 17 17 16 12 8 7 9
92 97 100 100 81 40 28 27 13 63 49 65 71 78 32 29 44 40 21 31 60 64 49 40 28 19 13 8 7 8 8 9 10 9 9 9 9 8 8 8 10 12 16 16
100 100 100 91 81 75 96 80 50 66 74 74 100 98 97 91 77 100 96 55 59 51 31 18 17 16 16 13 12 12 11 11 10 9 8 7 6 5 5 4 4 4 4 4
100 99 100 100 94 94 96 95 100 100 100 58 94 100 100 100 100 99 100 100 100 53 36 28 25 23 18 16 14 14 12 11 10 10 9 8 7 6 6 5 5 4 4 4
100 100 100 100 100 90 100 97 100 100 98 82 100 100 100 100 100 100 97 95 67 44 35 27 22 20 19 18 18 17 16 15 13 11 10 10 9 7 6 6 4 4 4 3

GFSCGP_500_rhum_087.txt.gz
RH
26 26 26 18 18 17 16 16 18 21 35 35 10 5 5 17 32 25 30 35 38 33 37 50 54 46 34 34 18 8 13 22 18 20 14 10 13 26 88 80 84 87 97 96
28 24 24 21 18 16 15 15 16 16 28 32 17 5 6 11 20 28 38 45 46 44 41 46 54 54 40 31 19 8 11 19 16 21 11 10 11 40 78 82 80 94 97 97
27 28 28 23 22 19 20 17 23 26 30 33 11 5 5 5 6 26 32 54 55 51 42 48 53 59 41 31 18 8 10 17 21 20 11 10 13 34 74 77 71 80 87 90
28 24 22 23 22 24 22 25 25 25 20 12 16 6 6 7 6 10 30 56 61 52 51 47 51 54 44 29 20 10 11 18 23 18 11 10 12 19 60 85 92 80 82 86
29 17 17 19 27 27 23 27 26 20 13 7 9 14 4 9 6 10 18 53 62 62 58 43 47 57 42 32 24 12 13 18 22 16 12 11 13 10 17 26 58 85 80 78
21 17 18 20 23 22 23 23 26 20 18 8 13 20 4 8 9 15 52 65 73 77 61 49 51 60 46 35 23 13 13 19 25 14 13 12 12 13 12 11 15 16 18 35
20 20 19 18 15 19 23 29 27 20 18 12 21 28 6 8 12 17 62 73 81 87 68 51 42 60 58 32 22 14 12 21 22 14 15 12 13 13 14 13 12 9 10 16
16 16 13 12 12 18 28 47 50 30 29 28 28 19 25 24 23 22 33 64 83 90 75 59 50 63 50 37 24 17 14 19 23 14 16 12 14 18 20 18 15 14 12 10
14 11 9 9 10 24 54 63 60 46 43 39 44 50 70 49 33 39 87 66 80 70 61 57 67 79 70 58 34 21 18 23 25 15 16 13 13 16 18 23 22 20 19 17
12 10 9 12 17 40 44 78 74 89 81 86 80 76 77 75 73 51 71 93 95 67 68 70 86 96 92 92 66 39 19 26 26 18 17 14 14 16 15 15 20 24 24 24
11 13 16 17 40 36 33 67 86 88 100 100 78 77 96 66 70 62 87 91 83 82 83 91 100 98 94 92 78 50 26 24 31 24 19 18 15 16 18 19 19 21 22 21
14 21 25 49 35 25 18 64 100 100 100 96 99 66 97 99 92 80 78 89 85 86 96 90 84 82 87 94 82 65 53 27 24 25 20 19 20 20 20 23 24 26 25 24
25 23 34 40 31 17 12 49 92 99 97 93 98 63 71 96 98 85 89 94 91 91 88 100 100 93 72 78 89 84 88 76 34 36 38 34 24 21 22 24 25 25 28 29
28 27 22 22 23 23 20 52 89 93 99 98 90 99 98 97 98 100 76 92 100 99 89 93 97 84 86 80 97 99 94 85 71 64 66 68 69 65 44 33 28 26 27 28
16 14 13 10 11 14 9 8 71 70 94 100 83 73 88 98 98 98 98 83 98 97 93 96 100 92 98 96 97 97 97 97 97 96 97 96 93 94 90 67 64 51 32 32
13 13 10 8 8 6 6 4 9 58 61 95 82 75 65 96 94 98 98 99 100 98 96 86 100 80 83 85 94 95 100 93 87 79 87 99 97 99 97 95 95 98 98 91
14 13 11 10 8 8 9 7 5 12 80 93 98 100 82 81 98 95 99 97 98 99 98 99 100 80 96 84 81 85 89 90 80 75 74 78 94 97 97 95 98 96 97 95
14 11 12 14 8 11 10 12 10 15 71 67 92 100 100 88 97 99 100 99 98 98 99 98 99 99 97 82 79 88 96 87 86 88 93 93 87 75 79 86 83 100 98 98
6 6 9 12 10 13 15 11 9 14 87 83 82 94 100 100 97 99 98 98 99 99 97 98 99 98 98 99 100 91 93 92 93 96 87 84 89 83 85 77 79 81 97 98
4 4 6 7 8 11 9 17 12 8 44 74 80 67 96 99 100 98 99 98 99 100 97 100 98 98 99 99 98 98 96 95 91 83 67 65 56 44 42 70 74 62 54 64
20 12 8 9 6 5 5 15 16 34 55 83 63 84 93 100 94 98 98 99 100 98 100 99 98 97 100 98 97 97 87 77 78 68 61 64 64 56 41 16 13 26 36 42
24 16 29 50 41 16 15 12 12 37 87 100 92 92 100 100 98 96 77 81 96 100 100 100 100 100 98 93 94 93 75 63 64 55 44 32 23 16 12 11 11 13 14 15
31 48 61 69 70 64 53 14 23 22 57 88 85 94 100 100 100 81 31 19 29 73 83 93 95 99 95 87 91 84 70 51 36 18 10 8 10 11 10 10 9 8 8 7
58 79 99 100 78 68 55 26 17 17 52 73 98 99 98 100 98 100 100 93 94 100 92 73 28 45 58 46 26 16 22 27 20 13 10 10 10 10 9 8 7 6 6 5
78 100 100 100 78 95 92 93 100 100 65 57 88 91 95 97 100 100 100 92 97 99 100 100 100 100 58 32 25 21 22 20 16 13 12 12 12 11 10 9 8 8 7 7
92 99 98 100 100 100 100 100 100 100 100 99 100 91 86 87 100 100 100 100 100 100 99 100 96 85 55 36 26 22 20 18 17 16 15 14 13 12 10 10 9 9 9 8

GFSCGP_500_rhum_090.txt.gz
RH
97 78 70 52 40 38 36 32 26 20 20 19 19 12 10 12 18 21 24 28 30 30 34 34 36 38 48 49 41 37 31 10 7 11 16 17 14 10 14 59 89 95 97 97
97 74 62 43 36 30 25 24 21 21 21 16 16 9 8 8 10 14 18 21 24 31 41 42 41 40 57 57 44 32 31 10 6 12 18 20 11 10 14 64 80 96 96 96
99 97 74 46 37 28 27 25 26 21 21 17 12 9 8 8 8 11 13 20 25 26 46 50 50 46 60 65 49 33 31 9 6 12 22 16 10 10 34 70 76 90 95 96
92 92 97 83 51 30 26 30 28 20 17 15 14 11 9 13 15 10 10 15 21 18 28 44 56 53 51 67 54 36 32 11 7 13 23 13 11 10 21 55 84 77 81 95
74 48 41 35 36 34 30 32 29 27 20 13 10 11 8 10 12 12 8 7 12 19 25 34 57 67 62 59 52 39 34 12 8 14 24 13 10 10 11 22 60 72 76 84
44 36 35 29 21 20 21 22 25 22 20 13 13 18 9 14 12 11 7 7 6 12 27 34 59 74 65 59 46 37 36 12 9 16 23 14 11 9 12 10 15 30 65 66
34 48 37 20 15 15 26 32 23 21 20 17 18 13 11 10 9 7 5 5 6 6 8 26 53 69 66 59 45 38 38 16 11 16 23 15 12 11 12 14 13 10 12 16
16 15 18 17 23 32 29 22 24 21 20 20 22 11 18 9 10 6 6 10 8 5 10 16 58 72 64 57 47 43 42 18 14 12 21 15 13 12 13 13 13 12 10 9
14 15 18 21 23 18 16 19 24 32 34 19 29 26 15 17 24 10 13 16 18 17 38 41 62 72 71 64 62 52 34 18 19 16 21 16 15 13 14 15 16 17 16 15
18 18 16 14 12 13 12 26 41 43 40 34 37 36 37 53 43 36 34 34 26 27 38 69 80 89 94 77 63 48 39 20 18 24 24 17 17 12 13 13 14 17 20 21
19 14 15 11 10 11 13 29 38 42 63 60 51 58 68 70 97 89 83 58 64 56 43 89 98 95 99 84 68 57 48 38 20 25 27 18 18 16 13 15 16 14 18 19
27 29 21 19 14 15 17 35 40 47 98 84 71 44 81 82 91 87 80 73 77 100 100 98 96 98 99 86 62 62 66 64 30 22 26 24 19 19 17 15 16 19 20 20
28 18 19 25 29 29 34 37 22 65 89 74 80 82 84 78 86 92 94 93 98 98 97 98 98 96 97 91 72 70 81 88 80 40 23 24 23 22 22 21 20 20 20 22
79 55 56 50 50 50 44 29 25 34 89 87 90 90 100 74 92 92 99 96 98 98 98 96 97 97 97 92 86 78 90 97 96 93 72 39 59 65 68 53 44 28 26 24
100 100 89 57 40 33 30 25 36 19 77 68 62 86 67 62 85 96 98 98 93 97 98 98 98 97 98 98 97 99 100 93 97 97 95 88 85 81 87 94 86 79 68 58
76 63 32 17 16 14 15 20 19 6 5 8 41 68 68 55 59 96 99 98 100 88 96 97 98 97 96 93 95 94 98 95 96 98 97 97 97 98 97 100 98 99 98 94
48 37 32 19 13 13 12 8 6 5 5 7 27 56 92 79 74 97 98 93 98 99 93 99 97 96 96 97 93 98 98 96 98 98 98 97 91 85 71 84 95 94 96 98
92 70 30 27 20 17 15 14 12 10 11 8 14 51 100 100 100 93 99 98 100 98 98 99 98 97 97 98 98 97 97 95 98 98 100 93 82 80 76 72 79 78 74 72
79 72 53 44 35 24 14 14 14 14 12 10 22 40 99 99 100 99 99 99 99 99 98 97 98 99 100 98 96 97 91 99 91 88 98 96 92 85 84 88 93 86 78 74
71 45 39 29 27 26 16 12 11 15 16 18 13 40 76 98 100 100 97 99 100 100 100 98 98 99 99 100 99 100 98 97 100 100 100 99 100 98 99 91 82 69 75 82
29 26 23 15 14 16 10 9 8 10 15 20 21 47 56 77 100 100 99 100 98 98 99 100 99 98 99 97 99 99 100 100 100 100 100 100 99 98 92 77 69 62 42 30
26 16 11 8 7 7 18 15 11 8 7 10 19 30 68 81 94 95 97 98 99 98 97 100 99 96 98 98 98 98 97 97 98 97 100 97 95 92 68 54 43 35 31 29
25 16 12 14 26 34 45 44 28 11 7 20 35 56 99 100 91 98 100 100 98 97 95 78 88 84 83 88 95 95 96 96 96 98 98 93 70 36 23 22 13 11 9 8
24 21 29 69 76 92 63 52 44 45 61 75 68 100 100 98 100 100 100 100 100 97 79 58 53 96 89 83 72 58 72 73 50 40 32 31 31 27 16 13 12 12 11 10
43 53 64 88 99 100 90 82 74 100 63 62 36 74 100 92 100 100 100 100 98 88 89 98 78 98 90 86 86 76 64 37 27 27 26 23 21 18 16 15 14 13 13 12
92 99 92 90 88 96 100 95 98 100 95 97 100 69 55 73 89 89 82 80 89 92 88 100 86 79 75 84 85 77 80 62 40 28 24 22 20 18 18 17 16 16 15 14

GFSCGP_500_rhum_093.txt.gz
RH
96 98 74 87 100 82 68 66 55 50 46 43 37 31 26 24 22 19 24 32 32 31 36 30 30 30 31 33 35 36 44 37 30 29 8 9 12 19 14 10 12 73 94 97
97 72 94 100 98 95 95 82 68 53 47 40 35 31 24 20 20 22 26 33 36 33 27 29 29 30 34 36 36 37 46 46 32 29 8 9 11 18 11 9 36 78 97 96
96 96 100 99 99 96 90 82 58 48 43 39 37 34 26 20 19 26 21 18 20 24 25 27 27 31 37 40 41 44 42 48 31 29 8 9 14 13 11 10 39 74 95 96
98 100 100 100 98 99 72 50 42 36 31 30 30 29 25 24 25 24 13 10 8 8 10 12 19 32 43 49 51 48 45 48 32 31 10 9 15 12 10 12 34 67 73 93
100 100 99 100 100 96 75 52 44 36 28 24 22 24 22 21 22 20 11 8 8 8 7 6 13 30 47 53 54 53 52 52 36 32 13 9 14 11 10 12 23 75 77 74
100 100 100 100 100 99 85 88 70 42 29 25 21 18 18 16 13 13 13 12 10 8 6 6 10 14 36 49 56 58 60 56 48 32 14 11 14 11 9 11 11 19 39 65
100 100 100 100 100 87 68 39 32 25 33 30 24 20 17 16 15 13 12 12 10 10 7 6 5 12 32 50 68 74 70 61 55 35 16 14 13 13 9 10 11 12 16 38
100 99 99 59 45 42 43 39 21 24 24 20 18 15 14 13 14 15 11 8 7 7 6 5 5 16 40 70 82 90 82 69 58 38 17 15 14 14 9 10 11 12 13 11
99 97 80 86 78 43 26 18 29 27 21 20 20 19 15 13 12 12 10 8 7 5 4 4 5 17 42 82 98 100 84 66 53 40 18 15 14 15 10 9 11 12 12 12
63 58 48 17 32 23 27 31 26 20 19 21 21 17 19 23 25 25 16 18 14 17 10 7 7 26 60 84 98 98 81 64 46 44 20 16 16 15 14 10 10 14 14 13
20 22 21 19 23 26 28 18 16 19 20 22 16 24 26 34 52 69 62 37 31 27 25 17 13 25 80 98 100 100 82 64 49 45 20 16 20 16 17 12 13 12 10 11
35 27 25 20 15 13 12 14 19 16 25 22 17 33 41 43 52 76 78 64 59 55 35 28 26 53 100 96 99 98 98 73 58 44 22 16 21 19 18 18 14 14 17 17
84 50 32 31 26 19 18 13 20 18 25 23 37 67 58 56 57 51 68 50 79 59 75 57 51 100 96 92 99 100 99 72 63 68 68 26 23 26 20 19 20 19 18 20
98 92 60 64 77 52 32 35 21 27 29 18 73 64 76 70 61 50 60 82 97 87 93 98 63 95 99 98 99 100 91 61 62 75 75 68 28 32 36 35 29 24 23 24
100 99 89 82 79 71 59 42 38 32 25 13 67 65 40 48 46 46 66 72 95 96 100 91 98 92 98 98 99 98 98 77 79 92 96 94 63 36 40 49 56 60 56 55
100 100 100 82 78 76 50 36 28 26 22 13 9 7 28 48 74 73 78 82 98 97 87 98 98 96 96 96 97 97 100 99 95 96 97 98 97 90 77 77 94 92 95 97
99 96 96 97 86 61 33 21 18 13 11 7 5 6 24 77 96 100 91 95 91 100 99 92 98 90 92 86 94 97 98 95 92 94 98 97 98 97 97 98 97 98 99 98
95 79 54 46 33 21 17 16 14 13 10 8 9 7 15 54 100 98 100 99 97 96 99 98 98 98 94 91 100 97 98 97 96 98 95 98 97 97 96 96 93 77 75 84
70 38 75 96 88 44 26 21 17 16 15 14 12 11 16 24 82 99 100 100 99 97 99 97 96 98 98 97 98 98 98 96 99 98 96 98 100 96 99 93 90 80 82 77
58 85 93 71 73 57 35 26 25 25 16 18 17 14 12 26 50 98 100 100 100 99 100 99 98 98 98 99 99 98 98 97 100 98 97 99 100 93 94 99 94 91 88 90
92 88 70 68 50 24 16 17 15 20 22 20 18 19 17 32 68 66 99 100 99 100 100 96 97 97 97 97 98 98 99 98 100 96 94 100 98 98 96 93 99 99 94 88
69 62 50 39 28 15 20 16 20 21 18 15 11 10 12 20 88 77 88 99 96 97 99 100 95 97 97 96 98 98 98 98 98 99 100 96 100 97 98 99 99 100 99 93
42 43 33 26 16 16 15 13 12 10 7 8 7 8 7 15 40 96 100 100 100 100 98 100 97 96 98 96 96 96 96 99 100 96 100 99 96 96 99 98 97 96 80 62
25 30 23 14 21 64 60 56 41 42 31 29 27 16 23 64 94 100 100 100 100 100 100 97 100 96 90 75 74 89 95 96 92 91 96 97 94 92 85 80 62 46 42 39
30 32 40 56 56 83 86 92 68 45 59 56 43 62 53 100 98 100 100 100 100 100 100 96 99 98 91 98 97 87 73 71 71 72 56 55 79 61 48 34 23 22 19 18
54 56 64 94 68 65 89 84 77 68 83 94 74 72 53 59 100 100 100 100 100 99 98 97 88 85 68 81 95 100 95 84 76 72 67 64 59 42 29 24 22 21 20 19

GFSCGP_500_rhum_096.txt.gz
RH
29 88 72 79 100 100 99 96 92 88 71 62 56 52 45 39 34 30 30 28 28 26 33 39 37 33 28 31 29 28 28 30 34 48 43 33 28 8 10 13 13 10 18 73
38 38 88 100 100 98 98 96 95 97 81 70 60 54 47 41 37 33 31 30 29 28 25 32 37 36 32 30 30 28 29 31 34 46 45 38 30 9 10 13 10 9 40 65
33 67 100 97 100 98 94 92 100 97 97 83 62 53 49 46 42 37 31 27 24 21 21 25 28 30 29 26 32 30 32 35 36 42 44 40 32 10 11 11 10 12 59 78
52 85 100 100 97 98 87 100 100 96 93 90 70 61 53 47 44 40 34 26 20 17 17 20 20 20 19 28 29 28 35 39 43 44 46 46 34 13 11 11 9 14 64 72
49 90 100 96 98 99 97 98 98 96 92 90 75 63 52 47 43 39 36 30 23 18 14 12 11 14 13 18 21 24 37 44 49 47 48 54 38 18 11 10 10 10 50 72
74 95 100 100 100 100 100 99 99 99 95 69 49 44 39 34 30 28 26 26 22 18 13 8 7 7 6 11 21 26 41 44 50 50 50 52 48 23 11 10 9 10 17 54
86 100 100 100 99 99 98 93 80 67 60 50 39 33 30 27 24 21 19 17 18 17 14 8 8 8 6 7 22 27 49 47 55 60 54 55 53 29 11 9 9 11 11 21
89 100 100 100 100 100 100 98 79 73 64 51 42 36 30 25 21 17 16 15 13 12 11 9 9 8 6 7 19 31 55 58 66 64 58 62 58 32 12 8 11 11 13 12
100 100 100 99 100 100 98 90 59 46 32 27 28 21 20 20 18 16 14 13 13 13 11 10 10 10 8 7 24 44 60 58 76 70 61 62 58 36 12 10 10 13 12 12
100 100 100 100 86 40 61 52 63 57 33 28 24 24 28 22 20 19 18 15 12 11 10 10 10 10 8 8 18 50 70 72 86 80 65 64 57 40 13 14 11 13 14 15
100 99 97 98 90 89 74 36 32 33 30 25 21 27 28 21 22 23 16 13 13 10 8 7 6 5 8 9 18 62 78 84 98 92 73 64 53 42 13 15 13 11 11 14
100 89 63 74 78 41 43 36 32 25 24 21 23 26 22 24 30 34 23 35 40 29 22 16 13 10 7 9 25 80 85 99 100 94 70 64 58 43 15 16 17 14 14 14
100 65 50 54 35 28 27 25 20 16 22 20 26 28 26 43 41 34 32 36 49 40 41 38 47 27 19 17 31 86 100 100 100 91 68 69 65 34 18 20 17 18 16 16
100 99 90 80 48 30 20 14 16 15 20 28 33 34 52 45 40 37 44 36 30 32 60 65 42 40 36 34 64 99 99 98 100 91 75 77 71 65 32 25 21 19 20 19
99 100 91 99 88 73 61 43 26 34 36 33 34 21 42 53 33 35 34 35 45 51 77 65 63 80 43 50 78 97 98 95 91 73 77 78 75 78 52 25 30 25 22 23
100 100 100 90 81 83 77 50 51 48 46 46 25 18 23 17 26 38 46 83 96 82 93 98 90 96 90 56 96 100 96 92 95 89 94 98 92 87 83 62 25 30 32 36
100 100 100 97 91 85 75 68 61 42 31 25 18 10 5 8 25 61 79 97 94 96 99 98 99 94 84 50 59 86 96 100 84 97 98 97 94 99 100 95 74 32 34 53
98 100 99 94 100 100 72 54 34 20 14 12 11 8 8 8 11 65 92 96 97 98 100 98 96 97 93 66 65 78 98 98 95 98 98 98 98 96 97 97 97 97 90 95
96 90 86 62 56 63 49 22 18 17 17 16 14 12 11 10 10 25 85 97 100 100 98 98 97 97 98 98 98 97 98 98 95 92 99 97 95 90 88 98 97 97 96 98
49 54 71 60 87 93 87 64 48 24 20 18 16 15 15 12 11 19 51 87 100 100 99 100 95 92 96 100 99 99 97 91 96 98 98 93 96 94 98 99 98 100 98 97
59 64 75 79 97 78 74 73 65 45 33 29 24 21 18 18 16 21 39 48 88 97 99 100 100 100 96 95 98 98 99 99 98 97 96 97 97 96 98 99 96 98 98 98
62 60 61 89 80 60 68 61 41 32 27 25 21 19 17 15 13 15 98 100 92 84 100 100 99 98 98 96 97 98 98 98 97 97 98 98 95 100 96 98 100 96 91 93
56 55 57 54 39 39 40 31 26 23 19 17 18 17 16 15 11 9 33 96 100 100 100 94 91 88 92 99 95 97 98 97 98 98 98 98 98 98 99 98 98 97 97 98
55 48 40 39 28 16 12 13 11 11 12 10 14 17 12 9 7 7 8 20 31 80 99 97 92 86 83 96 100 98 99 98 97 97 98 98 100 99 97 98 98 100 100 98
42 34 30 22 15 42 59 52 44 53 43 36 33 28 22 18 19 16 50 96 100 100 100 93 90 94 90 89 95 89 90 88 85 87 94 95 91 95 96 97 98 100 97 97
28 28 27 30 66 56 67 72 87 74 54 46 55 52 49 44 33 63 100 100 100 100 100 100 98 88 85 83 78 78 67 59 71 86 84 82 82 81 74 62 47 35 38 41

GFSCGP_500_rhum_099.txt.gz
RH
2 2 2 2 12 53 100 100 99 98 98 97 72 73 67 61 51 46 40 36 32 29 28 30 28 30 24 30 30 27 21 25 26 24 27 28 37 38 36 26 8 8 13 10
2 2 2 7 46 58 100 95 92 92 100 95 100 72 71 66 58 52 47 40 38 38 36 35 30 26 24 24 32 28 23 26 30 28 27 29 36 42 37 29 9 10 12 9
8 2 10 40 64 71 69 94 100 97 100 97 90 77 72 67 62 55 50 47 43 36 32 28 26 30 29 29 40 34 33 29 32 29 26 30 38 45 44 33 10 9 10 11
86 72 90 58 61 71 67 80 100 100 97 95 99 83 99 92 86 67 57 49 42 37 34 31 28 27 22 23 28 26 32 27 33 26 25 33 42 47 48 39 12 8 8 13
100 100 100 98 63 74 75 100 100 99 99 100 97 89 99 100 95 86 60 52 47 43 37 30 26 23 20 20 18 20 25 24 33 23 27 36 44 50 50 47 14 8 8 12
100 77 100 93 92 99 100 99 99 98 100 94 91 98 100 95 100 85 86 60 50 44 40 37 34 23 18 16 14 11 21 26 32 24 32 39 45 50 52 48 17 9 7 10
72 79 90 81 87 97 99 99 99 100 96 78 99 98 100 92 88 90 70 57 49 45 40 37 33 24 17 12 9 7 12 22 30 28 35 44 45 51 54 53 22 10 7 10
89 100 85 94 92 96 100 100 100 100 97 100 99 97 100 88 67 31 28 30 29 32 29 30 27 22 18 10 7 6 8 13 19 28 37 51 46 55 57 59 26 11 7 10
100 97 95 100 100 99 98 94 100 98 100 100 96 100 99 78 37 28 24 22 22 21 21 20 22 19 15 10 7 8 8 9 16 28 32 55 48 62 60 60 30 12 8 10
100 89 100 100 100 100 100 100 100 100 99 96 100 97 97 83 40 29 23 20 18 20 18 18 16 14 13 10 11 9 9 9 15 27 41 64 50 61 71 60 34 14 9 10
97 98 100 100 99 100 98 97 100 96 63 88 100 98 94 84 60 25 26 19 20 18 15 14 14 13 12 10 10 9 10 9 20 31 61 75 59 58 72 60 40 16 12 8
98 100 100 100 100 100 98 100 98 100 97 100 95 100 98 42 25 26 35 24 16 14 12 16 15 13 12 11 11 12 12 10 39 43 69 84 68 60 78 64 44 17 15 9
100 99 100 100 94 100 100 100 99 88 100 63 57 94 100 49 22 38 48 45 27 16 16 15 12 10 10 8 8 8 10 15 50 64 85 95 84 63 78 71 40 19 16 13
100 96 100 100 100 89 80 63 41 44 47 79 49 98 78 25 40 37 36 37 42 36 32 49 33 28 27 21 18 18 14 32 57 81 90 95 97 74 84 83 32 22 19 16
100 100 100 100 77 68 78 100 99 65 90 62 57 37 37 19 20 49 34 35 33 33 35 41 41 57 41 39 45 30 28 58 96 94 91 92 98 73 83 92 68 32 25 19
97 96 100 100 100 88 62 65 60 61 70 59 54 48 43 15 25 36 27 51 62 79 69 46 44 65 68 57 38 42 37 61 99 100 99 87 96 79 94 99 90 80 32 30
100 100 100 98 100 100 100 100 94 91 72 55 43 34 23 10 7 10 24 73 74 68 81 87 60 60 100 98 66 55 48 81 87 97 93 96 84 85 97 97 94 95 82 33
98 99 100 100 100 100 85 89 77 66 61 37 26 23 16 8 7 8 12 35 82 82 83 95 92 86 97 100 99 88 57 66 80 80 100 97 89 82 96 97 94 96 98 97
98 100 100 100 100 91 87 75 58 42 36 22 15 15 12 10 10 10 15 26 49 87 88 98 99 97 97 98 100 100 77 52 60 93 87 98 99 89 93 92 91 95 98 95
80 99 81 87 75 69 76 62 45 28 23 22 19 18 16 14 12 11 15 38 32 28 82 92 99 99 99 96 97 100 98 52 80 98 97 92 90 99 96 96 74 92 91 98
60 58 62 66 65 65 75 72 71 65 46 41 30 22 18 17 17 17 19 34 71 65 59 69 87 87 93 98 99 98 99 99 82 94 94 97 93 97 93 85 85 98 92 98
56 61 56 50 61 81 67 68 66 60 58 52 42 33 27 24 19 16 17 18 98 100 84 73 84 74 68 91 92 98 99 98 100 98 100 100 100 98 95 88 97 94 97 98
50 46 46 45 48 60 67 63 62 53 40 34 32 28 24 21 21 21 18 13 33 91 92 88 82 90 74 74 74 93 92 98 98 98 99 99 99 100 99 98 86 100 98 98
49 47 43 43 46 48 42 43 40 32 25 23 20 16 14 13 11 10 10 9 9 11 31 55 59 63 100 89 84 73 63 82 95 98 98 98 98 98 97 100 98 99 100 98
56 53 50 44 36 29 25 23 23 30 33 26 17 17 18 16 14 14 12 11 8 9 38 24 47 89 100 96 91 91 86 83 80 88 92 92 94 98 98 98 98 98 99 98
48 45 39 37 25 23 29 56 71 93 84 58 47 40 34 28 29 28 22 18 14 18 34 100 100 100 100 100 99 89 83 79 76 75 75 67 63 68 72 80 83 88 96 95

GFSCGP_500_rhum_102.txt.gz
RH
2 14 2 1 2 2 3 4 7 40 51 98 99 79 98 98 84 75 66 56 47 46 41 37 31 28 30 27 26 22 22 26 32 28 26 25 21 25 27 29 36 29 23 8
6 6 21 6 2 2 2 6 86 82 73 96 98 79 93 99 82 86 77 66 58 50 42 38 34 32 28 27 23 24 21 24 36 36 29 24 24 25 27 30 40 34 25 10
11 15 83 20 3 3 4 25 35 78 100 96 95 97 95 84 100 96 91 81 70 60 50 49 42 36 29 25 26 25 26 19 31 38 33 27 24 26 26 31 41 38 27 10
18 48 100 96 3 23 87 95 89 100 93 99 95 97 99 100 82 89 90 81 70 68 57 49 43 38 35 33 29 23 25 20 16 39 39 32 26 25 25 32 43 39 30 12
6 39 64 100 14 54 99 100 100 100 82 100 100 97 98 94 98 94 99 100 73 63 58 62 50 40 34 31 28 26 21 22 16 31 35 30 20 25 22 34 46 46 32 12
51 100 92 99 95 80 100 97 91 92 94 88 84 94 80 98 97 100 97 93 83 72 60 55 48 43 38 32 30 25 23 21 16 25 28 22 23 19 21 36 46 50 34 13
100 70 81 100 98 100 94 97 100 99 90 54 84 99 97 98 99 90 85 100 100 80 73 60 52 49 44 42 34 29 27 21 15 21 27 17 25 16 17 38 46 53 36 15
85 100 77 58 93 65 80 88 87 74 68 66 99 88 90 99 97 99 99 81 69 64 64 74 74 53 47 44 40 38 31 22 14 18 24 19 25 20 16 38 47 57 38 16
96 100 94 93 64 69 87 96 100 98 100 100 99 91 99 93 99 96 79 72 69 67 69 71 84 65 49 40 33 29 23 18 11 18 20 16 21 20 19 38 44 62 42 17
100 100 96 100 100 96 100 100 99 100 100 100 91 98 97 96 97 91 86 53 37 23 27 39 47 38 34 30 26 22 21 18 12 11 14 12 20 23 21 40 44 63 47 19
100 100 92 92 100 98 97 92 99 100 100 100 93 100 100 99 97 97 88 71 45 26 23 26 32 29 24 21 18 14 18 16 11 11 11 12 18 18 20 49 53 66 51 22
100 86 95 100 100 100 99 100 100 94 100 100 100 99 97 100 99 86 43 24 20 21 22 22 28 33 26 23 18 14 12 21 12 11 11 16 15 23 24 60 56 70 61 26
56 85 100 100 100 99 98 97 100 97 97 98 99 100 99 100 98 61 44 38 31 27 16 15 20 20 18 17 15 13 13 12 12 12 11 14 14 33 47 67 58 72 73 36
100 99 100 100 98 100 97 100 97 99 100 100 100 98 100 99 69 44 42 36 39 40 38 21 12 13 13 12 14 13 14 20 10 12 12 15 19 41 69 98 69 72 79 54
100 100 100 100 100 99 100 100 100 99 99 100 90 91 98 84 32 24 37 41 32 40 34 32 28 19 17 22 30 32 31 20 18 12 24 28 23 28 62 86 83 70 88 61
100 98 100 100 100 100 98 100 99 100 100 98 98 100 85 66 39 15 29 31 25 50 55 66 53 43 29 29 40 49 28 33 30 22 30 55 67 81 86 94 84 68 98 94
100 100 100 99 99 100 99 100 99 83 69 64 61 64 65 38 20 8 6 10 27 54 59 73 73 69 62 52 54 69 53 32 39 36 40 70 85 94 99 100 84 82 100 98
93 100 99 100 100 99 99 98 100 84 90 84 71 47 37 24 14 7 8 11 12 47 70 83 81 84 81 77 89 92 97 71 49 50 45 83 100 99 100 100 91 88 99 97
100 100 99 100 100 95 99 96 86 82 92 83 50 20 14 10 9 9 10 12 14 13 40 63 76 77 82 85 85 86 98 100 72 68 62 87 100 99 100 99 85 90 84 96
100 100 100 100 100 100 99 94 86 66 44 33 23 16 15 15 14 13 12 12 14 17 15 22 38 54 77 82 89 94 97 98 98 83 96 82 83 82 96 100 98 89 85 92
84 86 94 82 70 82 79 77 72 62 55 48 34 27 23 18 18 17 17 16 17 21 29 67 66 55 59 61 81 98 99 96 99 100 92 80 84 79 73 96 97 100 91 80
86 71 65 55 50 46 65 72 74 65 65 66 63 55 46 34 28 24 21 18 19 18 35 85 81 67 65 51 38 66 97 98 99 97 99 99 73 100 98 94 98 98 97 92
52 49 45 39 38 32 33 62 65 64 61 52 53 44 36 33 31 25 20 18 18 17 15 35 57 81 72 43 25 14 32 79 84 98 100 98 99 100 99 99 99 99 98 97
42 40 38 36 34 34 34 45 60 61 57 51 42 35 29 24 22 20 18 15 13 11 9 9 10 26 23 14 20 31 55 53 53 71 88 97 100 100 97 99 99 99 99 98
46 44 42 42 43 43 42 42 41 32 29 26 27 25 21 18 19 19 17 14 13 12 11 13 13 28 51 54 40 62 94 88 80 73 70 74 87 94 98 98 99 98 98 99
45 44 44 48 46 43 38 31 27 35 46 52 53 52 48 46 41 36 32 28 25 22 17 14 21 25 50 94 100 100 100 100 96 89 80 75 74 80 89 94 93 93 93 96

GFSCGP_500_rhum_105.txt.gz
RH
30 27 15 10 6 12 5 2 2 2 2 4 12 16 15 68 100 85 77 76 79 68 61 60 58 51 45 46 38 34 30 25 26 34 28 25 25 26 21 24 26 29 30 38
89 58 21 14 14 27 30 5 3 2 8 76 35 42 12 16 48 64 63 90 79 76 68 60 59 53 48 41 37 32 26 23 23 27 33 27 27 32 28 23 29 28 30 36
74 65 100 17 14 84 81 12 4 4 94 93 96 42 22 33 68 72 75 99 100 100 99 77 67 56 48 38 33 28 23 22 26 28 34 32 32 31 32 31 28 24 30 38
78 88 71 29 99 100 54 7 4 23 92 93 78 65 26 26 72 76 96 88 97 99 98 89 70 57 49 38 32 27 29 30 29 29 28 29 34 31 36 34 31 27 30 35
87 64 29 100 100 59 8 61 72 46 69 71 94 98 80 82 78 84 95 100 100 97 92 79 64 54 49 44 41 38 32 30 41 32 36 23 23 24 27 33 30 29 34 38
13 13 55 92 99 58 98 95 99 87 90 70 60 98 100 90 96 100 99 90 90 87 57 46 47 52 61 63 61 56 42 34 26 25 30 28 24 19 22 29 28 32 32 40
14 53 46 88 99 53 85 91 100 100 100 56 26 58 96 99 99 99 95 99 98 92 61 52 54 60 64 63 61 58 47 40 30 22 24 24 20 18 24 24 28 30 33 36
75 100 100 100 58 82 55 80 91 87 50 36 31 40 59 96 96 92 96 68 74 80 67 70 72 71 74 67 61 57 52 44 36 32 31 33 19 16 19 22 32 30 30 38
100 100 76 73 100 100 69 76 66 44 59 71 62 72 80 96 92 75 82 75 74 100 91 83 72 67 72 85 86 85 73 52 43 42 39 34 20 20 20 18 35 31 29 36
100 100 88 64 64 46 58 81 53 54 91 95 82 97 98 82 95 99 97 97 94 95 86 73 72 73 71 74 84 93 90 66 48 43 37 35 34 33 43 16 35 36 33 39
100 100 100 100 100 100 65 64 74 88 100 100 100 100 98 100 98 98 97 96 81 70 56 46 44 52 64 75 78 72 94 70 56 28 43 44 42 39 50 22 30 38 37 46
100 100 93 91 100 100 92 95 97 99 100 99 98 100 100 98 98 99 97 93 76 75 66 60 50 40 32 25 26 32 41 31 25 24 44 48 33 37 32 16 34 43 50 53
78 98 100 100 100 100 100 100 100 99 100 100 100 100 100 100 99 95 79 44 33 30 23 22 24 28 29 32 30 25 24 19 21 30 34 33 19 18 21 16 28 56 63 64
64 95 100 100 98 100 100 100 100 100 96 100 100 98 100 96 97 93 56 38 41 39 37 27 22 18 18 20 21 20 18 18 18 34 28 19 16 20 16 38 39 68 83 65
98 97 96 100 100 100 100 100 100 100 100 100 100 100 100 98 65 37 34 42 40 38 33 37 33 30 24 19 13 14 20 19 16 16 14 14 20 16 32 42 46 63 82 60
100 98 100 100 100 100 98 100 100 98 100 100 100 97 97 89 79 41 17 18 34 26 30 39 47 56 42 30 30 26 27 34 26 29 29 20 20 19 26 42 65 64 77 84
100 100 100 100 100 100 100 100 98 99 100 90 100 100 98 91 75 25 12 8 10 30 61 52 63 69 69 64 50 39 38 37 48 41 31 32 19 21 37 55 77 91 99 100
93 100 100 99 100 100 100 96 95 86 95 96 81 83 78 94 67 34 13 7 11 12 17 48 73 81 77 77 91 90 60 56 99 97 80 40 35 30 37 70 92 96 97 100
93 88 100 100 100 96 100 100 100 100 100 92 91 89 82 74 38 21 13 10 12 14 15 15 18 44 57 77 77 81 88 82 82 100 92 66 51 37 41 72 96 100 99 98
100 100 100 97 99 100 98 89 81 92 86 83 79 83 78 33 15 14 15 16 15 15 14 18 21 46 51 56 62 64 76 89 91 92 99 98 77 99 56 75 84 99 100 97
100 100 100 100 100 99 98 98 81 68 68 59 48 28 21 19 19 18 18 18 17 17 18 19 22 58 63 57 60 40 30 51 82 94 98 99 98 97 99 96 93 84 100 97
83 85 77 80 59 51 52 60 67 65 64 66 65 64 62 50 44 34 28 24 22 20 19 18 16 20 26 24 53 28 21 18 24 67 96 97 99 99 76 87 100 99 94 85
86 69 66 44 41 31 29 25 29 58 62 61 61 59 59 56 48 42 35 27 20 18 18 21 21 20 22 22 21 28 14 13 30 56 43 85 98 99 99 100 100 99 99 100
61 56 47 40 35 30 26 27 23 30 51 62 62 61 52 42 35 28 24 21 18 14 13 13 12 11 11 12 11 11 11 10 23 54 68 71 55 85 97 100 98 98 98 99
60 51 43 37 31 26 28 33 37 40 44 48 45 39 36 33 30 30 27 24 23 21 20 18 15 13 11 9 9 9 14 25 37 46 73 80 74 66 56 68 89 94 100 100
53 44 43 44 40 36 38 40 40 38 33 36 38 41 51 58 56 50 48 47 45 45 40 35 32 29 24 24 21 18 12 24 56 78 86 88 93 92 84 76 66 62 68 75

GFSCGP_500_rhum_108.txt.gz
RH
5 12 27 55 48 71 100 57 28 10 4 3 3 3 3 3 4 4 6 51 97 93 83 89 84 85 74 56 63 53 42 38 44 39 37 36 35 34 30 25 24 28 28 26
16 17 79 100 99 78 32 89 76 21 5 2 3 3 2 2 3 4 4 8 50 99 100 99 99 99 89 63 59 60 47 41 39 37 36 36 38 33 30 28 32 32 31 28
35 30 88 96 84 100 29 83 95 41 12 6 74 46 13 3 3 4 4 6 42 91 100 96 95 82 74 62 55 58 46 45 36 30 28 29 32 34 33 36 42 37 30 28
41 68 99 100 85 90 16 40 88 99 60 26 53 60 53 34 11 16 6 22 91 93 96 91 80 73 70 62 57 52 51 47 37 28 44 32 31 31 32 31 34 37 33 33
70 68 98 58 63 52 99 99 90 54 21 96 67 96 56 100 49 64 60 88 100 92 92 82 69 71 61 58 58 57 54 49 40 42 77 63 56 40 33 25 28 37 38 37
25 23 24 47 89 93 42 34 80 42 24 56 38 55 59 100 79 68 72 99 97 94 72 67 80 71 52 50 54 57 56 53 49 53 46 69 81 50 42 31 26 33 35 38
34 53 73 95 99 43 54 78 99 91 66 36 74 86 62 93 100 64 38 67 65 52 88 76 71 82 69 55 57 57 57 60 56 54 50 43 59 50 45 39 33 32 34 36
80 87 62 98 88 51 74 97 79 100 98 85 100 78 56 84 98 90 64 62 85 84 50 50 86 89 90 77 62 64 76 70 58 52 55 48 41 53 32 31 26 31 35 35
100 99 83 65 30 67 71 80 100 100 100 93 95 53 59 48 64 99 97 93 98 98 100 100 100 100 92 76 83 90 81 76 71 71 57 45 48 54 50 49 51 26 36 39
100 84 67 78 92 93 57 90 98 100 99 100 100 100 97 95 70 96 98 94 98 96 98 98 96 98 100 96 95 88 80 82 71 65 59 54 55 65 74 61 66 30 36 40
94 100 93 91 82 57 65 79 80 66 70 97 100 97 98 99 97 95 100 74 89 74 90 96 97 98 100 90 78 75 72 78 83 86 78 74 79 72 65 76 74 51 57 44
80 100 100 100 100 100 97 49 73 96 99 100 100 100 100 100 99 95 93 98 100 100 97 88 87 80 67 58 72 72 71 75 79 86 88 94 89 72 71 77 77 94 96 77
34 78 99 100 100 100 100 92 93 100 100 100 100 100 100 100 97 100 98 99 98 86 66 66 72 66 50 40 35 34 42 45 64 73 63 86 94 73 64 71 84 95 97 73
26 50 89 96 91 92 100 100 100 100 100 100 99 100 100 100 100 98 98 99 66 42 36 30 28 27 25 26 34 30 24 34 38 27 56 76 47 27 40 54 75 88 87 59
92 82 93 100 98 99 99 100 100 100 100 100 99 99 98 100 98 99 100 76 47 40 38 33 30 26 30 28 23 20 24 25 23 22 19 20 23 30 33 46 51 63 47 38
97 89 100 100 91 88 100 100 100 100 100 100 100 100 99 90 72 41 22 25 27 30 34 32 30 33 32 35 33 25 20 17 18 21 21 25 30 24 24 26 32 39 50 59
94 100 100 100 100 99 100 100 100 100 100 100 100 97 87 95 71 37 17 10 10 13 27 50 49 57 64 58 51 48 41 28 24 25 26 31 42 61 24 28 94 66 97 97
97 94 100 100 98 100 100 100 100 100 100 99 98 90 81 76 80 47 29 13 8 11 13 14 35 55 68 76 79 77 73 67 51 45 43 41 43 55 33 23 41 92 78 48
93 94 100 100 100 95 95 100 96 91 95 92 88 78 85 87 90 66 45 23 11 11 14 15 15 15 21 47 60 69 78 93 94 78 44 72 96 88 68 43 33 78 44 98
100 100 100 100 100 100 97 100 100 100 98 94 96 96 85 82 73 44 25 16 14 16 16 17 18 19 23 31 48 51 56 65 74 82 80 75 71 95 91 98 68 93 70 100
100 100 100 100 100 98 91 98 93 77 73 75 69 68 49 38 41 32 21 19 20 20 20 19 19 18 20 40 37 48 34 26 30 27 46 76 91 100 100 96 80 94 99 100
100 100 100 100 96 92 87 66 66 66 62 66 66 64 62 56 47 41 39 37 34 31 28 24 21 20 20 19 19 18 18 17 15 13 12 14 69 92 97 98 99 90 99 98
100 99 89 75 74 59 34 28 26 25 36 56 59 61 60 59 59 59 58 54 51 46 39 30 23 25 28 27 25 21 18 18 18 17 15 30 37 34 53 99 99 98 99 99
99 90 73 63 40 33 31 25 23 21 23 31 40 52 58 59 59 54 48 44 39 33 28 24 22 19 14 14 13 13 11 10 12 14 15 20 53 66 74 52 77 96 99 100
87 78 61 54 47 36 28 22 21 22 28 36 39 42 46 47 45 43 39 32 26 22 22 20 20 19 16 15 16 14 12 12 12 10 10 16 29 61 79 75 77 76 78 94
50 56 68 50 39 34 26 26 27 29 36 38 39 38 41 43 45 47 50 54 53 46 43 42 40 38 38 37 33 30 26 21 17 14 12 10 9 13 46 77 90 84 76 77

GFSCGP_500_rhum_111.txt.gz
RH
2 2 4 8 16 23 44 79 54 43 40 31 18 17 11 5 4 4 5 5 5 94 86 100 99 86 89 70 64 64 70 59 61 56 53 48 45 47 43 39 37 32 28 26
3 5 16 36 46 37 39 58 57 59 53 100 60 42 20 10 5 4 4 5 5 28 100 100 92 87 77 62 63 58 53 68 63 59 56 50 44 45 42 38 37 34 28 33
4 14 25 55 45 50 48 77 82 98 43 89 96 100 23 12 7 4 4 4 5 5 86 98 96 87 71 64 58 57 50 56 61 60 48 51 44 40 44 43 41 39 36 36
18 18 25 57 62 69 44 87 72 25 61 95 100 74 10 6 5 4 4 4 4 5 10 99 99 86 74 58 55 56 58 56 62 60 51 50 54 41 38 35 33 34 36 38
39 27 22 19 21 31 46 62 73 74 81 96 100 66 73 92 36 18 4 4 5 5 5 17 50 80 70 66 79 73 70 65 63 66 59 52 62 80 47 42 38 43 34 38
72 55 47 57 68 60 76 61 52 59 52 56 56 32 89 89 99 65 25 3 4 6 6 9 38 66 46 52 56 64 75 78 69 70 62 54 57 88 96 66 70 49 42 45
91 99 60 72 89 49 43 47 96 100 60 24 60 80 100 98 98 100 90 36 14 16 19 13 14 47 56 52 66 76 75 77 77 72 81 81 74 68 53 95 78 54 53 50
78 54 49 70 41 37 63 79 100 99 100 98 92 90 80 81 100 98 91 77 59 40 41 33 23 48 58 77 71 59 50 58 73 66 72 84 72 73 64 64 97 80 49 45
87 79 57 79 74 72 78 100 99 100 100 100 100 100 77 60 82 96 86 63 60 84 59 77 69 49 43 57 53 63 58 67 63 65 71 77 75 66 60 56 74 86 70 34
66 74 70 88 86 100 93 98 100 100 100 99 100 100 100 100 75 97 99 80 56 67 76 97 95 98 94 87 72 60 56 60 62 65 86 79 86 73 64 77 60 73 80 74
44 45 96 91 100 86 59 62 85 99 95 93 100 100 100 100 100 100 99 98 88 71 73 68 59 76 96 100 100 90 84 94 85 84 79 76 71 70 92 90 76 83 92 87
36 35 59 97 100 100 99 58 51 73 95 100 100 100 100 100 94 100 97 97 98 98 99 99 98 99 99 78 94 98 95 85 84 90 82 77 73 77 69 65 80 86 96 97
31 30 30 67 86 91 93 95 60 99 100 100 100 100 100 100 98 96 100 99 98 99 93 89 97 93 94 97 98 97 97 89 73 71 68 66 70 80 81 83 89 94 96 95
24 30 56 66 88 92 93 84 97 100 100 100 100 99 100 100 100 100 99 100 99 100 99 100 94 89 71 68 67 65 63 54 44 54 60 72 81 85 89 89 83 90 96 95
52 85 74 76 97 92 99 96 99 100 100 100 100 100 100 100 100 100 100 99 99 69 45 37 35 38 36 30 28 28 33 43 44 29 28 43 45 55 78 91 90 96 76 50
100 100 99 100 100 90 98 94 99 100 100 100 100 100 100 100 100 92 99 96 74 40 38 35 35 32 30 29 29 30 27 22 26 32 33 30 28 28 25 26 34 36 32 44
100 100 100 100 100 100 100 100 100 100 100 100 100 100 98 58 28 17 9 9 13 23 32 45 47 46 39 32 37 44 46 42 27 20 18 21 25 24 26 30 100 45 41 55
100 100 100 100 100 100 99 100 100 100 99 99 100 100 93 96 74 34 17 9 10 13 15 18 28 26 34 50 58 62 59 56 56 48 34 29 23 34 27 33 40 77 25 29
100 100 100 100 100 100 100 98 91 99 99 100 99 97 90 91 87 68 50 29 15 10 12 14 15 16 16 16 31 48 54 64 68 73 69 56 48 52 45 35 99 95 53 99
100 100 100 98 100 100 100 100 100 100 97 94 92 98 96 93 85 72 84 69 41 17 14 15 16 17 19 18 23 44 58 50 45 54 62 68 79 55 48 59 72 78 71 45
98 100 100 100 100 100 100 100 100 96 91 92 84 72 56 39 44 53 40 24 20 20 21 20 20 19 19 19 20 24 26 38 35 23 17 17 39 59 68 63 63 75 69 60
100 100 100 100 100 100 98 92 90 82 73 71 71 70 66 64 62 57 50 43 39 37 37 37 35 31 27 24 22 22 22 22 21 19 17 16 13 12 36 71 71 84 94 93
100 100 100 100 100 88 74 36 33 34 35 43 52 55 55 57 57 56 57 57 55 55 54 50 48 45 40 36 34 34 32 30 25 22 22 21 18 17 15 14 22 41 85 100
100 100 100 100 99 81 46 32 28 26 21 21 25 31 36 43 50 49 49 50 52 53 50 44 40 37 34 34 31 27 21 18 17 16 13 13 14 13 13 12 15 20 26 36
100 100 100 98 78 66 48 39 32 27 23 20 20 23 28 32 36 38 40 43 44 46 43 38 32 28 26 23 18 16 13 14 15 13 11 12 11 11 10 10 11 14 29 53
100 100 100 93 66 56 49 40 31 24 15 20 25 26 26 32 36 38 38 38 39 39 38 37 35 32 29 26 25 24 22 20 19 18 17 15 15 14 12 11 10 9 8 14

GFSCGP_500_rhum_114.txt.gz
RH
2 2 2 1 2 2 2 4 11 12 25 21 6 17 15 13 4 3 3 4 6 6 6 42 98 86 76 69 50 55 57 57 57 58 64 58 50 58 54 49 42 40 39 37
2 1 2 3 12 14 12 17 22 38 30 43 36 34 65 41 22 16 7 4 5 6 6 12 100 95 77 65 57 59 61 59 62 66 64 61 59 53 57 54 47 43 42 41
2 6 16 20 18 23 21 26 37 30 32 37 42 21 30 40 72 35 27 13 8 7 7 8 100 100 81 67 74 66 94 71 67 76 70 68 67 57 51 56 52 49 48 43
9 31 21 21 32 45 50 39 33 32 48 59 62 34 50 77 49 23 36 28 13 7 7 6 65 83 74 70 78 80 93 70 71 69 68 73 74 67 64 56 58 61 57 44
32 29 20 27 36 47 52 40 46 42 46 50 90 86 56 85 89 94 99 28 19 8 8 6 17 93 86 71 79 85 88 78 65 63 69 77 73 93 89 64 59 50 48 38
42 32 27 29 50 44 35 37 49 89 100 46 26 38 59 100 100 100 100 80 46 21 8 7 6 37 89 89 79 79 90 86 49 66 73 78 75 81 94 90 92 82 46 60
45 47 45 34 58 42 38 60 63 78 93 99 75 68 93 96 100 100 100 81 49 41 12 6 6 9 30 95 85 80 86 81 86 84 86 83 86 82 96 94 100 98 89 67
38 49 48 53 67 59 59 70 96 98 100 100 100 100 100 78 76 90 98 100 82 60 36 19 5 5 9 11 39 74 90 95 94 91 86 84 94 96 96 85 72 78 95 98
32 47 53 55 60 65 72 88 89 95 100 97 100 100 100 92 72 78 81 86 94 91 67 39 29 12 5 5 6 13 48 62 76 63 78 84 99 96 97 96 87 84 75 94
32 32 40 53 66 83 91 72 80 83 98 100 97 100 100 100 99 99 99 98 93 71 71 54 44 39 34 18 14 22 31 44 58 71 85 83 83 94 94 97 92 96 91 90
32 32 36 43 52 72 98 84 79 63 87 100 99 100 100 100 100 100 100 100 96 81 58 50 48 53 43 46 37 48 65 84 86 83 77 72 73 88 97 96 97 94 75 66
35 28 26 29 35 61 72 84 95 52 87 100 100 100 100 100 100 100 100 100 100 100 61 76 85 90 58 54 36 29 47 67 64 67 55 66 85 85 82 92 95 99 94 69
39 30 22 32 71 83 99 97 86 67 100 100 100 100 100 100 100 100 100 100 100 100 74 99 100 92 88 98 98 100 87 83 78 47 58 74 84 89 85 81 80 80 92 93
50 34 26 68 58 64 94 100 99 99 100 100 100 100 97 100 100 100 100 100 100 100 98 99 96 91 84 69 90 90 91 88 81 69 89 99 83 78 74 66 65 70 73 83
61 60 94 72 61 61 99 100 99 90 94 100 100 100 98 100 100 100 100 100 100 100 99 98 94 86 88 88 60 50 52 60 72 76 79 85 77 59 55 65 84 89 84 87
93 96 100 76 62 69 99 100 100 100 100 100 100 100 100 100 100 100 100 100 100 100 86 67 59 48 40 40 35 33 34 32 29 31 35 41 46 44 27 33 51 77 89 94
100 100 100 100 100 95 100 100 100 100 97 99 100 98 95 52 46 64 52 85 96 98 90 72 64 63 55 55 61 67 59 52 44 44 34 27 26 31 32 34 32 27 28 30
100 100 100 100 100 100 100 100 100 100 100 100 100 100 100 92 52 20 15 26 37 42 38 49 46 33 29 38 46 54 60 64 68 73 71 59 39 28 24 24 28 27 26 26
92 100 100 100 100 100 99 99 97 100 100 100 100 100 100 92 88 75 51 28 13 12 15 19 20 24 27 26 22 23 31 45 42 62 66 71 80 73 46 36 37 37 41 36
92 100 100 98 93 100 99 97 93 96 100 98 98 95 99 96 93 93 92 74 49 34 20 15 16 16 17 24 23 25 41 58 46 42 37 32 43 54 75 86 67 53 56 44
88 100 100 100 95 82 95 93 87 96 93 91 87 80 78 74 60 60 55 36 33 27 23 22 22 22 22 23 23 22 20 22 23 22 38 34 20 16 21 42 61 75 69 64
98 100 100 100 100 100 100 100 98 87 87 86 80 72 66 64 61 56 51 49 47 45 44 42 41 40 40 38 37 34 31 29 28 28 26 25 22 20 17 15 14 30 55 59
89 100 100 100 100 100 100 100 77 75 80 66 60 58 55 55 56 55 54 55 56 52 49 46 47 46 44 44 42 41 39 38 36 35 32 30 28 28 24 20 17 16 14 16
96 100 100 100 100 100 100 92 40 29 26 24 23 24 25 28 30 32 36 41 41 41 40 37 38 41 42 41 42 41 40 38 35 31 30 27 26 22 18 13 13 14 13 12
100 100 100 100 100 100 100 96 41 32 28 26 22 22 23 23 23 24 26 28 30 31 31 30 32 33 35 35 36 36 35 28 26 22 18 17 18 19 16 13 13 14 13 11
100 100 100 100 100 100 98 76 51 40 31 26 20 18 16 16 17 16 17 19 24 31 33 35 36 36 35 37 38 38 37 36 34 31 27 24 20 18 16 14 13 14 14 13

GFSCGP_500_rhum_117.txt.gz
RH
6 4 2 1 1 2 3 4 4 2 5 3 3 6 8 8 4 11 5 3 2 2 2 6 8 9 10 20 42 51 54 58 61 52 48 57 57 54 53 58 57 52 46 41
2 2 2 2 2 3 12 10 8 5 9 20 18 11 32 40 47 19 17 6 4 2 1 2 7 8 10 21 34 57 53 55 54 58 49 61 69 63 55 54 56 56 50 45
2 2 2 2 10 13 15 11 6 11 18 28 15 11 34 38 25 26 28 29 15 6 2 2 3 8 14 33 34 68 65 52 56 54 58 73 73 75 66 63 58 60 59 52
2 2 4 21 21 18 22 11 27 49 56 66 49 25 19 46 71 60 75 89 70 28 16 6 9 8 9 77 63 79 90 81 80 67 72 76 86 91 94 91 90 72 62 58
2 3 15 29 27 23 23 26 40 44 85 89 98 50 45 81 99 100 100 100 85 42 46 28 12 8 8 55 99 98 100 99 90 94 94 80 97 98 97 96 95 94 78 68
3 7 33 28 31 27 23 29 37 39 65 89 100 99 76 81 64 90 100 96 79 92 78 78 19 10 8 19 100 100 100 100 100 95 96 73 89 97 97 96 96 95 86 86
7 13 29 29 37 37 35 26 35 32 57 91 99 95 91 80 100 93 100 100 98 98 100 100 38 15 16 23 100 100 99 100 100 98 100 84 84 95 100 97 95 95 98 88
6 20 31 28 35 36 45 41 35 34 50 64 98 100 100 100 94 75 95 100 82 88 100 100 63 17 13 65 100 100 100 99 98 99 100 89 85 82 98 96 95 93 99 88
5 20 36 31 32 48 51 54 38 38 40 63 98 100 100 100 100 96 93 100 100 96 76 87 69 38 13 39 98 100 100 100 100 99 96 84 85 93 94 97 92 100 96 87
9 12 38 32 29 34 37 54 53 69 68 68 99 95 100 100 100 100 100 100 100 96 94 60 44 45 19 9 42 85 98 100 99 95 90 79 79 74 95 90 94 97 93 94
12 17 27 29 24 25 46 66 76 82 77 91 95 100 100 97 98 100 100 99 100 100 99 87 56 38 22 15 13 20 32 47 92 95 97 96 86 66 86 81 88 96 98 97
15 21 20 30 22 49 88 83 94 96 68 92 100 100 100 100 100 100 100 100 98 100 93 100 71 47 42 23 12 15 15 16 19 27 28 23 29 45 56 60 93 83 89 95
18 19 23 28 27 85 86 84 100 99 97 100 100 100 100 100 100 100 98 100 100 100 98 70 95 88 72 51 37 33 31 37 28 28 37 54 46 67 90 90 98 100 99 96
18 19 25 30 22 59 87 88 100 97 100 100 100 90 100 100 100 100 100 100 100 100 100 100 100 90 82 65 59 51 49 84 72 62 81 98 95 86 97 98 83 92 98 96
30 29 36 68 46 66 90 82 99 83 67 85 98 99 95 100 100 94 100 100 100 100 100 100 96 100 100 92 91 61 86 73 89 85 71 58 52 59 55 59 76 96 82 79
46 61 64 94 69 80 94 100 100 87 65 92 100 100 100 100 100 100 100 100 100 100 100 100 96 100 100 98 98 99 96 86 72 91 95 84 78 81 83 70 73 79 74 58
48 70 73 96 98 98 100 100 100 100 98 97 97 95 96 97 94 95 96 100 100 100 100 100 100 99 99 98 98 98 82 79 78 67 66 50 39 41 49 56 59 59 44 32
46 75 80 90 100 100 100 100 100 100 98 94 99 100 94 73 34 26 35 45 64 76 96 98 75 51 49 60 61 63 64 64 67 69 69 71 62 50 36 27 27 31 29 26
40 74 92 82 99 100 100 100 100 100 100 98 99 100 100 100 100 93 67 35 18 18 19 22 20 17 18 18 18 20 30 42 45 49 49 51 55 59 70 71 56 40 32 28
13 47 90 94 97 100 100 100 100 100 100 100 100 100 99 100 96 82 68 55 56 39 26 19 16 16 16 18 21 20 19 19 21 37 46 46 43 33 26 27 37 74 85 66
6 33 90 100 94 100 100 100 100 100 100 100 100 90 82 63 56 51 49 45 37 34 32 34 32 31 30 30 30 29 28 27 25 25 24 23 22 22 22 21 17 15 20 49
9 31 92 100 100 100 100 100 100 100 97 94 94 89 74 70 67 65 62 58 57 56 55 53 52 49 47 45 44 44 44 42 41 39 37 36 34 33 31 29 28 26 21 18
22 38 92 100 100 100 100 100 100 100 85 88 78 69 62 62 61 59 56 52 50 49 48 47 44 41 38 36 34 34 34 36 38 38 37 37 37 35 33 30 28 26 23 20
99 92 100 100 100 100 100 100 100 95 70 63 54 42 35 27 26 26 25 26 28 29 28 28 27 26 26 25 26 25 28 26 24 24 28 32 31 30 28 25 27 28 24 20
100 100 100 100 100 100 100 100 100 76 37 31 27 26 26 23 19 16 15 14 12 12 13 16 19 22 24 25 26 28 29 28 26 28 30 32 32 32 30 27 24 20 18 18
73 100 100 99 100 100 100 100 100 71 40 33 30 23 18 17 17 16 15 14 13 12 13 13 14 15 18 22 25 30 30 30 31 31 32 32 32 32 32 32 30 28 25 22

GFSCGP_500_rhum_120.txt.gz
RH
55 41 17 2 2 2 2 1 1 4 4 4 12 13 13 2 2 8 5 4 5 2 2 1 2 3 3 9 12 15 50 60 55 48 44 46 40 50 52 47 54 52 51 43
37 9 2 2 2 2 2 2 4 5 10 22 29 36 34 20 35 29 28 32 26 21 11 5 2 2 2 5 9 12 48 62 67 49 54 59 54 55 59 54 53 54 54 52
9 3 2 2 2 2 4 8 12 11 24 30 38 36 53 34 31 44 65 87 86 75 66 76 13 2 2 3 8 10 37 72 67 67 69 59 63 55 57 58 56 56 53 54
3 2 2 2 2 3 9 18 15 20 27 30 48 31 45 57 67 69 70 94 99 64 73 92 76 10 3 4 8 9 15 66 88 81 70 59 61 57 56 63 65 67 66 64
3 3 2 2 3 8 20 22 17 25 28 33 37 49 58 64 69 78 71 70 63 78 60 44 42 28 6 5 8 8 13 78 100 89 63 58 81 72 69 72 70 77 81 81
3 3 3 3 4 18 27 27 22 23 24 28 28 37 54 67 70 62 66 80 89 77 79 63 65 39 14 7 10 9 13 98 100 95 70 70 84 81 74 83 95 83 93 85
3 3 3 3 8 32 32 36 45 32 23 60 30 46 60 74 81 84 74 100 99 91 96 77 69 60 57 33 13 11 27 100 95 90 76 55 79 96 85 98 100 94 94 96
4 4 3 5 16 27 32 39 45 48 24 24 30 58 66 80 88 91 93 99 95 98 99 94 99 97 96 49 20 27 100 99 96 100 90 100 100 95 96 98 88 89 90 95
4 4 4 7 16 29 27 26 36 50 30 23 35 58 66 87 99 98 100 100 100 85 100 100 83 98 86 62 36 57 98 99 99 94 100 95 100 100 100 96 87 90 92 95
4 4 5 11 24 23 27 23 50 76 59 63 73 71 66 84 98 100 99 100 100 99 100 100 100 75 90 66 70 84 96 98 98 95 97 92 85 85 80 87 91 94 96 95
4 3 6 20 22 23 19 26 76 95 100 96 95 73 66 89 89 99 98 100 100 100 99 94 100 75 66 62 91 97 90 95 69 96 96 96 92 86 95 88 94 96 92 94
4 4 6 19 26 17 16 31 81 99 100 100 100 80 86 98 92 100 100 96 100 100 100 96 84 60 52 34 42 59 98 79 100 94 99 99 98 86 79 74 81 83 83 90
4 4 6 16 19 35 36 73 98 100 100 100 100 93 80 100 98 100 100 99 96 100 100 92 74 57 37 33 13 20 31 81 96 99 97 99 99 97 96 100 91 97 92 63
5 3 9 15 17 28 54 87 88 100 96 100 100 98 96 100 93 94 100 100 100 99 84 96 100 67 50 26 14 12 15 20 29 33 36 33 30 32 40 32 28 23 52 74
6 4 11 19 21 26 47 60 81 85 81 81 94 92 100 100 100 100 95 100 100 100 100 99 100 99 100 56 38 30 11 12 16 17 22 28 35 34 37 60 62 41 50 87
6 4 17 35 36 49 54 68 75 83 73 84 89 98 100 100 99 90 100 100 100 100 100 100 100 100 100 90 67 63 48 33 42 46 52 100 76 47 46 63 93 97 84 72
7 3 12 44 70 65 69 99 99 94 80 68 92 96 98 100 89 96 98 99 99 100 99 100 100 100 100 100 100 100 93 90 98 88 71 91 76 90 91 80 58 56 49 65
8 3 12 54 84 80 92 100 100 98 100 98 100 100 100 76 31 27 30 39 44 70 80 99 95 89 95 97 97 100 99 99 100 99 97 81 81 85 82 69 64 65 73 76
6 3 8 49 88 89 83 100 100 100 100 98 100 100 99 99 94 95 89 64 49 27 18 23 32 49 54 53 52 55 59 60 59 65 63 60 50 46 51 60 79 82 68 44
5 4 5 36 93 93 91 97 100 100 100 100 100 99 98 92 95 83 67 47 37 47 29 44 23 19 18 19 20 22 20 19 19 20 23 30 36 30 29 36 34 26 23 49
5 5 5 18 78 98 100 100 100 100 100 100 100 100 88 72 64 53 48 48 47 46 43 42 39 36 34 34 34 32 33 33 32 31 29 27 27 29 31 31 29 26 24 19
5 6 8 13 79 100 100 100 100 100 100 100 98 100 100 83 69 68 66 64 63 60 59 57 55 53 52 50 48 46 45 44 44 43 42 40 39 38 36 35 34 33 31 29
8 10 11 20 59 100 100 100 100 100 100 100 98 94 89 78 66 59 57 54 49 46 42 37 36 33 30 25 24 22 20 18 17 18 18 17 16 21 24 26 28 29 29 28
8 24 37 39 79 100 100 100 100 100 100 100 94 84 72 62 47 37 33 30 29 25 20 19 17 15 15 15 15 14 13 12 12 13 14 13 14 13 11 11 14 16 19 21
12 90 100 100 100 100 100 100 100 100 100 100 78 45 36 32 30 28 24 20 17 16 15 14 12 12 11 10 9 8 9 8 8 7 8 10 12 17 19 22 24 24 24 23
11 35 96 99 100 100 100 100 100 100 100 85 56 40 35 31 27 20 18 17 17 16 14 13 13 12 11 11 11 10 11 12 13 15 17 18 18 18 20 21 24 24 26 27

GFSCGP_500_rhum_123.txt.gz
RH
26 26 26 38 27 5 2 3 2 2 2 2 4 5 6 9 23 23 20 29 36 32 18 6 1 1 1 1 3 6 10 15 14 21 80 67 50 52 45 37 38 47 44 45
32 32 33 28 9 2 2 2 2 2 3 3 6 20 26 29 34 41 46 52 25 36 37 38 43 40 6 2 1 2 8 9 14 16 73 88 63 63 60 45 41 44 46 45
36 35 32 11 2 2 2 2 2 2 3 10 14 24 100 77 45 41 40 66 48 20 32 33 30 31 32 37 6 2 4 5 11 14 58 88 84 74 58 48 42 43 49 46
36 34 21 3 3 2 2 2 2 5 16 14 19 23 96 38 24 32 47 80 67 36 31 37 39 30 36 43 49 4 3 8 9 12 22 62 90 70 37 48 56 50 49 50
35 33 7 3 3 2 2 2 3 16 24 30 20 49 100 28 25 44 45 61 71 46 41 57 47 57 52 53 64 46 3 7 9 13 23 35 71 76 65 70 62 54 53 53
42 22 4 4 3 2 2 3 8 27 40 40 93 81 61 23 34 43 42 41 53 62 63 51 57 44 55 49 40 68 5 7 8 10 23 54 68 94 82 76 68 64 63 58
34 10 4 4 3 2 2 4 14 65 68 80 100 67 24 29 42 51 55 60 66 61 52 60 94 86 97 62 52 31 10 7 9 10 23 74 64 100 89 73 95 75 77 65
26 6 4 4 3 3 3 6 28 32 25 37 40 26 36 48 50 59 76 84 78 61 62 84 96 98 100 69 70 69 42 15 12 17 25 68 74 84 93 51 97 96 90 80
14 5 5 4 3 3 6 10 22 25 28 54 78 64 60 62 58 72 94 91 77 65 60 99 99 92 85 100 100 67 49 22 12 42 42 63 76 69 72 97 97 98 87 85
10 6 5 4 3 3 9 14 21 33 51 80 99 82 93 78 69 66 79 92 81 64 54 95 100 80 85 99 95 100 67 11 74 72 93 85 80 84 86 99 97 92 96 95
7 6 5 4 4 5 12 15 25 40 73 93 77 86 83 77 75 84 79 95 87 74 80 100 100 84 69 84 99 87 80 32 58 98 100 99 93 99 84 91 92 98 97 97
7 6 5 4 4 4 13 15 16 29 73 98 100 85 90 84 82 87 83 90 92 88 94 80 78 96 84 87 97 67 33 27 49 99 83 87 84 96 97 96 95 94 96 98
7 6 5 5 7 11 19 27 17 30 55 85 100 93 99 88 90 92 92 89 85 92 100 99 58 85 91 98 74 96 50 46 36 78 76 79 95 98 98 99 97 97 97 97
7 6 6 5 3 5 16 24 29 41 61 97 86 94 87 100 100 93 81 98 98 98 99 100 96 57 78 67 68 86 91 91 90 97 99 84 79 97 99 97 96 100 91 100
8 7 6 5 3 5 14 41 40 42 68 83 62 79 88 100 98 91 80 84 100 100 100 100 100 99 95 46 47 31 19 28 50 65 92 100 100 74 87 92 99 94 67 65
9 8 7 6 4 6 13 24 33 60 66 65 60 69 87 100 91 97 89 85 97 100 100 100 100 100 83 97 47 38 29 15 15 17 24 56 88 93 77 26 18 22 27 26
10 9 8 6 4 4 15 38 51 65 69 71 72 79 81 93 97 62 94 81 83 76 99 98 99 100 100 100 76 43 51 86 42 17 13 15 18 29 22 37 39 35 37 37
12 10 9 6 4 7 15 45 59 86 83 83 77 84 91 100 97 41 25 64 58 56 26 89 92 99 98 100 100 80 67 66 58 31 26 84 84 62 67 78 68 64 77 81
14 11 10 6 4 17 28 60 78 98 97 96 99 94 95 100 94 94 91 90 78 67 67 32 25 33 75 52 49 66 89 100 100 100 100 98 98 87 81 79 82 87 90 84
16 12 9 6 4 14 38 70 93 100 100 100 100 98 93 100 100 90 80 70 46 32 30 27 54 46 24 22 22 24 23 22 26 40 51 64 62 52 45 43 39 35 36 41
14 9 6 4 4 8 17 57 90 100 91 96 100 100 100 99 81 68 61 55 48 50 50 48 47 46 45 44 43 42 40 38 36 35 33 31 29 28 27 29 30 31 30 29
9 6 5 5 5 41 60 62 89 98 100 100 100 100 100 98 90 78 69 65 62 60 59 57 54 53 50 47 44 40 38 35 34 32 31 30 30 31 31 31 31 31 31 32
6 6 6 8 15 39 60 62 79 99 100 100 100 100 100 100 96 80 70 60 55 49 43 36 30 27 24 21 19 17 15 13 11 9 8 8 7 7 8 9 10 11 11 12
5 6 6 8 16 18 17 39 87 100 100 100 100 100 100 96 85 73 59 46 35 28 23 17 13 12 11 11 10 8 8 7 7 7 6 6 6 5 5 5 5 5 6 6
7 9 12 30 79 73 86 99 100 100 100 100 100 100 100 86 72 58 44 30 25 18 15 14 13 11 10 9 9 9 9 8 7 7 7 7 6 6 6 6 5 6 6 6
14 10 9 55 100 100 100 100 100 100 100 100 100 100 100 84 46 37 34 27 19 17 16 15 14 14 15 15 14 12 11 10 9 8 8 8 8 8 9 10 11 13 13 13

GFSCGP_500_rhum_126.txt.gz
RH
10 20 26 28 29 28 28 29 17 7 5 7 4 3 2 6 9 4 14 28 26 27 27 25 30 33 18 27 15 2 1 3 5 10 19 16 27 70 99 70 41 36 40 38
19 14 27 34 37 33 30 16 5 4 4 3 2 2 2 35 40 10 29 24 22 19 22 32 39 29 25 34 35 31 8 1 5 5 10 18 20 39 98 92 62 41 45 43
12 31 34 35 38 34 27 7 4 4 2 2 2 2 11 97 68 71 42 30 22 27 31 35 30 18 17 19 26 26 25 13 2 7 8 8 17 35 80 98 78 38 52 46
14 31 43 42 39 33 21 4 4 3 2 2 6 9 19 91 52 36 72 34 29 30 49 43 35 32 28 20 30 28 30 28 18 4 7 10 14 20 65 98 88 37 57 53
43 33 47 46 40 27 6 4 3 2 2 2 14 82 100 92 96 83 56 31 37 48 50 53 47 41 37 30 27 25 39 28 28 23 6 7 12 16 48 91 91 49 64 60
64 58 45 50 43 13 4 4 3 2 2 4 58 97 62 100 95 57 52 36 45 48 58 64 48 38 44 36 47 57 63 63 36 27 9 8 8 16 28 74 74 53 48 62
73 62 58 52 30 6 4 4 2 2 4 8 89 91 54 28 37 41 26 43 50 48 57 55 44 38 41 42 64 64 79 57 40 36 23 7 8 13 30 80 84 68 52 55
97 84 68 61 12 5 4 3 3 3 3 7 22 36 53 74 70 56 59 62 60 62 65 53 37 42 52 65 58 92 88 82 37 38 45 7 8 12 23 75 98 90 56 58
98 95 82 43 7 5 4 3 3 3 6 19 37 68 94 96 81 74 66 69 77 76 56 56 60 63 59 86 88 90 88 76 56 46 41 7 9 17 39 91 66 96 80 64
96 85 37 11 9 5 4 4 5 6 20 27 40 65 63 78 87 71 69 68 83 82 69 62 74 58 65 83 96 90 100 88 70 75 37 7 9 27 78 68 68 95 92 87
98 37 20 20 6 5 4 3 4 13 18 21 49 76 76 91 85 72 68 76 79 73 64 66 60 93 67 100 98 100 84 99 100 67 37 9 20 58 87 94 87 96 95 98
99 69 59 7 6 5 4 4 7 9 12 21 45 46 67 79 81 75 80 78 75 81 66 72 52 69 98 72 77 100 93 97 100 70 30 10 27 74 98 99 95 96 90 96
100 81 18 8 6 12 11 3 6 9 12 21 53 61 80 76 84 83 89 80 79 85 88 78 87 65 88 96 96 100 99 82 95 76 25 89 36 48 87 93 85 97 83 94
99 77 10 58 26 5 4 3 4 6 12 33 48 64 59 72 78 85 86 92 81 95 95 93 96 94 54 65 100 96 99 100 98 68 91 30 71 89 99 87 83 100 95 98
98 51 11 8 6 6 5 4 4 9 13 32 54 63 57 63 65 79 91 98 94 100 100 100 99 100 99 69 62 61 80 87 84 64 97 95 98 100 76 84 95 98 100 97
100 30 11 9 7 7 5 4 4 6 20 31 63 61 53 66 63 76 91 91 80 76 100 100 100 100 100 100 98 100 77 86 47 70 95 93 96 96 100 99 97 97 100 94
92 15 13 10 8 7 6 6 5 6 21 35 64 62 65 72 74 78 88 39 83 57 50 93 100 100 100 100 100 100 93 66 31 80 58 58 59 50 67 86 97 96 85 84
47 16 16 12 10 9 9 7 6 6 16 47 68 80 81 93 92 97 83 72 69 82 74 43 57 89 99 92 100 100 100 98 64 56 51 80 100 88 62 77 97 82 92 96
35 19 17 14 12 10 8 6 6 8 15 56 83 91 96 100 98 97 92 92 77 58 52 73 74 58 42 90 46 53 67 92 100 100 99 100 100 100 100 100 97 89 79 74
23 22 18 16 13 9 9 7 6 6 13 55 89 100 100 100 100 100 100 83 69 63 44 36 33 38 50 48 56 58 34 33 28 27 54 60 63 63 67 75 74 63 58 49
23 23 19 15 10 8 6 5 6 12 24 52 84 100 100 100 100 100 90 68 58 54 52 54 55 54 52 51 50 50 49 46 43 42 42 42 40 38 35 35 35 34 33 35
26 22 16 10 7 6 10 9 17 27 46 44 87 100 100 100 100 100 90 75 67 64 61 56 52 48 43 39 33 27 22 19 17 16 15 13 11 10 9 10 10 10 11 11
24 18 9 7 6 5 5 5 11 36 39 71 89 100 100 100 100 100 100 83 70 64 58 50 39 29 24 20 14 12 10 8 8 8 8 7 7 7 7 7 7 6 6 6
10 7 6 6 7 6 6 11 16 12 45 64 98 100 100 100 100 100 99 81 68 58 42 30 23 14 12 11 10 9 8 10 10 10 9 8 8 7 7 6 6 7 7 6
7 6 6 6 6 7 12 35 34 25 57 88 100 100 100 100 100 100 88 74 57 39 34 22 16 13 12 11 12 14 15 13 11 10 8 7 6 6 5 5 5 5 5 5
7 7 8 10 10 15 56 81 93 100 100 100 100 100 100 100 100 100 91 59 46 38 26 20 18 18 20 22 20 18 16 14 11 8 7 7 7 6 6 7 6 7 8 9

GFSCGP_500_rhum_132.txt.gz
RH
15 12 11 11 11 10 10 10 10 15 32 24 32 32 29 24 21 17 11 10 7 6 6 8 16 27 25 18 15 14 15 16 15 14 14 11 6 3 3 11 16 24 54 87
25 34 17 11 11 12 12 12 13 14 25 30 36 37 31 28 19 14 9 7 5 5 11 38 40 22 20 16 14 17 16 14 18 18 15 16 12 7 3 4 12 16 36 70
20 23 24 18 17 17 17 16 17 16 18 44 42 35 28 18 13 11 7 6 7 9 15 31 45 36 18 30 38 34 31 25 27 31 21 21 13 12 6 3 7 12 24 72
23 19 17 17 17 26 23 43 45 36 43 45 36 34 32 18 15 6 12 9 11 31 21 23 20 29 37 41 47 44 34 28 29 26 17 29 17 18 12 5 4 8 12 43
16 18 17 16 30 38 39 56 68 74 64 56 34 24 22 14 7 6 6 16 30 54 55 42 42 32 44 46 42 38 38 31 31 33 33 28 26 19 19 16 7 7 10 15
14 16 24 43 50 76 91 90 85 78 45 46 26 22 14 9 6 6 13 33 40 55 63 63 34 32 51 37 40 46 45 36 32 36 37 39 26 20 26 19 18 5 9 11
20 22 45 72 67 92 100 93 77 62 33 24 12 9 9 7 8 20 44 54 59 58 55 35 27 37 47 31 38 43 40 52 49 39 38 48 53 42 23 23 20 13 7 8
11 17 98 99 94 94 99 98 98 76 55 51 11 11 11 10 22 26 32 45 43 50 55 41 36 38 46 48 45 39 49 41 43 45 46 45 45 72 48 34 30 21 6 9
42 30 61 70 87 82 73 84 100 88 63 25 16 16 12 12 15 20 39 48 53 67 62 53 40 51 52 56 39 47 54 35 42 55 51 57 81 73 87 48 39 24 12 8
37 34 48 90 99 73 64 100 90 63 27 33 26 16 9 11 14 17 32 58 67 76 73 53 43 54 52 51 43 45 44 37 47 66 74 76 90 100 100 82 54 39 22 7
76 60 56 90 100 100 100 86 55 56 48 37 16 20 7 13 15 16 27 60 72 82 91 67 48 49 59 69 52 52 48 45 63 84 83 80 80 54 43 83 94 62 34 8
55 40 78 97 100 99 100 99 98 96 72 40 43 13 11 16 20 25 35 72 72 86 87 81 57 51 58 80 67 64 57 57 56 76 100 57 88 100 78 63 69 54 34 10
24 48 75 88 100 100 100 94 96 82 24 42 56 23 15 21 26 28 54 63 67 86 76 71 95 76 63 74 63 60 85 83 67 96 100 98 82 100 57 89 68 56 53 26
63 64 63 90 100 99 95 100 78 86 100 83 36 22 17 14 13 22 62 64 70 96 84 74 60 100 97 85 85 78 85 91 82 93 92 100 100 99 87 40 62 64 65 38
67 69 60 84 98 100 98 99 76 100 100 63 35 10 22 19 24 32 63 74 81 92 98 61 78 99 100 100 100 100 96 97 96 93 78 100 100 83 85 98 97 97 68 48
9 37 49 73 100 89 83 89 100 100 100 60 9 13 13 14 24 28 69 84 84 89 90 88 92 96 100 99 100 100 99 78 100 100 97 70 74 95 99 100 66 83 72 88
11 24 51 70 97 93 83 55 26 10 8 8 16 17 14 9 16 28 69 93 98 94 90 90 65 54 96 100 97 90 100 100 98 96 96 100 98 99 100 98 94 75 80 87
18 83 92 84 97 93 85 55 24 15 31 34 16 21 17 14 16 27 58 95 100 100 97 95 47 34 51 56 99 93 84 85 75 90 99 100 99 100 92 77 74 63 40 42
47 98 99 90 94 100 95 44 18 15 15 16 18 15 13 16 20 31 68 94 100 100 99 98 60 49 52 50 50 66 89 71 76 68 51 49 59 60 79 92 87 74 69 86
100 99 100 100 100 100 87 22 16 17 22 19 16 14 13 13 16 20 54 98 100 100 100 100 65 56 58 56 56 52 47 38 42 24 24 28 20 27 29 28 32 36 41 43
100 100 100 100 100 99 48 20 24 22 23 22 18 12 8 8 12 19 35 93 100 100 100 100 87 62 62 61 53 42 30 19 11 9 9 9 9 8 9 17 23 18 20 28
100 97 100 100 92 50 35 36 34 29 18 9 6 6 6 7 9 14 49 82 100 100 100 100 99 80 65 57 44 28 17 11 10 11 11 11 10 9 9 8 8 9 9 9
100 100 100 99 66 54 51 26 16 9 7 6 6 5 5 10 13 31 92 100 100 100 100 100 100 99 74 52 36 21 14 11 11 13 14 14 12 11 12 12 12 13 14 14
99 100 100 100 86 54 34 28 10 7 8 8 7 8 12 15 14 71 98 100 100 100 100 100 100 100 89 48 29 18 14 15 18 18 16 15 15 16 16 17 18 18 13 9
97 100 100 93 67 61 20 9 8 9 10 9 9 31 60 33 40 97 100 100 100 100 100 100 100 100 92 42 25 20 16 17 20 23 25 23 22 24 24 26 21 16 13 9
100 100 97 72 50 11 9 10 12 14 13 10 24 50 62 76 85 96 100 100 100 100 100 100 100 100 84 39 28 18 18 19 24 27 24 23 21 22 28 23 19 18 14 10

GFSCGP_500_rhum_135.txt.gz
RH
21 20 19 17 15 17 23 18 10 10 12 10 12 12 12 12 15 16 27 30 28 17 15 14 8 7 6 6 8 18 30 26 23 18 14 12 10 7 10 6 4 3 5 12
16 16 26 22 20 18 31 29 20 18 19 18 17 17 17 21 28 36 36 27 16 14 12 6 6 6 10 11 14 19 19 23 24 30 28 23 15 8 8 11 10 4 4 7
24 21 22 23 27 30 25 19 17 16 17 21 22 18 22 30 35 31 22 19 16 11 6 6 8 17 19 13 16 18 31 32 30 30 24 17 15 20 14 11 10 10 4 4
23 22 20 19 19 18 16 22 19 18 20 22 28 23 29 38 42 32 21 19 9 7 6 8 13 20 26 21 17 31 37 24 26 31 26 20 21 21 21 23 17 11 8 4
18 18 16 14 15 17 18 22 37 52 61 62 53 64 46 49 38 28 19 11 7 6 9 17 20 17 27 22 19 34 38 36 32 34 32 24 23 32 29 20 16 20 11 5
17 14 12 11 12 17 25 51 75 69 79 70 73 62 57 44 30 22 12 8 7 13 21 32 21 36 35 24 30 38 47 51 43 36 46 36 38 36 29 21 20 27 12 11
11 9 9 10 10 35 61 79 84 81 83 80 76 67 54 39 24 16 11 7 12 23 32 32 37 44 39 35 48 49 48 42 56 75 61 39 37 40 32 32 26 30 18 16
12 10 15 20 21 25 75 100 100 92 85 76 76 70 67 50 30 14 8 17 19 30 41 39 43 48 38 42 47 38 40 40 56 45 43 26 37 34 31 48 41 30 22 22
8 8 8 11 38 60 57 82 100 98 80 70 54 53 67 40 36 18 8 14 17 31 30 48 48 51 41 43 39 43 50 49 36 33 22 20 34 30 20 32 65 50 32 25
4 5 5 19 64 82 84 90 100 100 99 74 43 63 34 46 33 10 9 12 17 20 35 53 61 52 44 41 40 48 43 34 33 29 30 25 32 48 50 57 96 80 50 34
3 3 3 13 48 59 89 92 81 96 99 98 76 60 76 58 28 9 10 18 27 23 43 60 62 58 46 44 41 55 43 38 48 56 49 45 65 82 70 51 100 99 75 46
2 2 2 3 21 81 91 74 74 100 100 99 93 76 71 66 47 12 11 16 26 54 52 62 62 64 62 53 48 56 41 44 49 77 58 69 95 88 83 43 100 100 77 52
3 3 3 4 26 57 72 78 89 98 100 100 100 87 76 98 47 12 10 10 28 61 59 65 66 61 74 71 70 70 63 64 74 97 80 80 88 65 98 100 52 78 93 73
4 3 3 4 42 81 92 99 100 99 85 100 100 80 100 79 35 9 9 9 32 59 65 70 76 70 72 88 85 89 88 84 86 100 100 99 97 97 100 100 89 89 52 60
5 4 4 3 60 74 69 87 100 97 99 95 86 100 100 79 13 12 9 13 27 46 72 81 79 76 77 83 89 89 91 86 84 100 98 99 100 98 100 100 87 99 99 59
6 5 4 3 8 42 45 77 89 100 100 88 86 94 46 7 12 11 8 10 16 32 74 94 89 85 72 58 89 84 92 93 100 95 100 99 100 100 99 100 97 89 100 99
6 6 4 3 9 23 32 81 84 99 100 92 64 16 12 22 14 12 8 10 13 24 50 87 96 94 72 44 54 86 87 94 91 98 100 100 100 100 100 100 100 100 98 99
12 7 4 4 9 26 64 88 87 100 97 91 28 20 45 19 14 12 9 11 14 16 32 61 97 99 74 55 49 49 81 95 93 88 86 88 97 99 98 100 100 83 98 97
13 6 5 8 20 81 85 91 93 100 79 80 19 18 17 15 13 13 14 15 14 15 28 48 91 100 95 58 66 60 51 52 76 97 96 93 77 59 79 90 72 39 78 76
24 33 44 81 100 89 88 85 96 100 68 33 22 27 33 20 20 14 8 6 6 7 19 60 88 100 100 80 58 58 54 40 25 14 15 10 13 30 32 30 11 8 8 11
39 92 98 100 100 98 95 100 100 82 42 37 33 33 26 19 9 6 5 5 5 6 16 84 100 100 100 98 80 64 50 33 14 10 11 12 10 9 8 8 8 8 8 8
92 92 99 91 93 83 100 100 91 55 42 41 31 16 11 8 6 5 6 6 7 12 52 98 100 100 100 100 98 83 46 27 15 11 12 15 14 11 10 10 11 12 12 13
92 99 100 100 100 100 100 62 53 50 41 25 28 14 6 6 6 6 7 8 14 74 100 99 99 100 100 100 100 99 57 28 19 14 16 17 15 14 15 17 21 23 23 22
97 88 99 100 100 100 99 84 80 44 62 26 8 8 7 7 8 14 13 24 68 100 95 100 100 100 100 100 100 100 61 30 18 16 20 20 22 23 25 24 23 23 27 26
94 100 100 99 100 97 96 86 84 39 10 8 9 8 8 8 19 34 23 64 97 90 98 100 100 100 100 100 100 100 57 27 20 20 23 28 29 24 23 22 24 25 21 21
99 100 100 100 100 97 78 83 39 9 10 10 11 11 10 20 43 64 66 84 79 93 100 100 100 100 100 100 100 100 62 34 30 31 33 33 32 34 33 31 28 22 20 16

GFSCGP_500_rhum_138.txt.gz
RH
39 41 34 22 20 20 20 19 18 17 22 20 28 25 18 15 14 15 17 17 20 28 36 37 31 25 24 20 16 21 18 7 6 6 6 9 10 12 16 16 15 14 8 5
69 49 42 40 25 21 20 18 21 22 24 23 22 19 17 16 17 17 18 23 36 43 38 31 28 26 18 14 16 10 6 9 12 12 14 13 11 11 13 18 23 12 10 7
74 66 45 35 32 30 26 22 21 19 19 18 17 16 16 19 24 32 41 44 42 38 34 27 22 14 10 8 8 11 11 12 14 13 16 19 17 16 16 19 18 18 16 9
49 48 33 25 22 20 19 17 17 15 14 13 15 13 14 25 39 50 55 54 50 40 30 25 14 8 8 9 12 12 20 13 13 20 21 22 25 17 30 22 16 16 18 18
31 28 25 21 19 17 16 14 11 12 13 13 18 35 13 21 52 68 64 52 35 28 25 14 9 8 8 13 12 17 12 20 25 26 21 23 26 22 29 32 32 20 22 21
33 27 25 22 13 11 13 12 12 13 14 15 36 62 12 47 62 64 56 40 28 28 26 10 10 19 29 25 26 20 32 39 38 32 26 28 32 35 33 28 36 32 29 26
28 22 22 18 12 13 14 13 12 13 12 17 16 29 38 54 61 83 74 58 70 35 9 14 16 33 28 32 27 36 36 37 39 51 49 39 28 35 28 22 27 38 36 25
30 13 13 13 13 11 10 11 27 20 18 25 48 33 45 56 78 71 63 52 37 22 11 11 18 24 23 21 35 40 35 38 56 49 45 36 31 32 29 27 21 25 31 40
23 18 12 10 10 10 18 21 38 56 47 47 26 34 54 82 83 60 51 52 35 9 7 12 22 26 23 14 35 36 33 36 50 40 36 38 36 32 29 36 74 72 47 35
12 17 13 7 7 29 23 31 34 72 70 54 36 64 75 94 95 76 72 58 19 6 13 15 22 38 31 41 36 36 32 40 32 33 45 57 45 43 26 32 49 64 67 58
8 11 14 8 4 2 11 20 68 94 99 96 77 66 93 100 91 81 65 33 10 7 12 22 36 45 47 53 44 34 40 46 36 47 41 52 61 47 40 52 94 74 92 100
8 12 12 5 3 3 3 9 31 74 95 90 95 77 93 100 99 76 62 39 10 9 14 24 38 52 64 61 53 41 43 55 52 50 48 55 49 72 53 48 100 100 100 100
7 8 7 4 3 3 3 7 41 63 59 64 82 79 81 91 100 100 73 49 12 12 10 11 20 51 65 69 62 53 65 64 71 74 72 67 61 62 58 60 93 96 98 100
4 4 3 3 3 4 3 3 38 78 50 71 67 92 100 100 98 93 88 46 13 9 7 7 9 33 67 79 65 61 72 77 96 93 82 88 82 67 74 78 87 80 91 100
4 3 3 4 4 4 4 3 9 71 65 63 81 95 100 100 96 96 62 14 14 12 7 7 7 19 54 77 72 60 61 74 90 100 88 91 99 92 96 99 100 100 100 100
4 4 4 4 5 6 5 4 3 7 28 48 90 79 98 94 90 51 22 18 14 10 9 9 9 11 19 62 77 60 55 56 74 100 100 92 88 100 100 100 100 100 100 100
4 5 6 5 7 6 5 4 5 8 19 44 80 97 88 88 51 32 31 16 13 12 12 12 10 10 10 37 71 73 58 55 58 83 95 97 92 99 99 100 100 100 100 99
6 7 9 8 9 7 6 4 7 12 40 67 80 95 91 89 41 29 17 15 16 16 13 8 6 8 13 32 64 83 64 71 55 57 94 83 91 86 94 95 81 65 96 96
10 12 20 19 18 7 7 13 14 37 85 87 90 100 53 71 29 18 24 27 21 13 7 5 5 7 13 34 75 92 70 65 63 43 41 56 78 82 93 86 71 34 86 76
18 55 76 58 17 12 36 62 96 89 89 91 93 100 48 41 30 34 36 25 16 8 6 5 5 8 28 54 93 100 93 58 60 40 15 12 11 11 18 55 57 87 40 33
30 76 66 35 65 66 99 100 96 93 96 96 91 75 38 37 33 23 17 16 10 6 5 5 6 14 52 100 100 100 100 89 61 37 15 12 13 11 9 9 9 9 12 12
51 58 39 81 100 99 100 98 98 100 100 94 69 48 37 24 12 14 22 14 6 5 6 6 9 46 90 100 100 100 100 100 95 41 21 14 15 16 12 12 14 16 20 23
55 50 89 99 100 100 100 100 100 96 93 76 46 29 32 42 40 18 7 6 6 9 10 12 54 98 100 100 100 100 100 100 100 58 26 16 16 18 16 15 18 22 22 22
49 49 98 100 100 100 100 100 100 100 98 80 70 68 63 16 8 8 7 8 17 27 19 45 99 99 94 100 100 100 100 100 100 96 26 21 24 24 24 26 25 23 25 29
34 80 100 99 100 96 100 100 100 100 99 99 67 23 10 10 9 9 10 23 59 36 63 93 87 85 98 100 100 100 100 100 100 99 57 35 33 33 33 30 31 34 35 34
83 100 100 99 100 97 100 100 98 95 89 75 17 12 11 10 11 12 30 52 60 57 82 74 72 83 100 100 100 100 100 100 99 100 86 46 41 39 38 38 40 40 36 28

GFSCGP_500_rhum_141.txt.gz
RH
53 44 35 34 32 35 38 48 53 32 27 25 20 18 19 20 22 22 21 19 17 17 18 19 21 24 30 34 34 33 35 35 27 23 22 17 12 6 5 6 6 10 9 10
75 76 66 53 43 54 64 52 49 41 31 28 26 23 20 19 17 17 17 18 19 20 22 24 29 32 35 40 44 41 30 18 16 17 10 10 7 6 10 10 11 16 11 11
38 39 36 42 74 69 65 56 33 27 23 21 20 19 17 18 20 20 23 29 35 40 45 47 48 48 49 46 33 23 12 7 6 6 6 9 11 8 9 13 16 18 23 18
34 36 37 38 39 42 45 32 28 25 24 24 24 26 23 24 28 28 34 38 42 44 49 57 60 52 34 24 17 9 6 15 9 11 12 12 12 13 20 18 17 15 20 22
41 40 40 40 39 37 34 30 27 26 27 29 24 24 20 21 25 26 32 45 51 58 62 58 48 34 39 31 8 17 18 18 22 21 15 14 19 21 22 24 19 25 23 25
52 51 48 43 35 32 30 29 27 28 25 26 22 20 15 16 21 32 48 50 63 76 79 74 68 56 20 10 12 22 14 20 34 20 14 22 20 23 26 23 18 22 31 30
54 45 40 35 32 29 28 24 18 20 16 15 15 13 12 16 24 38 47 52 77 69 58 47 33 31 15 10 24 23 15 26 29 21 24 30 26 35 30 29 24 21 24 22
46 39 36 28 26 19 15 15 14 16 14 11 12 12 13 21 48 68 78 84 71 60 56 44 38 8 12 19 23 22 22 35 34 37 38 40 38 49 48 37 28 25 28 30
50 36 27 21 16 14 13 11 12 13 13 12 10 10 12 32 74 89 95 86 81 73 60 43 10 11 15 18 30 38 40 35 34 39 40 41 39 42 39 41 41 37 36 36
29 31 21 13 9 10 11 8 8 9 8 6 3 11 32 67 78 83 82 86 100 88 61 13 9 9 10 38 37 34 41 41 33 34 36 38 37 30 52 58 50 40 38 36
15 18 19 15 9 6 5 3 3 3 4 6 3 13 44 74 76 92 84 92 92 70 33 11 8 8 38 38 26 39 55 51 46 41 36 36 28 31 49 59 73 66 51 52
9 15 23 19 11 8 5 4 3 3 4 4 8 7 52 86 88 96 99 84 82 78 41 10 8 16 35 27 19 34 66 55 54 46 46 41 42 38 64 41 49 59 58 85
12 23 29 21 9 6 5 4 3 3 3 3 8 7 64 90 95 90 94 78 88 83 35 11 10 15 20 15 16 30 63 62 58 58 64 48 62 61 70 51 37 51 68 92
31 16 7 6 5 4 4 4 4 4 4 6 3 10 53 61 92 92 74 92 92 87 16 13 13 13 16 10 10 20 50 68 59 52 69 63 76 75 91 66 54 72 86 87
8 8 6 5 5 4 4 4 4 5 6 6 3 3 13 32 64 96 95 85 90 47 19 14 13 13 12 9 8 13 31 64 63 58 56 77 89 86 96 89 82 74 99 100
7 6 5 5 4 4 4 4 6 7 6 5 4 3 26 33 68 100 97 96 70 36 18 14 14 15 9 7 7 8 20 57 72 62 58 70 87 98 100 100 100 99 93 100
7 6 6 4 5 5 4 5 6 6 6 6 5 13 46 63 96 100 93 72 38 32 17 20 16 7 6 6 5 6 12 36 82 63 68 55 82 89 98 92 97 95 98 100
6 6 6 6 6 5 6 7 10 8 13 13 10 41 79 89 99 100 79 88 29 19 28 20 13 12 9 6 5 6 10 27 85 71 63 50 69 81 88 75 25 46 33 66
6 7 8 7 8 7 8 26 23 12 46 41 47 67 97 100 100 85 63 76 36 31 27 14 15 16 9 5 5 8 21 42 88 93 58 41 36 33 40 73 91 48 48 21
8 9 9 11 14 10 16 22 39 68 75 100 89 99 100 100 100 68 45 42 39 22 11 13 16 8 5 5 5 11 49 81 100 100 70 47 18 11 11 15 25 33 14 13
12 12 12 16 26 15 38 48 100 100 93 91 100 100 100 87 70 57 38 26 14 15 18 13 8 6 6 6 11 53 96 100 100 100 100 81 27 13 14 11 10 11 14 19
12 14 15 16 24 37 42 99 100 100 100 100 100 100 92 74 44 24 23 33 32 16 9 6 9 10 10 19 74 100 100 100 100 100 100 100 60 19 17 18 16 17 20 24
15 19 16 12 27 44 86 99 95 98 100 100 100 93 60 36 46 64 34 21 8 7 8 19 22 18 63 97 100 100 99 100 100 100 100 100 100 30 24 22 19 20 24 24
22 23 18 18 38 47 99 100 99 100 100 100 100 100 99 97 69 27 10 8 8 8 15 45 45 85 98 100 98 92 91 100 100 100 100 100 100 74 38 36 32 32 29 28
27 26 20 17 36 81 100 100 100 100 100 100 99 98 97 44 16 11 9 8 10 21 45 57 58 77 83 83 80 88 99 100 100 100 100 100 100 98 57 42 40 36 34 34
35 52 28 16 63 97 100 100 100 99 100 98 100 96 44 15 13 10 11 13 17 57 64 71 74 80 80 84 88 94 100 100 100 100 100 100 100 100 97 76 42 40 39 46

GFSCGP_500_rhum_147.txt.gz
RH
57 54 52 49 45 41 45 60 64 68 60 51 54 58 60 51 58 60 45 34 29 24 22 20 22 24 24 24 22 18 13 10 10 12 11 13 16 28 34 34 34 36 33 32
66 67 64 63 59 48 38 34 36 42 44 38 36 36 38 39 44 40 32 29 27 25 26 26 26 22 17 14 12 8 9 12 14 14 24 38 44 46 46 36 20 13 10 7
74 75 57 64 60 50 41 35 32 30 32 34 34 33 41 35 34 34 31 31 30 28 25 20 16 13 11 8 8 11 11 19 40 42 48 47 47 24 13 15 11 5 8 15
68 66 64 58 47 45 42 38 37 37 37 40 40 38 38 42 37 38 33 28 23 18 15 12 10 9 7 9 15 23 49 49 40 36 38 28 13 14 13 8 9 16 19 17
66 63 59 51 46 45 45 46 46 47 48 48 44 41 76 88 54 37 27 19 16 13 9 7 8 14 26 35 37 50 44 39 37 34 10 10 12 10 24 23 23 22 24 25
69 59 55 53 52 51 50 53 53 51 51 47 56 63 76 100 45 26 18 14 10 8 8 14 29 42 54 56 52 48 40 47 27 8 10 9 13 33 30 29 25 23 27 30
53 52 54 57 62 59 61 60 55 52 90 87 94 68 70 43 24 16 11 9 10 9 22 35 54 58 57 75 63 55 57 16 7 12 7 14 30 29 28 23 25 34 28 24
88 82 69 65 69 66 58 55 53 50 47 42 68 37 50 27 21 23 13 11 8 14 42 53 63 61 58 80 84 68 25 8 9 6 10 29 16 12 19 24 25 37 41 33
98 98 78 72 68 64 53 50 49 39 35 31 32 54 44 32 27 28 13 4 5 23 55 62 66 74 84 87 77 34 9 9 6 5 20 32 22 10 7 15 22 32 42 44
96 88 74 65 60 58 54 41 30 20 26 26 43 64 68 41 41 14 5 4 7 18 26 62 73 85 95 88 66 18 8 7 5 6 29 37 21 12 6 8 13 22 31 37
75 74 68 68 65 58 52 40 17 20 24 26 29 38 48 47 17 8 4 4 4 7 26 67 80 91 85 83 59 11 7 6 6 11 28 25 13 10 10 9 11 13 23 37
77 77 80 65 64 67 30 11 14 20 24 33 67 50 38 12 7 5 4 4 4 4 30 47 62 94 85 85 62 11 8 7 6 9 19 15 8 7 7 10 20 26 23 49
78 80 76 67 62 37 23 20 26 25 16 20 12 19 7 6 6 5 4 4 4 4 7 23 49 94 90 91 52 13 10 10 7 5 8 8 7 6 6 10 21 42 46 44
87 88 81 68 31 22 26 25 26 19 12 7 14 10 9 7 5 5 5 3 4 5 6 20 56 100 100 95 36 14 13 12 5 5 6 6 6 8 15 22 33 51 62 78
87 82 73 55 27 22 37 45 30 10 6 5 8 5 5 6 6 6 5 5 4 5 22 85 100 100 100 76 27 17 18 13 9 9 7 7 5 8 19 51 48 62 60 96
85 78 69 51 28 35 52 53 13 6 5 5 5 6 11 11 10 18 13 8 6 23 73 100 100 100 99 33 23 24 13 15 10 14 13 8 5 6 14 60 60 73 49 40
82 71 53 50 56 64 50 14 10 7 6 8 10 20 46 48 54 21 45 20 56 100 100 100 100 100 99 45 27 17 15 14 19 19 11 5 6 10 21 63 57 63 68 38
76 64 77 82 64 30 20 12 8 6 9 15 44 30 92 42 37 57 64 78 100 100 100 100 98 79 76 46 28 17 23 28 17 7 5 7 9 16 32 74 78 39 28 91
94 94 62 32 16 14 8 17 14 10 14 16 19 56 88 79 72 97 99 100 100 100 100 81 84 44 25 14 20 28 21 8 7 7 8 11 18 45 89 100 94 38 16 26
88 44 23 16 12 9 37 24 8 14 14 32 65 98 92 94 91 92 100 99 100 100 98 86 46 16 19 25 18 11 10 10 9 12 16 48 79 98 99 99 100 52 29 22
32 16 14 10 8 7 7 8 15 18 40 56 66 76 84 92 99 99 97 100 100 79 40 20 22 31 38 16 9 11 15 14 20 34 57 83 97 99 98 96 100 93 46 33
31 14 10 8 8 8 33 18 22 22 16 24 57 86 86 100 99 100 100 98 91 47 30 66 52 16 10 10 11 23 24 35 68 81 83 95 100 97 96 95 100 100 94 46
16 14 20 46 15 13 15 16 21 21 13 21 71 92 95 97 99 98 100 100 84 88 52 18 13 11 10 11 23 36 49 73 78 88 94 90 85 89 98 100 100 100 99 96
10 11 14 13 19 23 20 25 25 20 14 28 77 86 88 100 100 100 100 99 72 22 19 14 12 12 13 23 47 54 63 76 82 85 87 88 91 97 100 100 100 100 100 99
14 16 32 40 47 34 29 27 33 42 17 30 84 98 100 100 100 100 100 66 25 20 13 12 14 15 22 47 70 75 80 84 92 92 93 92 88 91 97 100 100 100 100 100
15 20 58 69 56 38 65 44 37 28 28 57 83 97 94 91 100 100 90 24 22 15 12 14 16 18 31 61 81 82 85 96 100 100 99 96 98 100 100 100 100 100 100 100

GFSCGP_500_rhum_150.txt.gz
RH
50 50 56 61 58 57 62 57 51 46 61 68 56 55 54 43 33 32 35 34 34 34 34 33 32 30 29 28 26 23 19 16 12 9 6 5 5 6 10 14 18 28 36 36
63 58 62 45 62 71 68 65 61 53 44 37 32 30 32 34 33 32 37 38 37 36 34 32 29 27 24 21 17 14 11 8 7 6 6 8 10 28 35 41 42 37 25 16
73 79 63 42 48 62 60 61 54 48 44 40 38 37 41 44 42 39 45 53 46 41 33 28 26 23 19 15 12 10 6 5 8 12 19 30 32 31 31 22 13 10 7 8
82 81 62 48 53 64 54 54 48 45 44 43 47 45 50 65 60 43 60 70 54 34 24 23 20 18 14 11 9 7 6 11 17 24 38 38 36 33 13 7 6 9 22 18
85 75 55 52 57 56 59 57 51 50 52 50 51 53 50 100 83 56 57 67 40 21 20 19 16 13 12 10 10 17 28 27 34 33 36 36 18 7 5 6 7 26 24 17
83 74 54 61 65 66 61 54 54 54 56 51 66 100 94 100 100 81 64 67 25 21 21 18 13 12 10 15 22 31 37 34 43 41 38 8 6 6 5 8 14 21 24 24
96 91 68 69 74 62 54 56 62 61 64 63 100 99 100 78 93 100 61 40 27 23 22 19 10 6 11 36 41 46 48 48 53 37 6 6 4 4 6 6 6 8 18 26
94 97 80 69 68 61 77 84 73 66 57 58 79 88 90 64 43 44 59 61 38 26 22 8 5 5 33 48 54 64 64 71 60 13 6 4 4 6 13 12 4 4 5 18
99 100 84 70 71 90 89 93 72 63 59 53 46 42 60 55 57 63 51 57 21 15 9 5 3 5 30 56 62 76 78 81 50 10 6 4 5 7 15 11 7 5 5 6
100 99 97 88 72 92 92 62 58 50 50 45 45 61 82 67 45 59 59 47 19 13 7 4 4 3 20 57 76 88 84 80 45 8 6 5 6 7 10 7 5 4 5 5
100 90 99 95 75 69 65 64 62 71 74 84 58 42 54 69 76 58 34 14 11 7 5 5 4 4 19 46 51 77 88 88 45 9 7 6 6 6 6 5 5 4 6 5
99 88 94 95 91 86 75 79 64 34 44 27 27 46 52 39 29 30 17 8 8 7 5 4 4 4 4 18 29 62 96 93 40 11 9 7 6 10 7 6 7 5 6 7
81 77 81 90 80 72 74 73 74 50 38 36 40 42 34 22 17 12 11 10 6 4 4 5 4 4 4 4 17 95 100 99 30 12 12 10 12 13 13 8 6 5 7 14
98 92 97 84 84 95 84 92 88 82 70 41 46 32 26 11 7 5 6 5 6 8 8 7 6 5 5 30 97 100 100 80 18 16 15 19 26 16 18 11 6 5 11 22
100 96 82 90 93 87 89 72 52 26 34 34 48 16 9 6 6 8 10 11 17 51 48 15 8 13 68 99 100 100 99 34 22 20 20 23 28 24 24 8 4 6 18 38
100 98 99 95 89 87 78 70 54 32 52 51 21 13 12 9 12 12 28 45 35 98 73 21 100 98 99 100 100 100 68 28 26 19 20 26 35 26 9 4 5 7 21 46
99 100 95 88 86 77 62 54 53 57 31 16 9 8 9 13 11 74 84 55 43 34 38 49 86 100 100 100 100 100 86 54 43 39 35 35 14 5 5 6 8 18 36 69
98 100 98 86 84 69 61 68 54 28 14 9 8 13 14 14 37 62 74 56 61 87 96 99 100 100 100 100 98 62 37 25 22 29 19 6 6 6 8 14 29 54 89 96
100 100 97 93 89 76 79 42 51 30 18 28 13 15 28 38 45 70 100 88 91 100 98 97 100 100 100 100 61 17 24 22 15 8 8 8 8 14 32 50 76 95 93 100
100 100 100 91 88 76 46 82 40 33 34 19 26 32 17 35 53 88 88 90 89 97 99 100 98 71 34 34 21 43 24 9 9 10 12 13 29 40 58 82 86 91 95 97
98 100 93 99 91 64 26 49 20 25 23 28 26 20 14 30 72 69 93 95 91 88 94 97 98 41 40 64 42 11 10 11 13 18 28 46 58 61 72 80 94 100 96 100
100 99 97 79 38 36 37 29 23 35 19 17 18 19 14 29 77 78 93 100 94 92 100 100 92 85 54 15 12 10 10 20 29 34 50 60 65 74 85 90 89 89 93 100
96 100 100 98 66 54 35 26 17 19 20 20 22 19 14 64 84 86 88 97 100 100 100 96 55 19 14 12 11 11 18 32 48 52 68 73 76 84 93 93 89 81 80 90
97 100 79 57 47 33 18 22 20 27 25 23 24 20 17 62 92 80 80 94 100 100 99 31 17 14 13 12 12 17 26 45 63 80 84 89 95 100 100 97 93 91 94 95
98 67 47 26 18 29 42 39 37 36 36 30 26 22 25 25 70 99 92 90 97 98 77 17 13 11 13 14 16 19 34 77 81 83 86 96 100 100 100 100 100 100 97 97
56 44 73 62 60 59 71 81 56 66 47 40 28 25 37 68 73 96 100 95 100 96 37 17 11 10 13 16 21 25 44 65 78 92 98 100 100 100 100 100 100 97 98 99